[[{"header":{"parameterUnit":"m.s-1","parameterCategory":1,"la1":30.6,"la2":28.766,"lo1":-90.7593,"lo2":-88.6598,"dy":0.0162,"dx":0.0183,"nx":116,"ny":114,"refTime":"2023-10-12T00:00:00:Z","depth":0,"parameterNumber":2,"parameterNumberName":"U-component_of_WINDS"},"data":[0.0,0.0,0.0,0.0,0.0,0.0,0.0,0.0,0.0,0.0,0.0,0.0,0.0,0.0,0.0,0.0,0.0,0.0,0.0,0.0,0.0,0.0,0.0,0.0,0.0,0.0,0.0,0.0,0.0,0.0,0.0,0.0,0.0,0.0,0.0,0.0,0.0,0.0,0.0,0.0,0.0,0.0,0.0,0.0,0.0,0.0,0.0,0.0,0.0,0.0,0.0,0.0,0.0,0.0,0.0,0.0,0.0,0.0,0.0,0.0,0.0,0.0,0.0,0.0,0.0,0.0,0.0,0.0,0.0,0.0,0.0,0.0,0.0,0.0,0.0,0.0,0.0,0.0,0.0,0.0,0.0,0.0,0.0,0.0,0.0,0.0,0.0,0.0,0.0,0.0,0.0,0.0,0.0,0.0,0.0,0.0,0.0,0.0,0.0,0.0,0.0,0.0,0.0,0.0,0.0,0.0,0.0,0.0,0.0,0.0,0.0,0.0,0.0,0.0,0.0,0.0,0.0,0.0,0.0,0.0,0.0,0.0,0.0,0.0,0.0,0.0,0.0,0.0,0.0,0.0,0.0,0.0,0.0,0.0,0.0,0.0,0.0,0.0,0.0,0.0,0.0,0.0,0.0,0.0,0.0,0.0,0.0,0.0,0.0,0.0,0.0,0.0,0.0,0.0,0.0,0.0,0.0,0.0,0.0,0.0,0.0,0.0,0.0,0.0,0.0,0.0,0.0,0.0,0.0,0.0,0.0,0.0,0.0,0.0,0.0,0.0,0.0,0.0,0.0,0.0,0.0,0.0,0.0,0.0,0.0,0.0,0.0,0.0,0.0,0.0,0.0,0.0,0.0,0.0,0.0,0.0,0.0,0.0,0.0,0.0,0.0,0.0,0.0,0.0,0.0,0.0,0.0,0.0,0.0,0.0,0.0,0.0,0.0,0.0,0.0,0.0,0.0,0.0,0.0,0.0,0.0,0.0,0.0,0.0,0.0,0.0,0.0,0.0,0.0,0.0,0.0,0.0,0.0,0.0,0.0,0.0,0.0,0.0,0.0,0.0,0.0,0.0,0.0,0.0,0.0,0.0,0.0,0.0,0.0,0.0,0.0,0.0,0.0,0.0,0.0,0.0,0.0,0.0,0.0,0.0,0.0,0.0,0.0,0.0,0.0,0.0,0.0,0.0,0.0,0.0,0.0,0.0,0.0,0.0,0.0,0.0,0.0,0.0,0.0,0.0,0.0,0.0,0.0,0.0,0.0,0.0,0.0,0.0,0.0,0.0,0.0,0.0,0.0,0.0,0.0,0.0,0.0,0.0,0.0,0.0,0.0,0.0,0.0,0.0,0.0,0.0,0.0,0.0,0.0,0.0,0.0,0.0,0.0,0.0,0.0,0.0,0.0,0.0,0.0,0.0,0.0,0.0,0.0,0.0,0.0,0.0,0.0,0.0,0.0,0.0,0.0,0.0,0.0,0.0,0.0,0.0,0.0,0.0,0.0,0.0,0.0,0.0,0.0,0.0,0.0,0.0,0.0,0.0,0.0,0.0,0.0,0.0,0.0,0.0,0.0,0.0,0.0,0.0,0.0,0.0,0.0,0.0,0.0,0.0,0.0,0.0,0.0,0.0,0.0,0.0,0.0,0.0,0.0,0.0,0.0,0.0,0.0,0.0,0.0,0.0,0.0,0.0,0.0,0.0,0.0,0.0,0.0,0.0,0.0,0.0,0.0,0.0,0.0,0.0,0.0,0.0,0.0,0.0,0.0,0.0,0.0,0.0,0.0,0.0,0.0,0.0,0.0,0.0,0.0,0.0,0.0,0.0,0.0,0.0,0.0,0.0,0.0,0.0,0.0,0.0,0.0,0.0,0.0,0.0,0.0,0.0,0.0,0.0,0.0,0.0,0.0,0.0,0.0,0.0,0.0,0.0,0.0,0.0,0.0,0.0,0.0,0.0,0.0,0.0,0.0,0.0,0.0,0.0,0.0,0.0,0.0,0.0,0.0,0.0,0.0,0.0,0.0,0.0,0.0,0.0,0.0,0.0,0.0,0.0,0.0,0.0,0.0,0.0,0.0,0.0,0.0,0.0,0.0,0.0,0.0,0.0,0.0,0.0,0.0,0.0,0.0,0.0,0.0,0.0,0.0,0.0,0.0,0.0,0.0,0.0,0.0,0.0,0.0,0.0,0.0,0.0,0.0,0.0,0.0,0.0,0.0,0.0,0.0,0.0,0.0,0.0,0.0,0.0,0.0,0.0,0.0,0.0,0.0,0.0,0.0,0.0,0.0,0.0,0.0,0.0,0.0,0.0,0.0,0.0,0.0,0.0,0.0,0.0,0.0,0.0,0.0,0.0,0.0,0.0,0.0,0.0,0.0,0.0,0.0,0.0,0.0,0.0,0.0,0.0,0.0,0.0,0.0,0.0,0.0,0.0,0.0,0.0,0.0,0.0,0.0,0.0,0.0,0.0,0.0,0.0,0.0,0.0,0.0,0.0,0.0,0.0,0.0,0.0,0.0,0.0,0.0,0.0,0.0,0.0,0.0,0.0,0.0,0.0,0.0,0.0,0.0,0.0,0.0,0.0,0.0,0.0,0.0,0.0,0.0,0.0,0.0,0.0,0.0,0.0,0.0,0.0,0.0,0.0,0.0,0.0,0.0,0.0,0.0,0.0,0.0,0.0,0.0,0.0,0.0,0.0,0.0,0.0,0.0,0.0,0.0,0.0,0.0,0.0,0.0,0.0,0.0,0.0,0.0,0.0,0.0,0.0,0.0,0.0,0.0,0.0,0.0,0.0,0.0,0.0,0.0,0.0,0.0,0.0,0.0,0.0,0.0,0.0,0.0,0.0,0.0,0.0,0.0,0.0,0.0,0.0,0.0,0.0,0.0,0.0,0.0,0.0,0.0,0.0,0.0,0.0,0.0,0.0,0.0,0.0,0.0,0.0,0.0,0.0,0.0,0.0,0.0,0.0,0.0,0.0,0.0,0.0,0.0,0.0,0.0,0.0,0.0,0.0,0.0,0.0,0.0,0.0,0.0,0.0,0.0,0.0,0.0,0.0,0.0,0.0,0.0,0.0,0.0,0.0,0.0,0.0,0.0,0.0,0.0,0.0,0.0,0.0,0.0,0.0,0.0,0.0,0.0,0.0,0.0,0.0,0.0,0.0,0.0,0.0,0.0,0.0,0.0,0.0,0.0,0.0,0.0,0.0,0.0,0.0,0.0,0.0,0.0,0.0,0.0,0.0,0.0,0.0,0.0,0.0,0.0,0.0,0.0,0.0,0.0,0.0,0.0,0.0,0.0,0.0,0.0,0.0,0.0,0.0,0.0,0.0,0.0,0.0,0.0,0.0,0.0,0.0,0.0,0.0,0.0,0.0,0.0,0.0,0.0,0.0,0.0,0.0,0.0,0.0,0.0,0.0,0.0,0.0,0.0,0.0,0.0,0.0,0.0,0.0,0.0,0.0,0.0,0.0,0.0,0.0,0.0,0.0,0.0,0.0,0.0,0.0,0.0,0.0,0.0,0.0,0.0,0.0,0.0,0.0,0.0,0.0,0.0,0.0,0.0,0.0,0.0,0.0,0.0,0.0,0.0,0.0,0.0,0.0,0.0,0.0,0.0,0.0,0.0,0.0,0.0,0.0,0.0,0.0,0.0,0.0,0.0,0.0,0.0,0.0,0.0,0.0,0.0,0.0,0.0,0.0,0.0,0.0,0.0,0.0,0.0,0.0,0.0,0.0,0.0,0.0,0.0,0.0,0.0,0.0,0.0,0.0,0.0,0.0,0.0,0.0,0.0,0.0,0.0,0.0,0.0,0.0,0.0,0.0,0.0,0.0,0.0,0.0,0.0,0.0,0.0,0.0,0.0,0.0,0.0,0.0,0.0,0.0,0.0,0.0,0.0,0.0,0.0,0.0,0.0,0.0,0.0,0.0,0.0,0.0,0.0,0.0,0.0,0.0,0.0,0.0,0.0,0.0,0.0,0.0,0.0,0.0,0.0,0.0,0.0,0.0,0.0,0.0,0.0,0.0,0.0,0.0,0.0,0.0,0.0,0.0,0.0,0.0,0.0,0.0,0.0,0.0,0.0,0.0,0.0,0.0,0.0,0.0,0.0,0.0,0.0,0.0,0.0,0.0,0.0,0.0,0.0,0.0,0.0,0.0,0.0,0.0,0.0,0.0,0.0,0.0,0.0,0.0,0.0,0.0,0.0,0.0,0.0,0.0,0.0,0.0,0.0,0.0,0.0,0.0,0.0,0.0,0.0,0.0,0.0,0.0,0.0,0.0,0.0,0.0,0.0,0.0,0.0,0.0,0.0,0.0,0.0,0.0,0.0,0.0,0.0,0.0,0.0,0.0,0.0,0.0,0.0,0.0,0.0,0.0,0.0,0.0,0.0,0.0,0.0,0.0,0.0,0.0,0.0,0.0,0.0,0.0,0.0,0.0,0.0,0.0,0.0,0.0,0.0,0.0,0.0,0.0,0.0,0.0,0.0,0.0,0.0,0.0,0.0,0.0,0.0,0.0,0.0,0.0,0.0,0.0,0.0,0.0,0.0,0.0,0.0,0.0,0.0,0.0,0.0,0.0,0.0,0.0,0.0,0.0,0.0,0.0,0.0,0.0,0.0,0.0,0.0,0.0,0.0,0.0,0.0,0.0,0.0,0.0,0.0,0.0,0.0,0.0,0.0,0.0,0.0,0.0,0.0,0.0,0.0,0.0,0.0,0.0,0.0,0.0,0.0,0.0,0.0,0.0,0.0,0.0,0.0,0.0,0.0,0.0,0.0,0.0,0.0,0.0,0.0,0.0,0.0,0.0,0.0,0.0,0.0,0.0,0.0,0.0,0.0,0.0,0.0,0.0,0.0,0.0,0.0,0.0,0.0,0.0,0.0,0.0,0.0,0.0,0.0,0.0,0.0,0.0,0.0,0.0,0.0,0.0,0.0,0.0,0.0,0.0,0.0,0.0,0.0,0.0,0.0,0.0,0.0,0.0,0.0,0.0,0.0,0.0,0.0,0.0,0.0,0.0,0.0,0.0,0.0,0.0,0.0,0.0,0.0,0.0,0.0,0.0,0.0,0.0,0.0,0.0,0.0,0.0,0.0,0.0,0.0,0.0,0.0,0.0,0.0,0.0,0.0,0.0,0.0,0.0,0.0,0.0,0.0,0.0,0.0,0.0,0.0,0.0,0.0,0.0,0.0,0.0,0.0,0.0,0.0,0.0,0.0,0.0,0.0,0.0,0.0,0.0,0.0,0.0,0.0,0.0,0.0,0.0,0.0,0.0,0.0,0.0,0.0,0.0,0.0,0.0,0.0,0.0,0.0,0.0,0.0,0.0,0.0,0.0,0.0,0.0,0.0,0.0,0.0,0.0,0.0,0.0,0.0,0.0,0.0,0.0,0.0,0.0,0.0,0.0,0.0,0.0,0.0,0.0,0.0,0.0,0.0,0.0,0.0,0.0,0.0,0.0,0.0,0.0,0.0,0.0,0.0,0.0,0.0,0.0,0.0,0.0,0.0,0.0,0.0,0.0,0.0,0.0,0.0,0.0,0.0,0.0,0.0,0.0,0.0,0.0,0.0,0.0,0.0,0.0,0.0,0.0,0.0,0.0,0.0,0.0,0.0,0.0,0.0,0.0,0.0,0.0,0.0,0.0,0.0,0.0,0.0,0.0,0.0,0.0,0.0,0.0,0.0,0.0,0.0,0.0,0.0,0.0,0.0,0.0,0.0,0.0,0.0,0.0,0.0,0.0,0.0,0.0,0.0,0.0,0.0,0.0,0.0,0.0,0.0,0.0,0.0,0.0,0.0,0.0,0.0,0.0,0.0,0.0,0.0,0.0,0.0,0.0,0.0,0.0,0.0,0.0,0.0,0.0,0.0,0.0,0.0,0.0,0.0,0.0,0.0,0.0,0.0,0.0,0.0,0.0,0.0,0.0,0.0,0.0,0.0,0.0,0.0,0.0,0.0,0.0,0.0,0.0,0.0,0.0,0.0,0.0,0.0,0.0,0.0,0.0,0.0,0.0,0.0,0.0,0.0,0.0,0.0,0.0,0.0,0.0,0.0,0.0,0.0,0.0,0.0,0.0,0.0,0.0,6.016,5.6839,0.0,0.0,0.0,0.0,0.0,0.0,0.0,0.0,0.0,0.0,0.0,0.0,0.0,0.0,0.0,0.0,0.0,0.0,0.0,0.0,0.0,0.0,0.0,0.0,0.0,0.0,0.0,0.0,0.0,0.0,0.0,0.0,0.0,0.0,0.0,0.0,0.0,0.0,6.3022,6.472,6.6585,6.4249,6.1506,5.8499,0.0,0.0,0.0,0.0,0.0,0.0,0.0,0.0,0.0,0.0,0.0,0.0,0.0,0.0,0.0,0.0,0.0,0.0,0.0,0.0,0.0,0.0,0.0,0.0,0.0,0.0,0.0,0.0,0.0,0.0,0.0,0.0,0.0,0.0,0.0,0.0,0.0,0.0,0.0,0.0,0.0,0.0,0.0,0.0,0.0,0.0,0.0,0.0,0.0,0.0,0.0,0.0,0.0,0.0,0.0,0.0,0.0,0.0,0.0,0.0,0.0,0.0,0.0,0.0,0.0,0.0,0.0,0.0,0.0,0.0,6.708,6.3631,0.0,0.0,0.0,0.0,0.0,0.0,0.0,0.0,0.0,0.0,0.0,0.0,0.0,0.0,0.0,0.0,0.0,0.0,0.0,0.0,0.0,0.0,0.0,0.0,4.5525,4.7643,4.8149,0.0,0.0,0.0,0.0,0.0,0.0,0.0,0.0,6.0371,6.3548,6.7963,6.9739,7.1907,7.4341,7.4935,7.2208,6.6781,6.3653,0.0,0.0,0.0,0.0,0.0,0.0,0.0,0.0,0.0,0.0,0.0,0.0,0.0,0.0,0.0,0.0,0.0,0.0,0.0,0.0,0.0,0.0,0.0,0.0,0.0,0.0,0.0,0.0,0.0,0.0,0.0,0.0,0.0,0.0,0.0,0.0,0.0,0.0,0.0,0.0,0.0,0.0,0.0,0.0,0.0,0.0,0.0,0.0,0.0,0.0,0.0,0.0,0.0,0.0,0.0,0.0,0.0,0.0,0.0,0.0,0.0,0.0,0.0,6.6456,6.8693,7.2323,7.4785,7.7023,7.8978,7.5185,7.2022,6.9288,6.49,0.0,0.0,0.0,0.0,0.0,0.0,0.0,0.0,0.0,0.0,0.0,0.0,0.0,0.0,0.0,0.0,0.0,0.0,0.0,0.0,0.0,4.7995,4.9931,5.2174,5.2486,5.3214,0.0,0.0,0.0,0.0,0.0,0.0,6.2961,6.4651,6.7733,7.229,7.8267,8.1754,8.2783,8.2885,8.2432,8.1226,7.224,6.7503,6.594,0.0,0.0,0.0,0.0,0.0,0.0,0.0,0.0,0.0,0.0,0.0,0.0,0.0,0.0,0.0,0.0,0.0,0.0,0.0,0.0,0.0,0.0,0.0,0.0,0.0,0.0,0.0,0.0,0.0,0.0,0.0,0.0,0.0,0.0,0.0,0.0,0.0,0.0,0.0,0.0,0.0,8.494,8.6668,0.0,0.0,0.0,0.0,0.0,0.0,0.0,0.0,0.0,0.0,0.0,0.0,0.0,6.5782,6.7963,7.0853,7.2264,7.2389,7.5272,7.7883,7.9986,8.2287,8.5035,8.7798,8.7012,0.0,7.414,6.9783,0.0,0.0,0.0,0.0,0.0,0.0,0.0,0.0,0.0,0.0,0.0,0.0,0.0,0.0,0.0,0.0,0.0,0.0,0.0,0.0,0.0,5.3246,5.541,5.8122,5.9184,5.9787,6.0239,0.0,0.0,0.0,0.0,6.5693,6.7741,7.0677,7.5671,8.2911,8.8609,9.1148,9.0706,9.1234,9.0351,8.8338,8.3036,7.7194,7.0863,6.5178,0.0,0.0,0.0,0.0,0.0,0.0,0.0,0.0,0.0,0.0,0.0,0.0,0.0,0.0,0.0,0.0,0.0,0.0,0.0,0.0,0.0,0.0,0.0,0.0,0.0,0.0,0.0,0.0,0.0,0.0,0.0,0.0,0.0,0.0,0.0,0.0,0.0,0.0,0.0,9.0803,9.4005,9.386,9.1194,8.7415,0.0,0.0,0.0,0.0,0.0,0.0,0.0,0.0,0.0,6.4802,6.8499,7.1845,7.4941,7.7306,7.9274,8.0629,8.2581,8.4831,8.735,8.9383,9.158,9.3649,9.3503,9.0707,8.5581,7.8563,7.3495,6.9858,0.0,0.0,0.0,0.0,5.7588,5.609,0.0,0.0,0.0,0.0,0.0,0.0,0.0,0.0,0.0,0.0,0.0,0.0,5.6672,5.8813,6.1368,6.442,6.5483,6.6122,6.6535,6.732,0.0,6.7731,6.8763,7.0531,7.2969,7.8478,8.5122,9.3087,9.7508,9.9148,9.8119,9.8554,9.7347,9.4706,9.2647,8.6279,7.662,7.0229,6.3787,5.7297,0.0,0.0,0.0,0.0,0.0,0.0,0.0,0.0,0.0,0.0,0.0,0.0,0.0,0.0,0.0,0.0,0.0,0.0,0.0,0.0,0.0,0.0,0.0,0.0,0.0,0.0,0.0,0.0,0.0,0.0,0.0,0.0,0.0,0.0,0.0,0.0,0.0,10.0441,10.1793,10.0526,9.8135,9.4084,0.0,0.0,0.0,0.0,0.0,0.0,6.6368,6.618,6.7899,7.1878,7.522,7.8446,8.1741,8.3837,8.6091,8.8463,8.973,9.1817,9.4721,9.6044,9.7575,9.9057,9.8495,9.7562,9.5916,8.6818,8.0996,7.7474,7.3482,7.0878,6.924,6.9034,6.7833,6.6564,0.0,0.0,0.0,0.0,0.0,0.0,0.0,0.0,0.0,0.0,0.0,5.8085,6.1902,6.4573,6.7451,7.0663,7.0424,7.1245,7.407,7.2375,7.2226,7.4064,7.429,7.5757,7.8677,8.8436,9.5574,9.9765,10.3289,10.4945,10.4933,10.4304,10.3579,10.2563,9.9386,9.2916,8.4004,7.6141,6.9934,6.4493,5.3783,0.0,0.0,0.0,0.0,0.0,0.0,0.0,0.0,0.0,0.0,0.0,0.0,0.0,0.0,0.0,0.0,0.0,0.0,0.0,0.0,0.0,0.0,0.0,0.0,0.0,0.0,0.0,0.0,0.0,0.0,0.0,0.0,0.0,0.0,0.0,0.0,0.0,0.0,10.7212,10.579,0.0,0.0,0.0,0.0,7.9596,7.8256,7.707,7.5446,7.6249,7.7771,8.0188,8.3054,8.5525,8.7571,9.1056,9.343,9.4836,9.7183,9.9624,10.1879,10.1948,10.3207,10.5126,10.3087,10.2282,10.1269,9.2849,8.7843,8.5391,8.2454,8.0491,7.9007,7.7508,7.6941,7.6655,0.0,0.0,0.0,0.0,0.0,0.0,0.0,0.0,5.3188,5.5507,6.0077,6.4576,6.8301,7.1516,7.4844,7.837,7.8681,7.9154,8.0513,7.8553,7.8697,8.1853,8.102,8.4349,9.296,9.9103,10.4054,10.8209,11.0131,11.0995,11.058,10.9976,10.8784,10.6974,10.4159,9.9695,9.3491,8.3228,7.4681,6.7385,5.8574,5.0787,0.0,0.0,0.0,0.0,0.0,0.0,0.0,0.0,0.0,0.0,0.0,0.0,0.0,0.0,0.0,0.0,0.0,0.0,0.0,0.0,0.0,0.0,0.0,0.0,0.0,0.0,0.0,0.0,0.0,0.0,0.0,0.0,0.0,0.0,0.0,0.0,0.0,11.357,11.2882,0.0,10.135,9.7977,9.454,9.0255,8.8155,8.671,8.5917,8.5626,8.6692,8.9457,9.0932,9.3205,9.6052,9.7555,9.9419,10.1278,10.2947,10.4578,10.6361,10.7346,10.8079,10.8743,10.7427,10.625,10.5015,10.0903,9.6363,9.1693,8.9537,8.7884,8.639,8.5989,8.5381,8.4613,0.0,0.0,0.0,0.0,0.0,0.0,0.0,0.0,5.7511,6.0616,6.5892,7.1013,7.4942,7.8322,8.1677,8.4757,8.5182,8.5657,8.6636,8.4481,8.4452,8.7592,8.8377,9.3438,10.3612,10.7398,11.129,11.5426,11.6377,11.6556,11.6105,11.5572,11.4104,11.1747,10.9303,10.556,10.0777,9.1359,8.1779,7.2142,6.3838,5.6071,4.8781,0.0,0.0,0.0,0.0,0.0,0.0,0.0,0.0,0.0,0.0,0.0,0.0,0.0,0.0,0.0,0.0,0.0,0.0,0.0,0.0,0.0,0.0,0.0,0.0,0.0,0.0,0.0,0.0,0.0,0.0,0.0,0.0,0.0,0.0,12.0257,12.1816,11.8889,11.8791,11.6161,10.8619,10.6294,10.373,10.0222,9.8131,9.6683,9.5993,9.488,9.5404,9.774,9.8328,9.9861,10.2467,10.3588,10.4963,10.7065,10.8281,10.9844,11.1419,11.2084,11.248,11.2401,11.1167,10.9757,10.8672,10.6477,10.326,9.9183,9.6295,9.4314,9.32,9.2977,9.2175,9.1219,0.0,0.0,0.0,0.0,0.0,0.0,0.0,5.7242,6.1695,6.6482,7.1891,7.6952,8.1476,8.4937,8.7779,8.9595,8.9506,9.027,9.2509,9.0114,8.9365,9.1322,9.6504,10.2615,10.9821,11.3408,11.7155,12.1284,12.1872,12.1902,12.1381,12.0851,11.9517,11.7336,11.4732,11.0701,10.5581,10.0366,9.1317,7.9475,6.9879,6.2217,5.5585,0.0,0.0,0.0,0.0,0.0,0.0,0.0,0.0,0.0,0.0,0.0,0.0,0.0,0.0,0.0,0.0,0.0,0.0,0.0,0.0,0.0,0.0,0.0,0.0,0.0,0.0,0.0,0.0,0.0,0.0,0.0,0.0,0.0,12.1766,12.4369,12.5534,12.3111,12.3721,12.1553,11.47,11.4085,11.2635,10.9026,10.7975,10.6828,10.5158,10.3878,10.3669,10.4919,10.4781,10.5252,10.6682,10.8794,11.0494,11.165,11.3562,11.5275,11.7128,11.63,11.609,11.6351,11.4064,11.2806,11.2141,10.939,10.8183,10.7602,10.2387,10.0007,9.9385,9.8014,9.7229,9.6597,0.0,0.0,0.0,0.0,0.0,0.0,0.0,5.9861,6.488,6.9685,7.5661,8.134,8.6415,8.9868,9.286,9.5498,9.5,9.5535,9.791,9.3424,9.3061,9.8319,10.6251,11.2799,11.7544,12.036,12.3081,12.5489,12.6174,12.6131,12.5194,12.4714,12.331,12.1117,11.8508,11.4776,11.0185,10.5456,9.8649,8.9961,7.8036,6.8822,6.1544,0.0,0.0,0.0,0.0,0.0,0.0,0.0,0.0,0.0,0.0,0.0,0.0,0.0,0.0,0.0,0.0,0.0,0.0,0.0,0.0,0.0,0.0,0.0,0.0,0.0,0.0,0.0,0.0,0.0,0.0,0.0,12.3536,12.7094,12.6382,12.9391,13.0843,12.8501,12.9015,12.7461,12.226,12.0434,11.8576,11.5479,11.3272,11.1808,11.1084,10.9932,11.0111,11.2193,11.1788,11.2534,11.4757,11.5247,11.5941,11.7117,11.8431,11.9185,11.9385,12.0025,11.9819,11.8782,11.7182,11.578,11.4193,11.2072,11.0454,10.906,10.5285,10.2947,10.1787,10.1115,9.9996,9.873,0.0,0.0,0.0,0.0,0.0,0.0,0.0,6.2441,6.7982,7.3735,7.9739,8.5619,9.1285,9.4679,9.7059,9.8708,9.9416,9.9788,10.0026,9.8632,10.0416,10.6534,11.3296,11.8786,12.2689,12.5186,12.72,12.8954,12.9493,12.9598,12.9146,12.8844,12.7535,12.5211,12.2983,11.9582,11.5115,11.0576,10.4901,9.7844,8.8139,7.8376,6.8967,6.2369,5.7318,5.3344,5.0832,5.1593,5.4205,5.7131,0.0,0.0,0.0,0.0,0.0,0.0,0.0,0.0,0.0,0.0,0.0,0.0,0.0,0.0,0.0,0.0,0.0,0.0,0.0,0.0,0.0,0.0,0.0,0.0,12.7732,13.1434,13.1936,13.3901,13.4534,13.2361,13.2642,13.137,12.7268,12.5654,12.3769,12.1422,11.8968,11.7399,11.7267,11.5893,11.5958,11.7862,11.7749,11.8469,12.0312,12.0499,12.0937,12.1808,12.2366,12.2515,12.2241,12.2828,12.2217,12.0344,11.9612,11.809,11.609,11.4072,11.247,11.1141,0.0,0.0,0.0,0.0,10.1362,10.0446,0.0,0.0,0.0,0.0,0.0,0.0,0.0,6.5227,7.0954,7.8168,8.3942,8.9717,9.5773,9.8756,10.0444,10.0518,10.3041,10.3649,10.1496,10.5144,10.9546,11.4544,11.8379,12.2185,12.5857,12.823,13.0115,13.1365,13.2137,13.2471,13.269,13.2712,13.1501,12.9307,12.7464,12.4184,11.9538,11.549,11.0128,10.3871,9.8687,8.9092,7.7166,7.0809,6.6579,6.3514,5.9891,5.9402,6.0799,6.2835,0.0,0.0,0.0,0.0,0.0,0.0,0.0,0.0,0.0,0.0,0.0,0.0,0.0,0.0,0.0,0.0,0.0,0.0,0.0,0.0,0.0,0.0,0.0,0.0,13.1862,13.5582,13.7429,13.7882,13.7097,13.4962,13.5019,13.4131,13.0601,12.9553,12.8358,12.6393,12.4346,12.3185,12.3117,12.1523,0.0,0.0,0.0,12.3476,12.4241,12.5029,12.5433,12.5753,12.5774,12.5608,12.5233,12.496,12.3881,12.1752,12.1166,11.9665,11.7471,11.5685,11.4171,11.2589,10.7872,10.5748,10.4876,10.2607,10.1775,10.1612,0.0,0.0,0.0,0.0,0.0,0.0,0.0,6.8436,7.4327,8.1406,8.7039,9.2724,9.8633,10.0924,10.2645,10.399,10.5775,10.7618,10.9483,11.286,11.5787,11.8342,12.2067,12.5375,12.8184,13.0077,13.1677,13.3007,13.38,13.4454,13.4839,13.4465,13.342,13.1582,12.982,12.6587,12.2113,11.8979,11.4421,10.8916,10.4667,9.5615,8.4057,7.8864,7.4948,7.1798,6.9466,6.9372,7.0747,7.274,7.511,7.7591,8.0453,8.1648,0.0,0.0,0.0,0.0,0.0,0.0,0.0,0.0,0.0,0.0,0.0,0.0,0.0,0.0,0.0,0.0,0.0,0.0,0.0,13.0557,13.5237,13.8351,13.9402,14.0267,13.9746,13.6607,13.6882,13.5918,13.2961,13.1939,13.0553,12.8737,12.756,12.6838,12.6541,12.5956,12.616,12.7289,12.7085,12.7516,12.8399,12.9045,12.9112,12.8736,12.8941,0.0,12.7357,12.6239,12.5369,12.4451,12.2162,12.0473,11.8763,11.7121,11.4174,11.0012,10.7557,10.5344,10.3563,10.2221,10.1523,10.1029,0.0,0.0,0.0,0.0,0.0,0.0,0.0,7.0647,7.6508,8.4056,8.8926,9.4024,9.9916,10.145,10.2267,10.2692,10.5621,10.9408,11.4159,11.7666,12.091,12.3788,12.6812,12.9271,13.1264,13.2572,13.3672,13.4727,13.5305,13.5991,13.6624,13.5842,13.5056,13.3758,13.1342,12.8635,12.5354,12.1987,11.8244,11.4211,11.0197,10.3791,9.5842,8.8405,8.3788,8.0809,7.8748,7.8413,7.9158,8.019,8.1982,8.4111,8.5891,8.6541,8.6931,0.0,0.0,0.0,0.0,0.0,0.0,0.0,0.0,0.0,0.0,0.0,0.0,0.0,0.0,11.3824,11.8761,0.0,12.9125,13.3055,13.6944,13.9605,14.0052,14.1473,14.1353,13.7995,13.8436,13.7827,13.491,13.4267,13.3318,13.2069,13.0753,12.9845,12.9768,12.9469,12.9469,12.9701,13.0512,13.1226,13.1261,13.1521,13.1521,13.0956,13.059,12.9612,12.7898,12.7062,12.5934,12.4559,12.3005,12.1195,11.9286,11.6605,11.3108,10.9423,10.7949,10.5677,10.3329,10.2793,10.2189,10.1649,0.0,0.0,0.0,0.0,0.0,0.0,0.0,7.2625,7.8474,8.6026,9.0161,9.4441,10.025,10.1064,10.1308,10.1858,10.5992,11.1381,11.7885,12.1681,12.5238,12.9023,13.0841,13.2426,13.3702,13.4389,13.5211,13.5768,13.6119,13.6751,13.7495,13.6506,13.5594,13.4693,13.2426,13.0168,12.8061,12.4593,12.1578,11.894,11.4788,11.132,10.7353,9.873,9.3225,8.9711,8.758,8.6774,8.6697,8.6998,8.8242,8.9823,9.1033,9.1618,9.2126,9.27,9.3898,0.0,0.0,0.0,0.0,0.0,0.0,0.0,0.0,10.5532,10.7252,11.1326,11.5086,11.906,12.3005,12.7905,13.2315,13.537,13.8486,14.0485,14.0606,14.225,14.2523,13.9714,13.9997,13.9415,13.7094,13.6459,13.5889,13.5078,13.3454,13.2237,13.2341,13.2375,13.2173,13.1431,13.3111,13.3812,13.3329,13.3556,13.3489,13.2602,13.1884,13.0517,12.8441,12.7935,12.6484,12.4397,12.2935,12.1208,11.8821,11.5027,11.214,10.9517,10.8263,10.6144,10.3829,10.3525,10.2799,10.1941,0.0,0.0,0.0,0.0,0.0,0.0,0.0,0.0,8.0801,8.7027,9.0703,9.4773,9.9768,9.9872,10.1572,10.6149,11.1036,11.664,12.2524,12.6072,12.9202,13.1649,13.2196,13.2805,13.3702,13.4367,13.4861,13.5583,13.5345,13.5673,13.667,13.5162,13.4253,13.3547,13.2412,13.0814,12.8663,12.6367,12.4306,12.2096,11.7794,11.5138,11.3419,10.9448,10.3834,9.7609,9.5405,9.4064,9.3617,9.4586,9.4764,9.5065,9.7426,9.7883,9.7732,9.8428,9.8359,9.8359,9.9501,10.1813,10.4272,10.5714,10.6784,10.8862,0.0,11.4858,11.5262,11.9404,12.2,12.4557,12.7916,13.1294,13.4915,13.8205,14.0019,14.1673,14.2718,14.3173,14.2918,14.2262,14.2236,14.1338,13.9173,13.7943,13.6851,13.611,13.4886,13.4174,13.4187,13.4187,13.4254,13.404,13.4376,13.4492,13.4557,13.5137,13.5137,13.449,13.3689,13.2325,13.0785,12.9145,12.7494,12.5811,12.1861,11.9012,11.6875,11.3315,11.133,11.0062,10.7874,10.6299,10.4854,10.3479,10.1955,10.0426,0.0,0.0,0.0,0.0,0.0,0.0,0.0,0.0,0.0,8.7483,9.0635,9.4008,9.8085,9.8919,10.0759,10.4414,11.1091,11.6972,12.1405,12.7447,13.1515,13.2833,13.336,13.3731,13.4135,13.4467,13.4835,13.5137,13.4854,13.5032,13.552,13.416,13.3285,13.2591,13.1141,12.9896,12.8775,12.6985,12.5877,12.5143,12.2084,12.0031,11.8337,11.5167,11.1088,10.645,10.2453,9.985,0.0,9.9056,9.9097,9.9324,10.1297,10.1726,10.1844,10.2721,10.3551,10.4589,10.7427,10.895,11.0045,11.196,11.3729,11.5935,11.9039,11.9887,12.0837,12.4173,12.6725,12.9,13.155,13.4523,13.7222,13.889,14.1068,14.2782,14.3236,14.3762,14.3956,14.3283,14.3039,14.2389,14.0612,13.9874,13.925,13.8579,13.6833,13.5784,13.5428,13.5383,13.507,13.4157,13.4595,13.4877,13.4744,13.4892,13.476,13.4462,13.3824,13.2736,13.1093,12.9682,12.7427,12.4195,12.1503,11.8597,11.5504,11.3462,11.1301,10.9003,10.7605,10.586,10.4173,10.3482,10.232,10.073,0.0,0.0,0.0,0.0,0.0,0.0,0.0,0.0,0.0,0.0,9.0134,9.2844,9.6342,9.7824,9.9714,10.2444,10.9886,11.6041,11.9947,12.7343,13.2123,13.3255,13.383,13.4171,13.4443,13.4356,13.4519,13.4674,13.4167,13.387,13.3836,13.2787,13.1954,13.1058,12.9721,12.9085,12.8839,12.7237,12.6941,12.723,12.5067,12.3567,12.2137,11.8745,11.562,11.2189,10.7023,10.36,10.1505,10.1456,10.1717,10.2159,10.3579,10.4342,10.5055,10.649,10.8161,11.0092,11.2851,11.4501,11.6016,11.7885,12.0441,12.2794,12.3813,12.4783,12.6205,12.8771,13.0827,13.2734,13.4415,13.6936,13.9167,13.949,14.1711,14.3287,14.3374,14.417,14.4168,14.3098,14.2874,14.2207,14.1105,14.0606,14.031,14.0176,13.8087,13.6705,13.604,13.6056,13.5356,13.4046,13.4854,13.4998,13.492,13.492,13.4721,13.476,13.3997,13.2734,13.1228,12.9646,12.6725,12.3027,12.1032,11.8237,11.462,11.316,11.0814,10.8229,10.7195,10.5676,10.3956,10.3514,10.2228,10.0714,0.0,0.0,0.0,0.0,0.0,0.0,0.0,0.0,0.0,0.0,0.0,0.0,0.0,9.6614,9.8907,10.2018,10.8382,11.4449,11.9587,12.626,13.0862,13.273,13.3029,13.3476,13.4126,13.3633,13.3601,13.4024,13.3162,13.2151,13.1436,13.069,12.9451,12.7932,12.8437,12.8665,12.8727,12.7142,12.7468,12.8556,12.6117,12.4799,12.3924,12.0634,11.6922,11.2821,10.8129,10.493,10.2797,10.2015,10.2175,10.297,10.4176,10.6041,10.7914,10.946,11.161,11.3403,11.334,11.6905,12.1059,12.3317,12.6103,12.8669,13.012,13.0556,13.1482,13.3957,13.484,13.5427,13.6283,13.8086,13.977,14.0483,14.1843,14.3116,14.4032,14.3574,14.2783,14.2048,14.1186,14.053,14.0078,13.9057,13.902,14.0152,13.794,13.6495,13.6388,13.6388,13.5754,13.4425,13.4854,13.537,13.5601,13.537,13.5555,13.6217,13.4097,13.3067,13.2492,12.8607,12.5561,12.3351,12.034,11.7278,11.4138,11.1617,10.9566,10.8143,10.6416,10.5757,10.5507,10.3681,10.1214,9.8921,0.0,0.0,0.0,0.0,0.0,0.0,0.0,0.0,0.0,0.0,0.0,0.0,0.0,0.0,0.0,0.0,10.8136,11.3382,11.6819,12.3626,12.7932,12.8804,13.0044,13.0737,13.0368,13.0362,13.0338,13.0055,12.9428,12.8824,12.8321,12.7423,12.6672,12.6024,12.5633,12.5863,12.6493,12.6738,12.7586,12.8292,12.8156,12.7318,12.5916,12.3333,11.8318,11.2509,0.0,10.5217,10.2228,10.1802,10.1892,10.2409,10.4367,10.5528,10.6801,11.0127,11.3163,11.6058,11.96,12.2567,12.5762,12.9373,13.1767,13.3313,13.4577,13.579,13.6647,13.6638,13.6997,13.7464,13.7587,13.8743,13.99,14.0612,14.2296,14.3688,14.4212,14.3556,14.2508,14.2124,14.0609,13.9689,13.9362,13.895,13.881,13.9423,13.8231,13.7175,13.7232,13.6779,13.626,13.5997,13.5361,13.5427,13.6326,13.5412,13.5338,13.6284,13.4097,13.2336,13.0947,12.7896,12.5197,12.2536,11.9756,11.6622,11.31,11.1481,10.958,10.7731,10.643,10.5333,10.4426,10.3384,10.1382,9.8632,0.0,0.0,0.0,0.0,0.0,0.0,0.0,0.0,0.0,0.0,0.0,0.0,0.0,0.0,0.0,0.0,0.0,11.0212,11.3309,11.8886,12.291,12.447,12.547,12.5792,12.5658,12.4997,12.4681,12.4582,12.4475,12.4356,12.4118,12.4034,12.3685,12.2741,12.2906,12.332,12.4252,12.5365,12.6611,12.7791,12.8004,12.6827,12.4809,12.1319,11.593,0.0,10.6032,10.2623,9.9839,10.0124,10.0794,10.1918,10.3434,10.5668,10.8418,11.1916,11.5727,11.9748,12.4854,12.7894,13.0587,13.5139,13.6946,13.7836,13.878,13.9686,13.995,13.8839,13.8444,13.8172,13.7705,13.8021,13.8993,14.0276,14.1892,14.3073,14.4128,14.3063,14.1956,14.1266,13.9822,13.851,13.8183,13.8245,13.8637,13.9757,13.8837,13.8308,13.8439,13.7781,13.7063,13.6476,13.5829,13.5763,13.6476,13.5366,13.4763,13.4973,13.3683,13.1539,12.8962,12.6982,12.4453,12.1369,11.9079,11.613,11.2671,11.1131,10.9324,10.7336,10.6278,10.5181,10.451,10.3232,10.1425,9.9098,0.0,0.0,0.0,0.0,0.0,0.0,0.0,0.0,0.0,0.0,0.0,0.0,0.0,0.0,0.0,0.0,0.0,0.0,10.9067,11.2638,11.6085,11.9862,11.9063,11.9155,12.0155,11.813,11.7317,11.8049,11.8688,11.8864,11.89,12.0169,11.9974,11.8386,11.9722,12.0698,12.1617,12.2789,12.4578,12.651,12.5424,12.342,12.0754,11.5068,10.9905,10.4852,10.0392,9.7682,9.6422,9.7349,9.9481,10.1957,10.1988,10.6669,11.247,11.4765,11.9266,12.451,12.9254,13.2713,13.5986,14.016,14.165,14.2056,14.2716,14.2185,14.1435,14.0588,13.9285,13.7842,13.67,13.6452,13.7236,13.9537,14.0487,14.1747,14.3507,14.257,14.1066,13.9604,13.8693,13.7777,13.6597,13.7005,13.8249,14.0873,13.9689,13.9363,13.9888,13.9163,13.792,13.6353,13.6027,13.5896,13.6158,13.5371,13.3852,13.2307,13.2488,13.0631,12.6904,12.5736,12.3371,12.0066,11.8052,11.5526,11.2655,11.0382,10.8617,10.704,10.6002,10.5335,10.5212,10.3263,10.1633,9.9709,0.0,0.0,0.0,0.0,0.0,0.0,0.0,0.0,0.0,0.0,0.0,0.0,0.0,0.0,0.0,0.0,0.0,0.0,10.3928,10.7666,11.0328,11.1477,11.3303,11.4162,11.3839,11.388,11.3746,11.3338,11.3397,11.3277,11.2853,11.3317,11.3121,11.2474,11.3105,11.4049,11.518,11.6569,11.7611,11.823,11.8641,11.7579,11.5134,11.2669,10.8251,10.3192,10.1416,9.8745,9.6352,9.8273,10.1505,10.4945,10.6529,11.0069,11.4418,11.906,12.3962,12.9076,13.4538,13.8265,14.1186,14.3971,14.5023,14.4947,14.4474,14.3596,14.2542,14.0132,13.8568,13.7005,13.5571,13.6679,13.8232,14.005,14.1424,14.2955,14.4304,14.3148,14.1691,14.0504,13.9908,13.92,13.8271,13.8224,13.9213,14.1165,13.9555,13.9101,14.0212,13.8967,13.8314,13.7786,13.6871,13.6351,13.6158,13.5371,13.3728,13.1752,13.1399,12.9638,12.7094,12.4528,12.1909,11.9414,11.5897,11.3176,11.1138,10.916,10.7763,10.6978,10.6154,10.5543,10.5005,10.3057,10.1207,9.9107,0.0,0.0,0.0,0.0,0.0,0.0,0.0,0.0,0.0,0.0,0.0,0.0,0.0,0.0,0.0,0.0,0.0,0.0,0.0,10.254,10.4291,10.4685,10.5954,10.6548,10.6245,10.5582,10.4987,10.4614,10.506,10.4976,10.4787,10.5668,10.587,10.5688,10.6067,10.7196,10.8748,11.0224,11.1304,0.0,0.0,11.1182,10.8951,10.6878,10.3515,9.9937,9.8504,9.8348,9.9246,10.1432,10.4639,10.8084,11.071,11.4349,11.8715,12.4054,12.8989,13.3929,13.9072,14.2351,14.5027,14.7124,14.7565,14.716,14.537,14.4379,14.2542,13.8706,13.7006,13.5563,13.3852,13.5567,13.7789,13.9271,14.1375,14.3063,14.4134,14.2812,14.1672,14.1126,14.078,14.036,13.9826,14.0068,14.0612,14.1414,14.0073,13.9882,14.123,13.9466,13.8224,13.8159,13.6645,13.5547,13.4913,13.4074,13.2766,13.1127,12.982,12.8187,12.6176,12.306,12.058,11.7997,11.4994,11.2398,11.0367,10.8439,10.7273,10.6187,10.5491,10.4695,10.3796,10.1983,10.0129,9.7838,0.0,0.0,0.0,0.0,0.0,0.0,0.0,0.0,0.0,0.0,0.0,0.0,0.0,0.0,0.0,0.0,0.0,0.0,0.0,0.0,9.8546,9.8905,9.8576,9.844,9.8578,9.6363,9.5158,9.5071,9.5915,9.6194,9.6207,9.8089,9.868,9.837,9.9064,10.0337,10.2243,10.3309,10.4809,10.6523,10.5799,10.4436,10.2598,0.0,9.751,9.5893,9.4266,9.7411,10.2679,10.566,10.8589,11.1613,11.5041,11.9543,12.4407,12.9193,13.3895,13.8644,14.3197,14.589,14.8002,14.9636,14.9715,14.875,14.6166,14.439,14.2038,13.7194,13.5272,13.3756,13.257,13.4369,13.6615,13.8613,14.0633,14.2632,14.336,14.2498,14.183,14.1542,14.183,14.1772,14.1534,14.2055,14.2328,14.1739,14.1174,14.1369,14.2296,13.9888,13.8131,13.7333,13.543,13.4084,13.3076,13.2319,13.1286,13.0431,12.8415,12.6539,12.4625,12.1816,11.9042,11.6543,11.4508,11.2155,10.9827,10.802,10.6359,10.5088,10.4294,10.3563,10.2355,10.0612,9.8743,9.6321,0.0,0.0,0.0,0.0,0.0,0.0,0.0,0.0,0.0,0.0,9.2824,9.3332,0.0,0.0,0.0,0.0,0.0,0.0,0.0,0.0,0.0,9.3638,9.4589,9.461,9.3509,9.3033,9.2428,9.1874,9.1587,9.1377,9.1263,9.2152,9.2161,9.1446,9.2639,9.3478,9.4034,9.519,9.5957,9.6339,9.6473,9.6169,9.5284,9.4078,9.3484,0.0,9.4137,9.6657,10.071,10.7788,11.3058,11.7128,12.0567,12.5151,12.9942,13.4944,13.8956,14.2658,14.6943,14.9468,15.1151,15.1568,15.1616,15.055,14.6662,14.3811,14.0939,13.6531,13.4338,13.3186,13.2922,13.5018,13.753,14.0384,14.2116,14.3324,14.4081,14.4106,14.3625,14.2537,14.3727,14.4442,14.3927,14.4237,14.4244,14.3462,14.2779,14.2011,14.0819,13.8906,13.7011,13.4597,13.3023,13.1862,13.1055,13.0826,12.9994,12.8511,12.7217,12.5867,12.4964,12.1337,11.874,11.6973,11.3161,11.0242,10.8074,10.5871,10.4288,10.314,10.3018,10.2421,10.1276,9.9522,9.769,9.5402,0.0,0.0,0.0,0.0,0.0,0.0,0.0,8.8725,9.0587,9.3631,9.5065,9.5555,9.4857,9.4575,0.0,0.0,0.0,0.0,0.0,0.0,0.0,9.0704,9.1311,9.0903,8.9399,8.9,8.8298,8.7121,0.0,8.6531,8.6177,8.6884,8.6736,8.6007,8.6771,8.7275,8.7594,8.8562,8.9243,8.973,9.0163,9.0233,8.9993,8.9982,9.0601,0.0,9.4233,9.7739,10.2237,10.801,11.4933,12.1627,12.4739,12.9057,13.396,13.8019,14.1834,14.5735,14.9943,15.2241,15.3721,15.4015,15.3142,15.0895,14.6712,14.3244,13.9538,13.5574,13.3445,13.2136,13.2092,13.4523,13.707,13.8438,14.0082,14.1775,14.3258,14.3221,14.3309,14.4129,14.5265,14.5995,14.5816,14.6035,14.5792,14.4628,14.3803,14.257,14.0197,13.7161,13.4456,13.2578,13.0707,12.9758,12.9852,12.894,12.8254,12.7608,12.575,12.4406,12.3504,11.9768,11.7184,11.5422,11.1742,10.8714,10.6258,10.4184,10.2243,10.0552,10.025,9.9463,9.8372,9.7152,9.5303,9.2995,0.0,0.0,0.0,0.0,0.0,0.0,0.0,8.9831,9.2146,9.5855,9.7659,9.7911,9.6252,9.5344,9.4727,0.0,0.0,0.0,0.0,0.0,0.0,0.0,0.0,0.0,8.6317,0.0,0.0,8.3355,8.3313,0.0,0.0,0.0,0.0,0.0,8.207,8.2235,8.2486,8.2993,8.3654,0.0,0.0,8.5216,8.5428,0.0,0.0,0.0,0.0,9.7722,10.288,10.7496,11.4932,12.2718,12.6656,13.1902,13.7094,14.0176,14.4149,14.8546,15.2193,15.4411,15.5895,15.6291,15.4212,15.1124,14.6879,14.271,13.8701,13.5222,13.3128,13.211,13.2017,13.4147,13.6011,13.6353,13.8159,14.0148,14.2308,14.2336,14.312,14.5573,14.6527,14.7138,14.7477,14.7734,14.7107,14.5405,14.3639,14.1665,13.9441,13.5072,13.2244,13.1403,12.9056,12.8132,12.8417,12.7261,12.6648,12.6512,12.4218,12.2751,12.1662,11.8257,11.5368,11.2933,10.983,10.6876,10.3759,10.1755,9.9637,9.7648,9.7093,9.6113,9.5014,9.4142,9.252,9.0437,0.0,0.0,0.0,0.0,0.0,0.0,0.0,9.1296,9.4355,9.9777,10.0181,9.9569,9.8231,9.6771,9.5034,0.0,0.0,0.0,0.0,0.0,0.0,0.0,0.0,0.0,0.0,0.0,0.0,8.2785,8.2293,0.0,0.0,0.0,0.0,0.0,0.0,7.8988,7.8702,7.8688,0.0,0.0,0.0,0.0,0.0,0.0,0.0,0.0,0.0,9.3744,9.8274,10.6738,11.199,11.6537,12.4851,13.2879,13.9632,14.2422,14.6804,15.161,15.4674,15.6756,15.7872,15.7279,15.5039,15.1612,14.7081,14.3291,13.9775,13.6142,13.4618,13.4013,13.4403,13.4462,13.5196,13.7659,13.84,13.9917,14.3068,14.3979,14.495,14.639,14.7773,14.8308,14.8471,14.8887,14.8255,14.6182,14.1453,13.825,13.7417,13.3611,13.1319,13.1173,12.8491,12.7015,12.6102,12.6193,12.5816,12.4598,12.3001,12.1726,12.0587,11.7373,11.4053,11.0572,10.7428,10.4187,10.0612,9.7832,9.5833,9.4133,9.3757,9.2903,9.1944,9.1384,9.0124,8.8452,0.0,0.0,0.0,0.0,0.0,0.0,8.9622,9.143,9.428,10.0844,10.133,10.0353,9.8442,9.6923,9.5235,9.3142,0.0,0.0,0.0,0.0,0.0,0.0,0.0,0.0,0.0,0.0,8.3014,8.2273,8.1555,0.0,0.0,0.0,0.0,0.0,0.0,7.6693,7.5126,7.5402,0.0,0.0,0.0,0.0,0.0,0.0,0.0,0.0,0.0,0.0,9.733,10.2711,10.8726,11.4689,11.9924,12.8129,13.654,14.1514,14.655,15.1595,15.6119,15.828,15.93,15.9321,15.6292,15.2126,14.7946,14.3721,14.0036,13.6918,13.5263,13.4443,13.4626,13.4044,13.4061,13.5894,13.5245,13.5604,13.9148,13.9771,14.1232,14.4571,14.6058,14.725,14.8297,14.8217,14.7107,14.4588,14.0942,13.8191,13.6596,13.2455,13.0102,13.0648,12.7719,12.5775,12.5451,12.5096,12.4409,12.3132,12.1608,12.0024,11.8629,11.4805,11.1441,10.7982,10.4365,10.0663,9.6697,9.4825,9.279,9.0985,9.0352,9.0003,8.9622,8.8747,8.7789,8.6824,0.0,0.0,0.0,0.0,0.0,8.3276,8.9814,9.1638,9.449,10.0611,10.1158,10.0096,9.812,9.6173,9.4273,9.2674,9.1644,0.0,0.0,0.0,0.0,0.0,0.0,0.0,0.0,0.0,8.2387,8.1656,8.1094,8.0844,0.0,0.0,7.8239,7.6537,0.0,0.0,0.0,0.0,0.0,0.0,0.0,0.0,0.0,0.0,0.0,0.0,0.0,0.0,0.0,0.0,0.0,11.2509,11.636,12.3546,13.217,13.9591,14.6218,15.206,15.677,15.9424,16.0599,16.0618,15.7327,15.2879,14.8799,14.442,14.0418,13.7336,13.5908,13.4736,13.4181,13.3578,13.3334,13.4187,13.3161,13.3614,13.7353,13.785,13.9299,14.3347,14.4371,14.5423,14.7558,14.6935,14.5484,14.2825,14.0105,13.7827,13.5707,13.1843,12.9828,13.046,12.7406,12.5462,12.5062,12.4196,12.3133,12.1922,12.0025,11.8131,11.5926,11.2061,10.8285,10.4119,10.0703,9.665,9.2823,9.1186,8.9659,8.8129,8.7147,8.707,8.6977,8.6149,8.547,8.4833,0.0,0.0,0.0,0.0,0.0,0.0,8.9197,9.2411,9.5493,9.9368,9.9703,9.9022,9.7718,9.4343,9.1797,9.0991,8.9455,0.0,0.0,0.0,0.0,0.0,0.0,0.0,0.0,0.0,8.1516,8.0818,8.0868,8.0894,8.086,7.9072,7.7568,7.6244,0.0,0.0,0.0,0.0,0.0,0.0,0.0,0.0,0.0,0.0,0.0,0.0,0.0,0.0,0.0,0.0,0.0,0.0,0.0,12.0734,12.7128,13.7192,14.5869,15.3208,15.6939,15.964,16.1481,16.1119,15.7938,15.348,14.9254,14.5534,14.163,13.7187,13.6312,13.5692,13.3465,13.3037,13.2952,13.2896,13.3162,13.5005,13.932,13.9581,14.0693,14.4232,14.3411,14.3321,14.5396,14.4698,14.3451,14.1516,13.8781,13.6342,13.4246,13.1592,13.046,13.1149,12.7755,12.5616,12.4892,12.4086,12.2499,12.04,11.8379,11.5863,11.2245,10.909,10.435,9.8183,9.5839,9.2658,8.8877,8.6756,8.5953,8.5688,8.4064,8.3706,8.4314,8.3677,8.296,8.2471,0.0,0.0,0.0,0.0,0.0,0.0,0.0,8.8974,9.1468,9.4912,9.5007,9.4578,9.424,9.1326,8.9148,8.8444,8.7545,0.0,0.0,0.0,0.0,0.0,0.0,0.0,0.0,0.0,8.0614,8.1593,8.039,8.0117,8.0546,7.8186,7.5797,7.347,7.1552,6.9271,0.0,0.0,0.0,0.0,0.0,0.0,6.7588,0.0,0.0,0.0,0.0,0.0,0.0,0.0,0.0,0.0,0.0,0.0,0.0,13.2775,14.1365,14.9075,15.2815,15.6355,15.8415,15.7357,15.4959,15.1671,14.7767,14.4642,14.1453,13.712,13.6069,13.5094,13.3285,13.2211,13.2463,13.4789,13.3405,13.3496,13.7404,13.8417,13.9455,14.153,14.3921,14.5265,14.4788,14.3772,14.2438,14.0816,13.8411,13.6421,13.4309,13.2307,13.0312,12.9139,12.6841,12.4757,12.3205,12.196,12.0195,11.8242,11.5539,11.2359,10.8962,10.5055,10.0056,9.4072,9.1608,8.7887,8.3704,8.276,8.175,8.0673,8.0579,8.0851,8.1464,8.1123,8.1076,8.1197,0.0,0.0,0.0,0.0,0.0,0.0,0.0,8.6723,8.8714,9.1072,9.0961,9.0826,9.1479,8.8646,8.6762,8.6839,8.5786,0.0,0.0,0.0,0.0,0.0,0.0,0.0,0.0,7.882,7.9848,8.1737,8.0339,8.0028,8.0687,7.8191,7.526,7.1866,6.9801,6.7127,0.0,0.0,0.0,0.0,0.0,0.0,6.4653,0.0,0.0,0.0,0.0,0.0,0.0,0.0,0.0,0.0,0.0,0.0,0.0,0.0,13.654,14.3495,14.9535,15.3553,15.583,15.5363,15.3149,15.0381,14.6746,14.3968,14.1048,13.6363,13.5228,13.431,13.2409,13.153,13.1519,13.3356,13.2362,13.2308,13.558,13.7095,13.8404,14.0053,14.3036,14.438,14.2804,14.211,14.1164,13.9713,13.7596,13.5268,13.329,13.1205,12.9179,12.6596,12.5515,12.3878,12.1623,11.9994,11.7924,11.5677,11.2413,10.8644,10.4373,10.0563,9.5517,8.9895,8.7173,8.4037,0.0,7.9271,7.8517,7.793,7.7894,7.8249,7.8978,7.8961,7.9388,7.9483,0.0,0.0,0.0,0.0,0.0,0.0,0.0,8.5435,8.6968,8.7695,8.7478,8.7796,8.9195,8.6157,8.4582,8.5892,0.0,0.0,0.0,0.0,0.0,0.0,0.0,0.0,0.0,7.787,7.9077,8.1375,8.0578,8.0459,8.1041,7.8814,7.5518,7.1264,6.8187,6.4953,0.0,0.0,0.0,0.0,5.7925,5.9304,0.0,0.0,0.0,0.0,0.0,0.0,0.0,0.0,0.0,0.0,0.0,0.0,0.0,0.0,0.0,0.0,0.0,15.0674,15.2882,15.4019,15.2333,14.9304,14.5736,14.3246,0.0,13.4937,13.3997,13.3268,13.1096,13.0735,13.0372,12.9736,13.0288,13.15,13.393,13.5745,13.7662,13.9938,14.0979,14.1383,13.9948,14.0156,13.9984,13.8539,13.5902,13.355,13.1463,12.9446,12.6971,12.3619,12.3916,12.2865,12.0212,11.8391,11.5764,11.2487,10.8782,10.4164,9.9047,9.5544,9.0685,8.5263,8.2882,8.0557,7.8252,7.604,7.5979,7.6812,7.5582,7.5861,7.6824,7.7422,7.751,7.7276,0.0,0.0,0.0,0.0,0.0,0.0,0.0,0.0,0.0,0.0,8.4802,8.4712,8.4456,8.3111,8.2428,0.0,0.0,0.0,0.0,0.0,0.0,0.0,0.0,0.0,0.0,7.6594,7.8064,8.0382,8.0099,8.023,8.0803,7.8129,7.4249,6.9397,6.7542,6.3525,0.0,0.0,0.0,0.0,5.641,5.804,0.0,0.0,0.0,0.0,7.4576,8.001,0.0,0.0,0.0,0.0,0.0,0.0,0.0,0.0,12.863,13.2713,13.8416,0.0,14.6784,14.7173,14.67,14.5434,0.0,14.1765,13.9901,13.547,13.393,13.2938,13.2277,13.0539,12.9922,13.2298,13.1657,13.1971,13.4674,13.7328,14.0233,14.3975,14.3268,14.2285,14.1383,14.0115,13.8615,13.7178,13.4991,13.2866,13.0776,12.8486,12.5897,12.3045,12.0882,11.8942,11.7153,11.4725,11.2159,10.899,10.4563,9.9639,9.4358,9.0751,8.5937,8.0294,7.8517,7.6333,7.3994,7.3041,7.2534,7.2384,7.2914,7.36,7.4288,7.4606,7.4976,7.4901,0.0,0.0,0.0,0.0,0.0,0.0,0.0,0.0,0.0,0.0,0.0,0.0,0.0,0.0,0.0,0.0,0.0,0.0,0.0,0.0,0.0,0.0,0.0,0.0,7.5449,7.5779,7.7279,7.9968,7.9413,7.9527,8.0389,7.753,7.3418,6.8218,6.393,0.0,0.0,0.0,0.0,0.0,5.5448,0.0,0.0,0.0,0.0,0.0,7.311,7.8579,0.0,9.1065,9.7126,10.2899,0.0,0.0,0.0,0.0,12.5744,12.9238,13.3354,13.8496,14.2962,14.4044,14.4065,14.3429,14.1918,14.041,13.8438,13.4595,13.2938,13.2123,13.1445,12.9716,12.9154,13.1055,13.085,13.1945,13.5918,13.8634,14.1366,14.4026,14.2989,14.1759,14.1352,13.9424,13.7621,13.6253,13.4263,13.1991,12.9384,12.7157,12.4633,12.1759,11.834,11.608,11.5054,11.1909,10.8433,10.4641,9.9834,9.4806,8.9509,8.6261,8.2006,7.7516,7.5858,7.401,7.1924,7.1031,7.0509,7.0496,7.1143,7.1553,7.2246,7.2734,7.2407,7.1569,0.0,0.0,0.0,0.0,0.0,0.0,0.0,0.0,0.0,0.0,0.0,0.0,0.0,0.0,0.0,0.0,0.0,0.0,0.0,0.0,0.0,0.0,0.0,7.5312,7.5623,7.5391,7.6668,7.9644,7.8999,7.9088,7.9916,7.73,7.3069,6.7353,6.0174,0.0,0.0,0.0,0.0,5.5063,5.4834,0.0,0.0,0.0,0.0,0.0,0.0,0.0,0.0,8.9902,9.625,10.2327,10.6676,0.0,0.0,0.0,0.0,0.0,13.0415,13.5348,13.9943,14.215,14.2533,14.2053,14.0947,13.9257,13.7038,13.3216,13.2135,13.1445,13.062,12.954,12.8828,12.9431,13.0228,13.2523,13.7335,13.942,14.1141,14.2576,14.1411,14.0541,14.0398,13.8542,13.6747,13.549,13.3468,13.1044,12.7724,12.5718,12.3198,12.0053,11.6331,11.3806,11.2834,10.9124,10.4999,10.0419,9.5459,9.0622,8.5473,8.2272,7.9045,7.5779,7.459,7.2896,7.1241,7.0129,6.9716,6.9847,6.9436,6.9805,7.0134,7.0422,6.9517,6.7965,0.0,0.0,0.0,0.0,0.0,0.0,0.0,0.0,0.0,0.0,0.0,0.0,0.0,0.0,0.0,0.0,0.0,0.0,0.0,0.0,0.0,7.9286,7.6099,7.5072,7.6436,7.5644,7.6382,7.8882,7.9747,8.0125,7.9874,7.8511,7.3808,6.615,6.1015,5.7182,5.4474,0.0,5.3184,5.3923,5.4362,0.0,0.0,0.0,0.0,0.0,0.0,0.0,0.0,8.8665,9.4674,10.0465,10.4501,0.0,0.0,0.0,0.0,0.0,13.0219,13.3754,13.6217,13.7646,13.9091,13.9767,13.8667,13.7787,13.6572,13.381,13.2923,13.2629,13.3424,13.2246,13.1428,13.3002,13.3646,13.5281,13.9084,13.9297,13.974,14.1698,14.0171,13.8887,13.8383,13.7026,13.5361,13.345,13.2463,13.0414,12.7051,12.4768,12.2254,11.9335,11.5243,11.1774,10.9105,10.5413,10.1976,9.8563,9.2883,8.8459,8.5056,8.0858,7.7497,7.4967,7.3873,7.2377,7.1041,7.0299,6.9507,6.8785,6.7987,6.7616,6.6992,6.6524,6.5208,6.3253,0.0,0.0,0.0,0.0,0.0,0.0,0.0,0.0,0.0,0.0,0.0,0.0,0.0,0.0,0.0,0.0,0.0,0.0,0.0,0.0,8.0036,8.1376,7.8202,7.6459,7.6687,7.6979,7.8296,8.0538,8.1798,8.2406,8.2354,7.6625,7.0729,6.4644,5.9538,5.6186,5.4184,5.3197,5.3253,5.4058,0.0,0.0,0.0,0.0,0.0,0.0,0.0,0.0,0.0,0.0,9.3616,9.9339,10.2699,0.0,0.0,0.0,0.0,0.0,12.6013,12.975,13.2805,13.4523,13.7908,14.0428,13.9691,13.8554,13.677,13.477,13.3483,13.31,13.3838,13.347,13.3762,13.6213,13.7372,13.8418,14.0162,14.0718,14.1027,14.1335,14.0295,13.9133,13.8456,13.6793,13.5131,13.3469,13.2361,13.0129,12.6426,12.4366,12.1472,11.7896,11.3832,11.0091,10.6327,10.2309,9.888,9.5799,9.0885,8.6546,8.293,7.9792,7.7442,7.5275,7.4376,7.2919,7.1329,7.034,6.9248,6.7595,6.6613,6.5311,6.4231,6.1836,5.9667,5.7706,0.0,0.0,0.0,0.0,0.0,0.0,0.0,0.0,0.0,0.0,0.0,0.0,0.0,0.0,0.0,0.0,0.0,0.0,0.0,0.0,8.0494,8.2543,8.0162,7.8759,7.8729,7.9525,8.1021,8.3192,8.4708,8.5082,8.4314,7.5568,6.902,6.442,5.8991,5.5696,5.4295,5.3364,5.3445,5.4329,0.0,0.0,0.0,0.0,0.0,0.0,0.0,0.0,0.0,0.0,0.0,0.0,0.0,0.0,0.0,11.3425,11.6454,12.0093,12.2734,12.6463,13.0078,13.282,13.6738,14.0219,14.0927,13.9322,13.726,13.5897,13.4786,13.4185,13.4265,13.4853,13.615,13.8837,14.046,14.1512,14.159,14.2138,14.2316,14.0973,13.9995,13.9318,13.8456,13.6793,13.5193,13.3654,13.2196,12.9844,12.5982,12.3983,12.0745,11.6781,11.2825,10.8861,10.4519,10.0345,9.6865,9.3659,8.9248,8.5268,8.1856,7.9554,7.7623,7.6192,7.5472,7.4065,7.2194,7.067,6.8945,6.6987,6.4596,6.2406,6.0054,5.6639,5.4049,5.2052,0.0,0.0,0.0,0.0,0.0,0.0,0.0,0.0,0.0,0.0,0.0,0.0,0.0,0.0,0.0,0.0,0.0,0.0,0.0,0.0,8.0027,8.102,8.0745,8.184,8.4635,8.3837,8.4481,8.6508,8.8586,8.7781,8.4167,7.785,7.2211,6.6955,6.1686,5.7584,5.4517,5.3583,5.353,5.4117,5.4794,0.0,0.0,0.0,0.0,0.0,0.0,0.0,0.0,0.0,0.0,0.0,0.0,0.0,10.9577,11.3125,11.548,11.8329,12.3464,12.6031,12.8362,13.2625,13.5023,13.7038,14.0052,13.9082,13.7526,13.7186,13.7244,13.7087,13.6192,13.7903,13.9704,14.0665,14.1842,14.2885,14.343,14.2756,14.1651,14.0769,13.9791,13.8456,13.7101,13.6301,13.4947,13.2977,13.1663,12.9394,12.6043,12.3091,11.9849,11.6781,11.2328,10.8409,10.4519,10.0377,9.6818,9.3647,8.8353,8.5282,8.3601,8.0211,7.8143,7.7431,7.682,7.5604,7.418,7.1743,6.957,6.7033,6.2398,5.7682,5.3407,5.0515,4.8742,4.7297,0.0,0.0,0.0,0.0,0.0,0.0,0.0,0.0,0.0,0.0,0.0,0.0,0.0,0.0,0.0,0.0,0.0,0.0,0.0,8.1081,8.1506,8.3937,8.3914,8.5116,8.773,8.8132,8.9758,9.2837,9.225,8.9603,8.4946,7.8087,7.182,6.6195,6.133,5.812,5.6309,5.5384,5.5624,5.6633,5.6704,5.7658,0.0,0.0,0.0,0.0,0.0,0.0,0.0,0.0,8.977,9.521,9.8835,10.3413,10.8021,11.0643,11.3041,11.5351,11.8703,12.2136,12.5759,12.9678,13.2441,13.537,13.9199,13.9624,13.942,13.9422,13.8635,13.7714,13.7328,13.8617,14.037,14.197,14.332,14.3996,14.381,14.3193,14.1965,14.0911,14.011,13.9133,13.8148,13.667,13.5316,13.4085,13.1865,12.9351,12.6141,12.3046,11.9397,11.5652,11.1931,10.801,10.3603,9.9742,9.618,9.3235,8.8634,8.505,8.2708,8.0728,7.9276,7.8143,7.7464,7.6066,7.4524,7.1704,6.8478,6.4974,5.7878,5.2647,4.8669,4.6441,4.4141,4.2018,0.0,0.0,0.0,0.0,0.0,0.0,0.0,0.0,0.0,0.0,0.0,0.0,0.0,0.0,0.0,0.0,0.0,0.0,8.2628,8.1633,8.2104,8.4615,8.5208,8.7037,9.0415,9.2055,9.3984,9.6226,9.4452,9.0835,8.5598,7.8737,7.2721,6.746,6.2807,6.0263,5.9419,5.7981,5.7811,5.8619,5.8357,5.8923,0.0,0.0,0.0,0.0,0.0,0.0,0.0,0.0,8.8977,9.3959,9.7916,10.2487,10.6747,10.8965,11.1276,11.3581,11.5285,11.8584,12.2437,12.6173,12.9521,13.3163,13.7518,13.949,14.0547,14.1626,14.006,13.8365,13.7286,13.8725,14.0563,14.154,14.3009,14.4056,14.3136,14.2767,14.1968,14.0247,13.9756,13.9025,13.8105,13.6213,13.4915,13.4056,13.1652,12.8897,12.575,12.2594,11.9288,11.5485,11.1817,10.7607,10.3183,9.9494,9.5926,9.2304,8.8754,8.5575,8.2708,8.1197,7.9838,7.8892,7.7974,7.6574,7.4698,7.1871,6.7363,6.132,5.4099,4.8785,4.4774,4.2114,3.939,3.6768,0.0,0.0,0.0,0.0,0.0,0.0,0.0,0.0,0.0,0.0,0.0,0.0,0.0,0.0,0.0,0.0,0.0,0.0,8.3458,8.1903,8.139,8.2178,8.3731,8.7199,9.2867,9.5615,9.6516,9.5533,9.4908,9.1698,8.5903,8.0168,7.5494,7.1765,6.7074,6.4577,6.3768,6.119,6.0072,5.9849,5.9251,6.0267,6.2266,0.0,0.0,0.0,0.0,0.0,0.0,0.0,8.8029,9.2242,9.8318,10.2296,10.5354,10.8566,11.0878,11.2784,11.4486,11.6392,11.863,12.2489,12.6377,13.0243,13.5176,13.8465,14.1085,14.2946,14.1388,13.8926,13.6336,13.8607,14.038,13.9036,14.11,14.2383,14.1175,14.1419,14.093,13.8179,13.8546,13.8122,13.6061,13.4725,13.3329,13.1993,13.0194,12.78,12.5087,12.2189,11.9237,11.6639,11.1816,10.7369,10.3781,10.0135,9.5824,9.0944,8.9321,8.6826,8.3884,8.1664,8.0071,7.9397,7.8634,7.7217,7.4867,7.237,6.602,5.7074,5.1463,4.6527,4.1805,3.7217,3.4139,3.1719,0.0,0.0,0.0,0.0,0.0,0.0,0.0,0.0,0.0,0.0,0.0,0.0,0.0,0.0,0.0,0.0,0.0,0.0,8.3391,8.2429,8.2242,8.3046,8.5214,8.7243,8.8896,9.2224,9.5252,9.7839,9.5235,9.0798,8.4627,8.0087,7.5551,7.137,6.9645,6.7747,6.561,6.3766,6.3394,6.3801,6.3693,6.4097,0.0,0.0,0.0,0.0,0.0,0.0,0.0,0.0,0.0,0.0,9.6517,10.0851,10.4641,10.6113,10.8553,11.0776,11.0927,11.4377,11.8564,12.1962,12.7207,13.2623,13.6927,13.8942,14.0232,14.0865,13.9544,13.769,13.5639,13.7511,13.9081,13.8341,14.0237,14.11,14.0315,13.8972,13.8245,13.7943,13.6789,13.6243,13.6668,13.4429,13.3038,13.2661,12.9781,12.7269,12.4612,12.1497,11.8136,11.4739,11.1129,10.7377,10.3646,9.9922,9.6501,9.362,8.999,8.6592,8.3179,8.1951,8.082,7.9411,7.8667,7.6885,7.4367,6.8685,6.2664,5.6761,5.0688,4.5018,3.9666,3.5168,3.0927,2.7375,0.0,0.0,0.0,0.0,0.0,0.0,0.0,0.0,0.0,0.0,8.4411,0.0,0.0,0.0,0.0,0.0,0.0,0.0,0.0,8.3459,8.3308,8.3515,8.5932,8.7745,8.894,9.2406,9.4236,9.4359,9.2804,8.9144,8.3473,8.1492,7.8407,7.4714,7.5582,7.3987,7.0565,6.9331,6.828,6.7593,6.7763,6.7893,6.8111,0.0,0.0,0.0,0.0,0.0,0.0,0.0,0.0,0.0,9.4958,9.8913,10.2453,10.4387,10.6836,10.9483,11.0661,11.4022,11.8203,12.245,12.7307,13.2379,13.7319,13.957,14.0209,13.9616,13.8488,13.7275,13.5374,13.6691,13.7768,13.677,13.7814,13.8692,13.767,13.6461,13.5562,13.5268,13.4357,13.3998,13.4307,13.2202,13.0826,13.0342,12.7833,12.5396,12.2801,11.9877,11.6979,11.3877,11.0164,10.6591,10.3427,9.9868,9.6606,9.3825,9.0693,8.7662,8.4273,8.2945,8.1809,8.0487,7.8033,7.5735,7.3163,6.6238,6.0738,5.615,4.953,4.3417,3.7744,3.2443,2.7981,2.3552,0.0,0.0,0.0,0.0,0.0,0.0,0.0,0.0,0.0,0.0,8.5307,8.5048,0.0,0.0,0.0,0.0,0.0,0.0,0.0,8.4688,8.4434,8.375,8.6164,8.8794,9.1339,9.423,9.2982,8.7475,8.87,8.6949,8.2447,8.378,8.2951,8.0456,8.2934,8.1447,7.7014,7.5909,7.3788,7.1068,7.1585,7.172,7.1726,7.287,0.0,0.0,0.0,0.0,0.0,0.0,0.0,0.0,9.3662,9.6825,9.9913,10.3262,10.5728,10.8378,11.2358,11.4727,11.7581,12.3507,12.722,13.0963,13.6953,13.982,14.0807,13.9031,13.8429,13.725,13.5342,13.6041,13.6499,13.5022,13.5376,13.5317,13.3902,13.3639,13.281,13.1072,13.1083,13.1035,13.001,12.8527,12.7174,12.5879,12.4585,12.276,12.0171,11.7791,11.5312,11.3187,10.8522,10.4906,10.2353,9.9476,9.6319,9.2597,9.1409,8.918,8.652,8.4321,8.2659,8.15,7.7261,7.408,7.0954,6.4765,5.9674,5.5286,4.7827,4.1546,3.5891,2.9943,2.4943,2.0488,0.0,0.0,0.0,0.0,0.0,0.0,0.0,0.0,0.0,0.0,0.0,0.0,0.0,0.0,0.0,0.0,0.0,0.0,0.0,8.5,8.498,8.5547,8.8,8.9598,9.0174,9.0169,8.8787,8.6204,8.7345,8.6066,8.2675,8.4728,8.4819,8.3133,8.4143,8.216,7.8011,7.542,7.3982,7.3523,7.4221,7.465,7.5124,7.6057,7.6182,0.0,0.0,0.0,0.0,0.0,0.0,0.0,9.3495,9.6886,9.9637,10.0506,10.3862,10.7634,10.887,11.338,11.8831,12.3769,13.0055,13.58,13.7945,13.8534,13.8333,13.7454,13.7515,13.719,13.4586,13.5691,13.626,13.4309,13.4766,13.4432,13.2663,13.1085,12.9821,12.9619,12.7786,12.6936,12.7762,12.6102,12.4767,12.4032,12.2283,12.0125,11.7568,11.5138,11.2156,10.8863,10.5932,10.2797,9.9232,9.7611,9.5278,9.2039,9.0858,8.9032,8.7103,8.5616,8.2978,7.9695,7.6332,7.2734,6.8371,6.2503,5.7333,5.2088,4.5322,3.946,3.4154,2.8543,2.3428,1.8383,0.0,0.0,0.0,0.0,0.0,0.0,0.0,0.0,0.0,0.0,0.0,0.0,0.0,0.0,0.0,0.0,0.0,0.0,0.0,0.0,8.7321,8.9052,8.9983,9.0066,8.9261,8.8305,8.6592,8.405,8.5015,8.4975,8.4016,8.6327,8.7452,8.7595,8.7695,8.5449,8.1489,7.9554,7.8002,7.6939,7.8738,7.889,7.823,7.8982,7.8716,7.7999,7.885,0.0,0.0,0.0,0.0,0.0,0.0,0.0,9.8126,9.9161,10.2457,10.6646,10.9799,11.4477,11.9903,12.6463,13.2439,13.717,13.7851,13.7911,13.7532,13.6544,13.6235,13.558,13.4273,13.4274,13.4227,13.3008,13.2425,13.1865,13.1125,12.8599,12.6684,12.7205,12.5049,12.3495,12.4242,12.2597,12.109,12.0556,11.8705,11.6631,11.4162,11.1304,10.8467,10.5262,10.1912,9.9135,9.6638,9.4859,9.2844,9.0894,8.9468,8.759,8.5423,8.4462,8.2029,7.8304,7.4376,6.9484,6.4076,5.7749,5.1693,4.6094,3.9836,3.4487,2.9705,2.4771,2.0094,1.5451,0.0,0.0,0.0,0.0,0.0,0.0,0.0,0.0,0.0,0.0,0.0,0.0,0.0,0.0,0.0,0.0,0.0,0.0,0.0,0.0,0.0,9.2216,9.1447,9.0401,8.9086,8.7819,8.5897,8.3074,8.3722,8.4957,8.6793,8.8605,9.0444,9.2182,9.1435,8.9049,8.5612,8.4344,8.2338,8.022,8.2632,8.2432,8.0766,8.1188,8.0655,7.9675,8.0046,8.1717,8.4042,8.586,0.0,0.0,0.0,0.0,9.6316,9.8086,10.1186,10.5394,11.0678,11.5439,12.0957,12.9414,13.3956,13.6512,13.7001,13.7101,13.6841,13.5632,13.4469,13.3978,13.3666,13.2507,13.1417,13.1359,12.9858,12.862,12.9099,12.6121,12.3873,12.4396,12.2235,12.0598,12.0352,11.861,11.7306,11.6413,11.4575,11.2474,11.016,10.6993,10.4082,10.1532,9.7553,9.4794,9.2943,9.0978,8.9405,8.8391,8.677,8.4798,8.265,8.1709,7.9497,7.637,7.1107,6.4983,5.8143,5.0856,4.4541,3.8512,3.3093,2.8498,2.4457,2.0016,1.5983,1.2139,0.0,0.0,0.0,0.0,0.0,0.0,0.0,0.0,0.0,0.0,0.0,0.0,0.0,0.0,0.0,0.0,0.0,0.0,8.8944,0.0,0.0,9.1435,9.1319,9.1076,9.0789,8.8572,8.7091,8.6588,8.6697,8.8598,9.2148,9.2064,9.3207,9.4998,9.255,9.0124,8.7764,8.4365,8.2481,8.1704,8.2932,8.255,8.1481,8.178,8.1626,8.1322,8.1719,8.3068,8.4862,8.6907,8.9001,0.0,0.0,0.0,9.5349,9.5953,9.9296,10.326,10.5647,11.362,12.2979,12.973,13.3304,13.5238,13.5745,13.5366,13.4792,13.3522,13.3698,13.3771,13.3076,13.1551,13.0089,12.9569,12.8305,12.6758,12.5155,12.362,12.2149,12.1127,11.8816,11.6949,11.6399,11.4588,11.3247,11.2096,10.9657,10.7543,10.5724,10.2161,9.8693,9.5266,9.2608,8.9733,8.6525,8.6019,8.4876,8.269,8.1806,8.0588,7.853,7.5667,7.3689,7.1858,6.6077,5.835,4.9225,4.1977,3.5762,3.0453,2.5515,2.2,1.8911,1.5475,1.1778,0.8219,0.0,0.0,0.0,0.0,0.0,0.0,0.0,0.0,0.0,0.0,0.0,0.0,0.0,0.0,0.0,8.8051,8.8364,8.9096,9.0314,9.0882,9.164,9.2685,9.2202,9.1669,9.1236,8.9188,8.8089,8.8104,8.7573,9.0298,9.6011,9.6116,9.7087,9.8385,9.3721,9.1178,9.0285,8.6425,8.4291,8.3558,8.4706,8.5213,8.5105,0.0,0.0,0.0,0.0,0.0,0.0,8.7796,8.9548,9.1195,9.1744,0.0,0.0,0.0,9.7866,10.2257,10.9103,11.6169,12.2852,12.8575,13.1225,13.2812,13.3272,13.31,13.2885,13.2023,13.1162,13.0557,13.0306,12.9099,12.8102,12.6957,12.5815,12.4704,12.3758,12.1694,11.9811,11.9403,11.6913,11.4476,11.3507,11.1965,11.0319,10.8994,10.6796,10.4341,10.1702,9.7906,9.4094,9.0541,8.7574,8.4777,8.224,8.1575,8.0201,7.8628,7.7655,7.6411,7.4668,6.9716,6.6776,6.4889,5.7339,4.8634,3.8913,3.1585,2.5586,2.0482,1.6948,1.3813,1.0825,0.8198,0.5098,0.2244,0.0,0.0,0.0,0.0,0.0,0.0,0.0,0.0,0.0,0.0,0.0,0.0,0.0,0.0,0.0,0.0,8.932,9.002,9.1325,9.152,9.2186,9.3543,9.2912,9.2156,9.1327,8.9999,8.9218,8.9059,8.9212,9.2526,9.8939,10.0122,10.1743,10.3344,9.7248,9.4316,9.3643,8.9823,8.7454,8.6458,8.723,8.7961,8.8235,0.0,0.0,0.0,0.0,0.0,0.0,0.0,9.036,9.1749,9.1748,9.3153,0.0,0.0,0.0,10.112,11.078,11.6092,12.0227,12.5368,12.8277,12.9956,13.0687,13.0885,13.0799,13.0048,12.8469,12.7031,12.6607,12.6201,12.5613,12.473,12.3171,12.2237,12.2059,11.9608,11.7758,11.7572,11.4795,11.2392,11.1095,10.9141,10.7217,10.5808,10.3509,10.0795,9.7852,9.3816,9.0093,8.6621,8.2915,8.0162,7.8462,7.6867,7.5724,7.4811,7.3722,7.2145,6.9867,6.3367,5.8387,5.3914,4.6993,3.8032,2.8098,2.0899,1.5153,1.0411,0.7704,0.4698,0.1606,-0.0998,-0.3582,-0.6371,0.0,0.0,0.0,0.0,0.0,0.0,0.0,0.0,0.0,0.0,0.0,0.0,0.0,8.842,8.8829,8.9941,9.0339,9.104,9.226,9.245,9.2578,9.2685,9.26,0.0,9.1322,9.1236,9.0759,8.9921,9.3075,9.668,10.0773,10.385,10.733,11.0417,10.4817,10.0887,9.83,9.4552,9.2237,9.1112,9.0639,8.983,0.0,0.0,0.0,0.0,0.0,0.0,0.0,0.0,0.0,9.319,9.168,9.2647,9.4076,0.0,0.0,0.0,10.6163,10.9931,11.3409,12.0008,12.407,12.6698,12.8487,12.8498,12.8051,12.7307,12.5815,12.3942,12.1892,12.2514,12.3284,12.235,12.0714,11.9253,11.8635,11.6949,11.5544,11.4982,11.2202,10.976,10.8678,10.6317,10.3851,10.1442,9.903,9.6532,9.3381,8.9368,8.5899,8.2919,7.8853,7.5987,7.4175,7.219,7.0804,7.0527,6.9597,6.7273,6.361,5.6424,4.7126,3.6708,3.4897,2.7822,1.6944,1.0253,0.4972,0.0616,-0.183,-0.4991,-0.8619,-1.1819,-1.5165,-1.8083,0.0,0.0,0.0,0.0,0.0,0.0,0.0,0.0,0.0,0.0,0.0,0.0,0.0,8.9787,8.9921,9.0883,9.1345,9.2093,9.3117,9.338,9.367,9.4213,9.4264,9.3856,9.3015,9.2411,9.2263,9.2422,9.3621,9.6991,10.2583,10.5681,10.8992,11.1934,10.5894,10.2789,10.1748,9.6475,9.3779,9.3122,9.3274,9.4179,0.0,0.0,0.0,0.0,0.0,0.0,0.0,0.0,0.0,0.0,0.0,9.338,9.3278,9.2402,9.5417,9.9717,10.321,10.7322,11.1661,11.6601,11.9958,12.235,12.3748,12.42,12.4113,12.2995,12.1904,12.0616,11.8701,12.0048,12.0796,11.9472,11.8659,11.7848,11.6724,11.5712,11.4347,11.2593,11.0261,10.7834,10.4902,10.3251,10.1039,9.8334,9.5841,9.358,9.0882,8.6469,8.2746,7.9921,7.5894,7.2099,6.8708,6.7495,6.6666,6.6224,6.4455,6.2032,5.8498,4.9292,3.8931,2.798,1.8869,1.2315,0.7306,0.162,-0.3632,-0.8228,-1.0886,-1.4467,-1.8598,-2.2823,-2.6754,-3.046,0.0,0.0,0.0,0.0,0.0,0.0,0.0,0.0,0.0,0.0,0.0,0.0,0.0,0.0,9.1763,9.2509,9.2967,9.3399,9.4133,9.4259,9.4607,9.5156,9.5446,9.5176,9.4317,9.4005,9.3952,9.4217,9.5046,9.8134,10.3483,10.7028,11.0378,11.3296,10.796,10.5936,10.6007,10.108,9.8272,9.7072,9.758,0.0,9.935,0.0,0.0,0.0,0.0,0.0,0.0,0.0,0.0,0.0,0.0,0.0,9.2604,9.2605,9.5542,9.9053,10.0548,10.4423,10.9036,11.2844,11.4991,11.7046,11.9968,12.003,11.9482,11.9544,11.8524,11.7363,11.5663,11.6498,11.7271,11.6611,11.6387,11.5881,11.4571,11.373,11.2552,10.9705,10.7958,10.5602,10.2215,10.0617,9.8531,9.5649,9.3326,9.0855,8.8239,8.4296,8.0171,7.5819,7.2592,6.9292,6.5424,6.4553,6.3602,6.273,6.0581,5.7256,5.2817,4.195,3.1041,1.957,0.6288,-0.0193,-0.1764,-0.7307,-1.247,-1.6767,-2.0281,-2.443,-2.9242,-3.4534,-3.9673,-4.4416,0.0,0.0,0.0,0.0,0.0,0.0,0.0,0.0,0.0,0.0,0.0,0.0,0.0,0.0,0.0,9.4776,9.4957,9.5147,9.5176,9.5228,9.5234,9.5312,9.6071,9.612,9.5261,9.6035,9.5971,9.5142,9.7572,10.0409,10.3626,10.7713,11.1602,11.5075,11.1757,11.0692,11.1215,10.8347,10.5588,10.3138,0.0,10.2497,10.1415,0.0,0.0,0.0,10.4815,10.4036,0.0,0.0,0.0,0.0,0.0,0.0,0.0,9.3447,9.5359,9.7174,0.0,0.0,0.0,10.8548,10.8939,11.0444,11.7127,11.6021,11.3878,11.6506,11.5774,11.419,11.2999,11.2248,11.2397,11.4139,11.4026,11.3225,11.2131,11.125,10.9739,10.674,10.5182,10.3299,10.0153,9.8277,9.604,9.3082,9.1198,8.8792,8.5407,8.246,7.7798,7.0976,6.9335,6.719,6.4367,6.3482,6.2168,6.0201,5.7241,5.292,4.6808,3.4838,2.2933,1.0806,-0.2605,-0.904,-1.0683,-1.67,-2.1311,-2.517,-2.9632,-3.4729,-4.0322,-4.6839,-5.321,-5.9461,0.0,0.0,0.0,0.0,0.0,0.0,0.0,0.0,0.0,0.0,0.0,0.0,0.0,0.0,0.0,9.7575,9.7149,9.7184,9.7867,9.734,9.7544,9.8799,9.9129,9.8512,9.7027,9.7232,9.6914,9.6079,9.7923,10.052,10.3686,10.7197,11.0201,11.2733,11.3493,11.2704,11.0573,10.5382,10.4647,10.6503,10.5128,10.6459,0.0,0.0,0.0,0.0,0.0,10.8935,0.0,0.0,10.5921,10.2811,0.0,0.0,0.0,0.0,0.0,9.7354,9.7257,0.0,0.0,0.0,0.0,0.0,10.7889,10.7868,10.7668,10.9599,10.9367,10.8508,10.886,10.8402,10.7942,10.7942,10.986,11.0645,10.9562,10.8445,10.6646,10.3427,10.1788,9.9314,9.6032,9.4368,9.2279,8.9513,8.7558,8.5933,8.4051,7.978,7.5191,7.0612,6.7721,6.5283,6.3069,6.1312,5.9463,5.7322,5.3966,4.8652,4.096,2.8145,1.5223,0.2168,-1.104,-2.0724,-2.7026,-2.6643,-2.9393,-3.4103,-3.9092,-4.4845,-5.1224,-5.9001,-6.304,-6.5521,0.0,0.0,0.0,0.0,0.0,0.0,0.0,0.0,0.0,0.0,0.0,0.0,0.0,0.0,0.0,10.1016,10.0192,9.9863,10.0072,9.9277,9.9236,10.0329,10.0288,9.9988,9.9363,9.8632,9.8157,9.8018,9.8513,10.0114,10.2807,10.5643,10.7897,10.9796,11.1499,11.1121,10.9044,10.4949,10.5246,10.8201,10.9178,0.0,0.0,11.3559,11.4396,0.0,0.0,0.0,11.3553,11.3271,10.9802,0.0,0.0,0.0,0.0,0.0,0.0,9.8531,0.0,0.0,9.9552,10.002,0.0,0.0,10.3335,10.2965,10.2527,10.5018,10.5316,10.4592,10.4368,10.3867,10.3366,10.2977,10.37,10.4756,10.5411,10.4802,10.2852,9.9297,9.773,9.5396,9.2056,9.0466,8.8828,8.6464,8.5053,8.3335,8.1479,7.7325,7.3736,7.0797,6.7599,6.4886,6.2768,6.0395,5.8204,5.5749,5.1141,4.4559,3.6168,2.1621,0.752,-0.5918,-1.9646,-3.0578,-3.8838,-3.9286,-4.029,-4.2242,-4.8053,-5.4428,-6.1111,-6.6908,-7.1282,-7.5461,0.0,0.0,0.0,9.4296,9.6473,9.8157,0.0,0.0,0.0,0.0,0.0,0.0,0.0,0.0,0.0,0.0,10.4007,10.3027,10.2109,10.1064,10.0563,10.0563,10.072,10.1032,10.1727,10.0165,9.9783,10.0399,9.9592,9.999,10.1611,10.3772,10.5641,0.0,10.7674,10.7564,10.6905,10.67,10.7637,10.9535,11.3991,11.4983,0.0,0.0,11.9473,0.0,11.9552,11.9418,11.8764,11.7203,11.2382,0.0,0.0,0.0,0.0,0.0,9.8852,0.0,0.0,0.0,0.0,9.9047,9.636,0.0,10.0852,9.9625,9.8285,10.1428,10.1836,10.0898,9.9537,9.8608,9.7952,9.7945,9.6479,9.6762,10.0477,10.0368,9.85,9.452,9.3023,9.1214,8.8302,8.6724,8.5263,8.3908,8.2776,8.1119,7.8267,7.5248,7.2917,7.1208,6.7883,6.5135,6.3165,6.0166,5.7486,5.4722,4.8218,4.0468,3.1272,1.4871,0.0,-1.382,-2.8154,-3.9062,-4.7275,-5.2168,-5.2381,-5.0366,-5.6973,-6.3552,-6.9643,-7.2612,-7.822,-8.5267,9.2678,0.0,9.6276,9.7689,9.9985,0.0,0.0,0.0,0.0,0.0,0.0,0.0,0.0,0.0,0.0,0.0,10.8272,10.6324,10.4835,10.3161,10.2374,10.2397,10.2999,10.314,10.2663,10.2334,10.1778,10.13,10.1711,10.2421,10.3274,10.5038,10.5928,10.6115,10.7401,10.6988,10.569,11.0651,11.3213,11.4091,11.4141,11.6627,12.0505,12.2141,12.3163,12.3626,12.4879,12.4369,12.2572,0.0,11.562,11.1997,0.0,0.0,0.0,0.0,0.0,0.0,0.0,0.0,0.0,0.0,9.6317,0.0,9.2643,9.3112,9.4097,9.37,9.3456,9.3479,9.3447,9.2198,9.074,8.9404,8.9098,9.0679,9.5569,9.4974,9.2869,8.9518,8.8211,8.6599,8.416,8.3284,8.221,8.1182,7.9912,7.8393,7.5932,7.4538,7.2464,6.9979,6.6488,6.3665,6.1394,5.8602,5.49,5.0752,4.4914,3.578,2.3765,0.7849,-0.7548,-2.2532,-3.5481,-4.5937,-5.431,-5.884,-6.0278,-6.0228,-6.7136,-7.1438,-7.4732,-8.2669,-8.3812,-8.2546,9.4129,0.0,9.8669,10.0409,10.2871,10.51,0.0,10.6874,10.7412,10.784,0.0,0.0,0.0,0.0,0.0,0.0,0.0,0.0,0.0,10.549,10.4638,10.4194,10.4501,10.5029,10.5378,10.3661,10.3027,10.3385,10.2491,10.2421,10.3178,10.4261,10.5179,10.5943,10.6575,10.6602,10.6511,10.9955,11.2926,11.5356,11.8502,12.1929,12.5225,12.664,12.7491,12.7822,12.8406,12.752,12.5302,11.9928,11.7136,0.0,0.0,10.7666,10.6751,0.0,10.2743,10.3323,0.0,0.0,0.0,9.6686,0.0,0.0,0.0,9.0219,8.9696,8.9991,8.8699,8.756,8.7352,8.5506,8.3924,8.3493,8.2782,8.2953,8.4834,8.7302,8.7813,8.4783,8.3504,8.1977,8.0104,7.9243,7.8593,7.7781,7.6722,7.5623,7.4435,7.2613,7.0706,6.8525,6.5366,6.2636,6.0148,5.7175,5.3248,4.8901,4.0736,3.0253,1.7165,0.0845,-1.4952,-3.0355,-4.185,-5.1552,-5.9654,-6.4211,-6.7936,-7.1396,-7.5536,-7.892,-8.2347,-9.0112,-9.0985,-8.9481,9.5884,0.0,10.0938,10.2811,10.5569,10.8107,10.9603,11.0268,11.1077,11.2185,11.6236,0.0,0.0,0.0,0.0,0.0,0.0,0.0,0.0,0.0,10.6896,10.5667,10.5672,10.6363,10.7866,10.4988,10.4197,10.5636,10.34,10.2718,10.3178,10.3794,10.4661,10.5923,10.6131,10.683,10.7902,10.9329,11.2579,11.7472,12.4142,12.686,12.7357,13.0206,13.0969,13.0737,13.0806,12.9763,12.7504,12.1544,0.0,11.7002,11.1675,11.0278,0.0,0.0,0.0,0.0,0.0,0.0,0.0,0.0,0.0,9.1712,0.0,0.0,0.0,8.6665,8.4652,8.2611,8.1162,7.8937,7.7101,7.697,7.6137,7.4934,7.2891,7.7583,8.0507,7.915,7.8384,7.7239,7.5826,7.4837,7.4391,7.4279,7.3036,7.2386,7.2436,7.0299,6.8118,6.6521,6.3516,6.0914,5.8489,5.4902,5.0872,4.6369,3.5978,2.3994,1.0574,-0.5872,-2.1791,-3.7054,-4.7288,-5.6111,-6.3786,-6.8415,-7.4129,-8.0141,-8.2477,-8.5904,-9.0372,-9.6797,-9.9424,-10.0686,9.925,10.0684,0.0,10.4572,10.8329,11.1385,11.2398,11.453,11.6785,11.9233,12.0766,0.0,0.0,0.0,0.0,0.0,0.0,0.0,11.3775,0.0,0.0,10.6732,10.6575,10.6966,10.7972,10.6763,10.6272,10.6494,10.5991,10.5826,10.5923,10.5793,10.5826,10.6001,10.7271,10.8107,10.8805,11.325,11.8782,12.512,12.8127,12.7343,12.4927,13.0277,13.1528,13.0581,13.1712,13.1428,12.9756,0.0,12.2793,11.9663,0.0,11.3951,11.2826,0.0,0.0,0.0,0.0,0.0,0.0,0.0,9.517,0.0,0.0,0.0,8.4714,8.073,0.0,7.7372,7.469,0.0,0.0,6.6744,6.7501,6.7136,6.3409,6.457,6.7154,7.0747,7.1766,7.2096,7.1336,6.9258,6.8754,7.0764,6.8793,6.7835,6.8672,6.7381,6.5615,6.3175,6.0001,5.7186,5.4933,5.0927,4.5849,3.9774,2.9536,1.7246,0.2824,-1.2367,-2.7215,-4.1983,-5.1228,-5.9152,-6.5883,-7.0696,-7.6362,-8.2411,-8.7126,-9.1834,-9.6766,-10.4401,-10.9944,-11.3101,9.9669,10.1788,0.0,10.6235,10.9311,11.2289,11.4703,11.813,12.1007,12.2599,12.442,0.0,0.0,0.0,0.0,0.0,0.0,0.0,0.0,0.0,0.0,0.0,10.9203,0.0,0.0,10.8289,10.7327,10.7176,10.6208,10.5904,10.6171,10.566,10.6705,10.887,10.9275,11.1104,11.3878,11.6282,11.9309,12.2642,12.6777,12.7299,12.6451,13.3424,13.5019,13.3475,13.328,13.2007,12.9781,0.0,12.2966,0.0,0.0,0.0,0.0,0.0,0.0,0.0,0.0,0.0,0.0,0.0,0.0,0.0,8.5422,0.0,8.0373,0.0,0.0,0.0,0.0,0.0,0.0,0.0,6.0875,5.9491,5.6321,5.6805,5.9375,6.4443,6.4427,6.4344,6.5448,6.4681,6.5114,6.6979,6.4811,6.3764,6.4751,6.3516,6.1497,5.9056,5.6454,5.3896,5.103,4.676,4.1317,3.4654,2.3291,0.9932,-0.5106,-1.9224,-3.3218,-4.6762,-5.438,-6.1195,-6.7328,-7.2216,-7.7414,-8.2985,-8.8379,-9.3589,-9.8716,-10.4246,-10.8457,-11.0729,10.0509,0.0,0.0,10.7215,10.9983,11.3273,11.6975,12.0076,12.2688,12.4791,0.0,0.0,13.0464,12.8697,0.0,0.0,0.0,12.2861,0.0,0.0,11.6181,0.0,0.0,0.0,0.0,0.0,10.8298,10.7732,10.6408,10.641,10.7503,10.6182,10.7611,11.129,11.1661,11.4104,11.8046,11.9789,12.2001,12.4778,12.8512,13.0602,13.1912,13.632,13.7304,13.6147,13.4891,13.2965,13.0261,12.6692,12.3871,0.0,11.9835,0.0,0.0,0.0,0.0,0.0,10.5381,0.0,0.0,0.0,0.0,0.0,0.0,0.0,0.0,0.0,7.2707,0.0,0.0,0.0,6.0118,5.765,0.0,5.366,5.0099,4.9652,5.1839,5.7759,5.7536,5.7491,5.906,5.8724,5.9505,6.1891,5.9365,5.8375,6.0023,5.8798,5.6831,5.4525,5.2301,4.9732,4.6637,4.1594,3.54,2.827,1.5544,0.1926,-1.2842,-2.5801,-3.8506,-5.0445,-5.6801,-6.2761,-6.8438,-7.3293,-7.8395,-8.3555,-8.8966,-9.3898,-9.8556,-10.2809,-10.5816,-10.766,10.2687,10.4396,0.0,0.0,11.1001,11.5198,11.9598,11.9767,12.1284,0.0,0.0,0.0,0.0,0.0,0.0,0.0,0.0,12.9932,12.5689,0.0,12.0509,0.0,0.0,0.0,0.0,0.0,0.0,10.7705,10.748,10.8693,11.1029,10.8388,10.8947,11.2101,11.4104,11.6712,11.9652,12.4142,13.0164,13.6588,13.6689,13.9224,14.2483,13.7986,13.704,13.7901,13.6218,13.4111,0.0,13.0116,12.7094,0.0,0.0,0.0,0.0,0.0,0.0,0.0,0.0,0.0,0.0,9.4049,0.0,0.0,0.0,0.0,7.9539,0.0,0.0,0.0,6.8217,6.4804,0.0,0.0,5.3186,0.0,0.0,4.2125,4.3565,4.9741,5.1781,5.2734,5.2791,5.0348,5.0339,5.4395,5.1853,5.1492,5.4188,5.3305,5.1602,4.9398,4.7105,4.4342,4.1325,3.4623,2.7272,1.9248,0.568,-0.7293,-2.004,-3.1815,-4.2754,-5.2704,-5.8153,-6.3754,-6.9382,-7.4074,-7.9287,-8.4706,-8.9672,-9.3425,-9.6526,-10.141,-10.5022,-10.7586,0.0,0.0,0.0,0.0,11.0821,11.4473,11.8772,12.1208,12.4475,0.0,0.0,0.0,0.0,0.0,13.8935,0.0,0.0,13.4194,13.0074,12.7396,0.0,0.0,0.0,11.7761,0.0,0.0,0.0,0.0,0.0,11.0718,11.2037,11.0479,11.1213,11.3923,11.7019,12.0343,12.3851,12.8136,13.1572,13.4284,13.6842,14.038,14.4009,14.0771,13.9485,13.893,13.7672,13.5419,13.271,13.1819,12.8824,12.521,12.462,12.1668,11.7957,11.6696,11.4851,11.2592,0.0,0.0,10.6193,9.8188,0.0,0.0,0.0,0.0,0.0,0.0,0.0,0.0,0.0,0.0,0.0,0.0,0.0,4.6501,0.0,3.6629,3.5431,3.7708,4.2766,4.5427,4.3766,4.4939,4.6762,4.8973,4.7138,4.6933,4.9147,4.809,4.6427,4.4206,4.2118,3.8888,3.4805,2.6572,1.8068,0.9322,-0.4208,-1.6575,-2.8162,-3.8147,-4.7095,-5.481,-6.0478,-6.6211,-7.1915,-7.7285,-8.3197,-8.9273,-9.3447,-9.7106,-10.0115,-10.1792,-10.4697,-10.8112,10.7412,0.0,0.0,0.0,11.1904,11.512,11.8798,12.3043,0.0,0.0,13.546,0.0,14.442,0.0,14.3299,0.0,14.19,13.8513,13.3523,13.1784,0.0,12.678,12.4372,0.0,0.0,0.0,0.0,0.0,0.0,11.3223,11.4499,11.2716,11.3253,11.6016,11.9267,12.2851,12.6636,13.173,13.4957,13.6887,14.0129,14.3211,14.5632,14.3376,14.1461,13.9922,13.8724,13.6537,13.4058,13.3164,13.0646,12.7636,12.6731,12.3416,11.9471,11.845,11.6035,11.307,11.0212,10.8953,0.0,9.9729,9.5053,0.0,8.268,0.0,0.0,0.0,0.0,0.0,0.0,0.0,0.0,0.0,0.0,0.0,0.0,3.1649,2.927,2.898,3.4733,3.8217,3.6793,3.8141,3.9926,4.2249,4.0801,4.098,4.3365,4.2689,4.1099,3.8986,3.6642,3.2701,2.7509,1.7615,0.7929,-0.1719,-1.5044,-2.6675,-3.6435,-4.4729,-5.1623,-5.7346,-6.2948,-6.9001,-7.5259,-8.1319,-8.7959,-9.4547,-9.871,-10.2077,-10.4387,-10.3107,-10.5494,-10.9752,0.0,0.0,0.0,0.0,11.3879,11.7073,0.0,0.0,13.0194,0.0,13.7989,14.221,14.6374,14.6315,14.6475,14.8019,14.663,0.0,13.6449,13.6616,0.0,0.0,12.8714,12.741,12.5607,0.0,0.0,0.0,0.0,11.6295,11.8522,11.5188,11.5201,11.8123,12.0958,12.4389,12.8399,13.4751,14.0102,14.4448,14.6364,14.7366,14.7615,14.5419,14.2969,14.0588,13.9307,13.7818,13.6056,13.3976,13.2291,13.0723,12.8425,12.5367,12.2148,11.9905,11.7344,11.4332,11.0573,10.861,10.5977,9.8852,9.6181,0.0,0.0,0.0,8.2703,0.0,0.0,0.0,0.0,0.0,0.0,0.0,0.0,0.0,3.0122,2.6974,2.5008,2.3807,2.7862,3.1051,3.1794,2.9806,3.0237,3.4335,3.3156,3.3765,3.7052,3.6924,3.5909,3.3819,3.0681,2.5855,1.9536,0.8016,-0.2961,-1.381,-2.6925,-3.7185,-4.4733,-5.1423,-5.6611,-6.0435,-6.5919,-7.2393,-7.9584,-8.6323,-9.3507,-10.0708,-10.531,-10.816,-10.917,-10.5637,-10.7661,-11.2659,11.1691,11.3078,11.4432,0.0,11.5265,11.7413,0.0,0.0,0.0,0.0,14.3133,14.7656,15.2563,15.1835,15.1107,15.1582,14.9525,0.0,0.0,0.0,0.0,13.7523,13.5389,13.3373,13.1713,12.86,0.0,12.4688,0.0,11.9273,12.0332,11.748,11.6789,11.8208,12.2013,12.6018,13.0454,13.5646,14.0769,14.5442,14.6333,14.71,14.7457,14.5961,14.4643,14.3178,14.0648,13.828,13.6325,13.5334,13.3235,13.0799,12.9061,12.5992,12.2545,12.053,11.788,11.4884,11.2199,10.9621,10.6966,10.2939,9.7458,9.1956,0.0,0.0,0.0,0.0,0.0,0.0,0.0,0.0,0.0,0.0,0.0,0.0,0.0,2.506,2.2334,2.1362,2.108,2.1434,2.2836,2.4598,2.6315,2.74,2.7247,2.8952,3.3402,3.1188,2.9672,2.9573,2.5275,1.9107,1.1179,-0.1687,-1.393,-2.5378,-3.7103,-4.594,-5.2187,-5.7004,-6.1153,-6.487,-7.1585,-7.8967,-8.673,-9.4747,-10.2213,-10.8867,-11.2321,-11.4349,-11.4779,-11.1929,-11.2524,-11.5013,11.3749,11.6111,0.0,11.8327,0.0,0.0,12.4672,0.0,0.0,14.087,14.6128,0.0,15.2777,15.3908,15.4234,15.3506,15.1835,0.0,0.0,0.0,0.0,14.0893,13.9691,13.8334,13.6626,13.3574,0.0,12.9122,0.0,12.2691,12.2623,11.9646,11.872,11.9904,12.3693,12.7175,13.0903,13.8117,14.3256,14.6555,14.744,14.813,0.0,14.6721,14.553,14.4314,14.1135,13.8932,13.7073,13.5199,13.3142,13.0953,12.8577,12.5978,12.3278,12.1125,11.7927,11.4503,11.2667,10.9424,10.586,10.368,9.8652,9.3444,8.9701,8.6877,8.3642,0.0,7.5792,0.0,0.0,0.0,0.0,0.0,0.0,0.0,0.0,0.0,2.0344,1.8374,1.668,1.5616,1.5084,1.7913,2.0002,2.0712,2.1583,2.3596,2.6884,2.6321,2.5218,2.387,1.8459,1.092,0.1321,-1.1818,-2.4423,-3.6365,-4.6358,-5.3734,-5.8702,-6.2843,-6.6815,-7.0783,-7.8065,-8.6156,-9.4809,-10.3308,-11.0407,-11.6117,-11.9221,-12.0401,-12.0207,-11.8938,-11.843,-11.8534,11.5445,11.9084,0.0,0.0,0.0,0.0,0.0,13.4278,0.0,14.2983,0.0,15.2165,15.152,15.4787,15.6431,15.4729,0.0,15.1526,14.7744,14.7889,14.6496,14.2591,14.3003,14.248,14.0703,13.8076,0.0,0.0,0.0,12.5756,12.4362,12.1309,12.0574,12.213,12.517,12.8255,13.1743,14.1007,14.5807,14.722,14.8845,14.9686,14.9543,14.7478,14.5872,14.4534,14.1434,13.9303,13.7623,13.4664,13.2618,13.0746,12.7661,12.5673,12.3649,12.1274,11.7617,11.3884,11.2021,10.8098,10.3908,10.2156,9.9162,9.5459,9.0668,8.7521,8.4478,8.0947,7.4996,7.0012,0.0,0.0,0.0,0.0,0.0,0.0,0.0,0.0,0.0,1.5535,1.4179,0.0,0.8889,1.1008,1.3209,1.4622,1.6053,1.752,1.9125,2.1026,2.0301,1.6481,1.0293,0.1718,-0.9516,-2.2215,-3.4504,-4.6135,-5.4622,-6.0639,-6.4399,-6.9002,-7.3551,-7.812,-8.5793,-9.4423,-10.3704,-11.2128,-11.8514,-12.3276,-12.574,-12.6143,-12.5285,-12.5874,-12.4776,-12.2993,11.7898,0.0,0.0,0.0,0.0,13.4794,13.9055,14.265,14.6348,15.0107,15.5066,15.8283,15.8345,15.8474,15.8189,15.7282,15.5812,0.0,0.0,0.0,0.0,14.7627,14.7721,14.6901,14.4982,14.2119,13.8839,0.0,0.0,12.6759,12.3781,12.1618,12.1258,12.2932,12.4752,12.9701,13.6893,14.2111,14.5392,14.722,14.862,14.9086,14.8809,14.7426,14.5701,14.356,14.1072,13.8779,13.6771,13.4902,13.2563,13.004,12.8207,12.5585,12.2718,12.0069,11.6591,11.2762,10.9718,10.5962,10.2535,9.9956,9.6848,9.3932,9.2344,8.8492,8.4591,8.2167,7.7229,7.115,6.4001,0.0,0.0,0.0,0.0,0.0,0.0,0.0,0.0,0.0,1.325,1.0675,0.6625,0.8401,1.0055,1.0833,0.9829,1.001,1.1794,1.1859,0.9769,0.5244,-0.0113,-0.8463,-1.9986,-3.2214,-4.3341,-5.3247,-6.0305,-6.5877,-7.0117,-7.6048,-8.1812,-8.7666,-9.6979,-10.5974,-11.4629,-12.1692,-12.7715,-13.22,-13.119,-13.0578,-13.0406,-13.0282,-13.0152,-12.9794,12.354,0.0,0.0,0.0,0.0,0.0,0.0,15.073,15.3556,15.3567,15.6531,15.8515,15.8161,15.9836,16.0044,15.7984,15.7107,15.5919,15.4265,15.3414,15.2485,15.1617,15.1153,0.0,14.869,0.0,14.2229,13.7314,0.0,0.0,12.4942,12.2507,12.2535,12.4395,12.7294,13.1984,13.8265,14.2379,14.4813,14.6112,14.8438,14.8834,14.7928,14.6647,14.5142,14.3291,14.0619,13.7845,13.5401,13.388,13.1586,12.8991,12.6441,12.3745,12.1108,11.8261,11.4873,11.1141,10.8261,10.4642,10.0973,9.8299,9.5322,9.2533,9.0485,8.7468,8.4033,8.0364,7.5903,6.9153,5.7895,4.7706,0.0,0.0,0.0,0.0,0.0,0.0,0.0,0.0,0.0,0.0,0.5736,0.5758,0.6023,0.5947,0.5985,0.5681,0.4892,0.4438,0.1355,-0.4942,-1.1235,-1.9886,-3.1081,-4.065,-5.0293,-5.9859,-6.5483,-7.1054,-7.6482,-8.4068,-9.1265,-9.8235,-10.7407,-11.5983,-12.3984,-13.0415,-13.473,-13.7165,-13.5806,-13.4693,-13.3834,-13.3977,-13.4116,-13.3692,12.9323,13.1006,0.0,0.0,14.1998,14.7028,15.155,15.678,15.9369,15.6782,15.7882,15.871,15.8129,16.1137,16.1888,15.904,15.8576,15.783,15.5967,15.5116,15.4574,15.4342,15.3656,15.2655,15.16,14.9385,14.5214,0.0,0.0,0.0,12.6027,12.3744,12.3803,12.6157,13.0108,13.4179,13.8443,14.2606,14.4671,14.5556,14.8402,14.8613,14.7223,14.5822,14.4315,14.2462,13.9873,13.6889,13.4093,13.2144,13.0186,12.7734,12.4476,12.1918,11.9349,11.605,11.2667,10.9329,10.6509,10.2806,9.9169,9.6664,9.3921,9.124,8.8348,8.5978,8.3013,7.8345,7.2869,6.5236,5.2855,4.6005,0.0,0.0,0.0,0.0,0.0,0.0,0.0,0.0,0.0,0.0,0.308,0.2163,0.1159,-0.0768,0.1673,0.125,-0.3405,-0.3196,-0.7118,-1.6134,-2.2572,-3.0795,-4.0845,-4.8585,-5.6859,-6.5779,-7.1059,-7.702,-8.3893,-9.2734,-10.1169,-10.9187,-11.7616,-12.5714,-13.3232,-13.8013,-14.0399,-14.0927,-13.9815,-13.8556,-13.7469,-13.7896,-13.7788,-13.7209,0.0,13.6133,0.0,0.0,0.0,15.1429,15.4185,15.8319,16.1523,16.2237,16.3224,16.3814,16.4124,16.4355,16.4011,16.2516,16.1642,16.0226,15.7824,15.6895,15.5996,15.5074,15.4997,15.4431,15.3315,15.1572,14.7482,0.0,0.0,0.0,12.6027,12.4822,12.5563,12.8135,13.1566,13.5237,13.8879,14.3205,14.5862,14.74,14.903,14.8571,14.6867,14.5701,14.3342,14.0242,13.868,13.6194,13.3131,12.9765,12.7873,12.6399,12.3574,12.1057,11.824,11.3249,10.9977,10.7065,10.3286,9.9665,9.6603,9.4863,9.2055,8.9275,8.8244,8.4617,8.0701,7.7655,6.8768,5.9093,5.1425,4.7816,4.2072,0.0,0.0,0.0,0.0,0.0,0.0,0.0,0.0,0.0,-0.4894,-0.3734,-0.4795,-1.0621,-0.5249,-0.579,-1.5001,-1.2941,-1.7312,-3.0268,-3.4031,-3.9492,-4.7175,-5.6265,-6.4112,-7.0823,-7.7603,-8.4921,-9.2912,-10.2416,-11.1328,-11.992,-12.7709,-13.5483,-14.2803,-14.4095,-14.4613,-14.4535,-14.2798,-14.2506,-14.291,-14.2763,-14.256,-14.221,0.0,0.0,0.0,0.0,0.0,0.0,0.0,16.1927,16.3758,16.4889,16.4959,16.5156,16.548,16.5417,16.4787,16.3529,16.2638,16.1589,16.025,15.9371,15.8829,15.8394,15.788,15.7109,15.5858,15.3916,14.9875,0.0,0.0,0.0,0.0,12.7628,12.8258,13.1377,13.5117,13.8342,14.1146,14.4682,14.6386,14.6916,14.8068,14.7353,14.5284,14.3878,14.1777,13.9643,13.7439,13.4518,13.1447,12.8851,12.7086,12.5104,12.1548,11.8571,11.5571,11.1534,10.8226,10.5035,10.1783,9.8809,9.5962,9.3921,9.107,8.8295,8.5937,8.2624,7.868,7.4777,6.6416,5.7972,5.1818,4.7411,4.2661,3.6015,0.0,0.0,0.0,0.0,0.0,0.0,0.0,0.0,-0.7785,-0.9322,-1.2593,-1.9205,-1.3186,-1.2138,-1.8633,-2.2059,-2.781,-3.6557,-4.3276,-4.9574,-5.5503,-6.3329,-7.092,-7.8437,-8.4987,-9.2847,-10.1805,-11.1301,-12.2106,-13.3512,-13.9738,-14.4473,-14.7899,-14.8089,-14.7984,-14.7437,-14.6127,-14.5234,-14.4592,-14.498,-14.4397,-14.3273,14.653,0.0,14.9197,0.0,15.5826,15.7885,16.269,16.422,16.5062,16.6204,16.6124,16.6033,16.621,16.6067,16.5595,16.4586,16.4011,16.3179,16.2132,16.1487,16.0946,16.0454,15.9786,0.0,15.7842,15.5946,15.2397,14.7355,14.2574,0.0,0.0,13.1405,13.2016,13.5578,13.8993,14.1602,14.3803,14.6517,14.7405,14.7171,14.7478,14.6239,14.4215,14.2492,14.053,13.8393,13.59,13.2836,12.9416,12.7101,12.4984,12.2708,11.9416,11.6305,11.3041,10.9325,10.6026,10.3136,10.001,9.7398,9.485,9.2513,8.9673,8.6734,8.3704,8.0476,7.6344,7.0531,6.351,5.689,5.1908,4.7133,4.2393,3.7462,0.0,0.0,0.0,0.0,0.0,0.0,0.0,-0.6391,-1.2906,-1.6019,-2.0779,-2.8393,-2.4974,-2.3851,-2.6894,-3.1209,-3.7129,-4.4891,-5.2513,-5.868,-6.3291,-7.0665,-7.8194,-8.58,-9.3075,-10.1423,-11.0696,-12.1833,-13.2726,-14.32,-14.779,-15.0198,-15.0816,-15.07,-15.0299,-14.9662,-14.8778,-14.7891,-14.7096,-14.761,-14.6971,-14.577,15.194,15.2702,15.4146,15.9086,16.0081,16.1232,16.3755,16.4288,16.4907,16.6053,16.6896,16.7201,16.6855,16.6923,16.6672,16.6127,16.6127,16.509,16.2902,16.2801,16.2081,0.0,0.0,15.9573,15.8801,15.767,15.5012,15.0793,0.0,0.0,13.808,13.6042,13.7097,14.0772,14.281,14.4707,14.6614,14.8376,14.9098,14.8868,14.7257,14.5536,14.3854,14.2514,13.9754,13.6556,13.4128,13.1075,12.7249,12.3763,12.0542,11.8063,11.7161,11.4708,11.12,10.6267,10.3301,10.0973,9.7657,9.4621,9.2284,9.0466,8.7627,8.4373,8.1771,7.8399,7.3268,6.4725,5.9134,5.4603,5.0882,4.7313,4.1338,3.0591,0.0,0.0,0.0,0.0,0.0,0.0,-0.4246,-1.1222,-2.2046,-2.4283,-2.893,-3.843,-4.1711,-4.3182,-4.2918,-4.054,-4.4988,-5.7585,-6.2038,-6.6013,-6.9756,-7.8467,-8.5962,-9.2338,-10.1828,-11.0886,-11.9693,-13.4485,-14.3116,-14.6718,-15.0231,-15.1709,-15.1695,-15.1695,-15.1695,-15.1617,-15.0737,-15.0789,-15.147,-15.151,-15.1371,-15.1123,15.5414,15.6712,15.8382,16.12,16.234,16.3251,16.4638,16.5127,16.5749,16.6666,16.7047,16.7432,16.8189,16.7873,16.7392,16.6788,16.6374,16.5879,0.0,16.4722,16.3851,16.3008,16.223,16.1116,15.9573,15.8094,15.5976,15.349,0.0,0.0,14.239,14.213,14.3516,14.6168,14.7596,14.8888,15.0118,15.0158,14.9821,14.8942,14.7032,14.5419,14.3781,14.0711,13.8594,13.6736,13.2868,12.94,12.6203,12.2932,11.9037,11.5414,11.3075,11.1046,10.8769,10.476,10.165,9.9003,9.6786,9.3788,9.0861,8.8964,8.5796,8.2433,7.9068,7.3048,6.645,6.0431,5.6,5.1929,4.7281,4.3337,3.845,3.1046,2.6557,0.0,0.0,0.0,0.0,0.0,-1.6825,-2.4255,-3.142,-3.5759,-4.0311,-4.5749,-4.6746,-4.6854,-4.6594,-5.1228,-5.5861,-5.9986,-6.8323,-7.4392,-7.7767,-8.6544,-9.4931,-10.283,-11.0595,-12.0695,-13.2842,-14.1115,-14.6774,-15.0233,-15.3123,-15.4369,-15.4365,-15.4435,-15.3961,-15.3414,-15.3173,-15.3166,-15.3479,-15.4096,-15.3522,-15.2317,15.8711,15.9947,16.1171,16.3003,16.3826,16.4584,16.5834,16.6252,16.6733,16.7419,16.7805,16.827,16.8655,16.8805,16.8404,16.7594,16.6942,16.6435,16.6247,16.5766,16.5108,16.4114,16.3465,16.2175,15.9959,15.8788,15.7208,15.5071,15.1395,14.8894,14.7606,14.7905,14.9186,15.1369,15.2014,15.2384,15.2699,15.132,15.0069,14.8942,14.6625,14.4598,14.2713,13.9664,13.7129,13.4841,13.1042,12.7434,12.4045,12.1271,11.7402,11.3124,11.0203,10.7879,10.5581,10.2973,9.9854,9.6938,9.4952,9.1811,8.8575,8.6403,8.3197,7.9135,7.3944,6.7305,6.0839,5.6277,5.1704,4.7187,4.2645,3.7996,3.2897,2.6952,2.0323,1.313,0.5078,0.0,0.0,0.0,0.0,-3.2925,-3.9053,-4.4781,-4.9906,-5.4326,-5.6792,-5.8336,-5.8921,-6.1052,-6.4055,-6.7663,-7.6334,-8.2825,-8.6749,-9.5134,-10.3283,-11.1081,-12.0702,-13.0788,-14.1336,-14.6171,-14.9964,-15.2794,-15.5076,-15.6093,-15.6093,-15.6406,-15.6014,-15.5309,-15.6012,-15.6009,-15.5772,-15.6318,-15.5768,-15.4669,16.1786,16.2194,16.2903,16.4647,16.495,16.557,16.7354,16.7581,16.7831,16.8176,16.9021,16.9331,16.8806,16.9573,16.9568,16.839,16.7671,16.7019,16.6358,16.6401,16.5803,16.4215,16.4192,16.2902,16.0113,15.9924,15.8518,15.5799,15.3491,15.274,15.3326,15.3137,15.41,15.6121,15.5673,15.5123,15.4298,15.1847,15.0219,14.8868,14.5962,14.3383,14.104,13.9033,13.5782,13.1944,12.9067,12.5394,12.1191,11.9049,11.5343,11.124,10.8439,10.5022,10.1646,10.0538,9.7686,9.4438,9.1993,8.8757,8.5494,8.3071,7.9342,7.4391,6.7009,6.1295,5.6213,5.1794,4.6192,4.081,3.6844,3.1117,2.483,1.8568,1.1024,0.3018,-0.5377,-1.2285,0.0,-2.7921,-3.2994,-3.8546,-4.5619,-5.1988,-5.7931,-6.3402,-7.0239,-7.5078,-7.7103,-7.0492,-7.0664,-7.9465,-8.556,-9.1217,-9.6383,-10.3984,-11.121,-11.8009,-13.1629,-14.0588,-14.5597,-14.9986,-15.2994,-15.4712,-15.6376,-15.7163,-15.7163,-15.8022,-15.7794,-15.7337,-15.8978,-15.9137,-15.8437,-15.8437,-15.8281,-15.7811,16.3358,16.3601,16.4223,16.6148,16.6342,16.6493,16.7148,16.7493,16.7897,16.8848,16.932,16.9789,17.0411,17.0262,17.003,16.9721,16.8628,16.7978,16.7943,16.7375,16.6419,16.4782,16.482,16.3642,16.0962,16.0175,15.8518,15.5799,15.5876,15.5893,15.5938,15.6359,15.7079,15.8095,15.6893,15.604,15.5314,15.2164,15.0219,14.8868,14.5373,14.3164,14.1621,13.8023,13.5137,13.2584,12.8642,12.4769,12.0912,11.698,11.2739,10.8253,10.4601,10.0496,9.7124,9.757,9.5098,9.176,8.9207,8.5542,8.1793,7.9178,7.3094,6.6397,6.1573,5.6115,5.0516,4.5272,4.0306,3.5046,2.9157,2.2198,1.5045,0.7766,-0.1366,-1.0031,-1.7121,-2.5314,-3.2999,-3.9458,-4.543,-5.1103,-5.6536,-6.1679,-6.5489,-6.7563,-7.3045,-7.7542,-8.0552,-8.3036,-8.4799,-8.5885,-9.2897,-9.9144,-10.4286,-11.0808,-11.9519,-13.0386,-13.97,-14.5858,-14.917,-15.3644,-15.6489,-15.8305,-15.9266,-15.9819,-15.9819,-15.9975,-15.9975,-15.9903,-16.0996,-16.1309,-16.1231,-16.1765,-16.0828,-15.9024,16.5002,16.5417,16.5905,16.7451,16.7495,16.7873,16.8968,16.8756,16.9101,17.0743,17.0295,17.0394,17.1558,17.0949,17.0568,17.0794,16.9626,16.8603,16.8363,16.8083,16.7344,16.5707,16.5283,16.4182,16.1888,16.0983,15.9501,15.7492,15.803,15.8292,15.842,15.8814,15.9301,15.9706,15.7961,15.6876,15.6232,15.239,14.9994,14.8348,14.4931,14.2433,14.0314,13.6942,13.3905,13.0923,12.6572,12.2368,11.8529,11.453,11.0188,10.5807,10.2045,9.7784,9.3696,9.179,8.9755,8.76,8.4895,8.0771,7.6165,7.1326,6.5664,5.9964,5.5547,5.0336,4.4815,3.8932,3.3218,2.7182,2.0206,1.193,0.3573,-0.419,-1.3417,-2.1904,-2.828,-3.5894,-4.2667,-4.7808,-5.3848,-5.9258,-6.356,-6.8749,-7.2723,-7.4765,-8.0392,-8.5078,-8.8048,-9.4034,-9.6039,-9.3258,-10.0248,-10.6518,-11.1647,-12.0626,-12.9501,-13.8092,-14.478,-14.9564,-15.2722,-15.671,-15.9394,-16.1125,-16.201,-16.2401,-16.2401,-16.2791,-16.3037,-16.3127,-16.3908,-16.4298,-16.422,-16.3793,-16.2828,-16.1408,16.6719,16.7005,16.7511,16.8437,16.8572,16.9254,17.1317,17.0787,17.0819,17.2634,17.1656,17.1218,17.2394,17.1787,17.1486,17.1867,17.0553,16.9389,16.8757,16.8712,16.8114,16.6614,16.5936,16.4601,16.2947,16.1811,16.0695,15.9569,15.9723,15.992,16.0281,16.0366,16.061,16.0935,15.8799,15.756,15.6763,15.2541,14.9718,14.7562,14.4711,14.1452,13.8399,13.5622,13.2167,12.8396,12.3787,11.9522,11.5418,11.1692,10.7374,10.3028,9.9314,9.4992,9.0085,8.4805,8.2975,8.2098,7.9311,7.4861,6.9446,6.2676,5.8406,5.4569,4.9666,4.4599,3.9216,3.278,2.5829,1.8466,1.0792,0.1066,-0.8398,-1.624,-2.5039,-3.2967,-3.8622,-4.4857,-5.0316,-5.4477,-6.01,-6.5067,-6.8796,-7.4372,-7.9326,-8.3116,-8.9129,-9.3969,-9.7004,-10.3204,-10.5314,-10.2399,-10.7899,-11.3803,-11.9815,-13.0967,-13.8762,-14.2969,-14.8316,-15.2619,-15.6015,-15.9488,-16.1946,-16.3506,-16.452,-16.491,-16.4988,-16.5924,-16.6178,-16.6292,-16.7229,-16.7385,-16.6995,-16.5612,-16.4692,-16.3999,16.8782,16.8044,16.7776,17.039,17.0863,17.1295,17.2588,17.2606,17.2565,17.2863,17.2722,17.2666,17.3234,17.2627,17.2398,17.3166,17.1946,17.0864,17.0582,16.9392,16.8285,16.7344,16.6614,16.5494,16.3906,16.2175,16.0695,15.9569,16.0214,16.0405,16.0281,16.091,16.1079,16.0935,15.8799,15.718,15.5929,15.2572,14.9632,14.6979,14.3773,14.0698,13.7733,13.3816,13.0188,12.6754,12.2326,11.8144,11.3913,10.8441,10.3556,9.8618,9.322,8.8504,8.3993,7.9127,7.5903,7.3632,7.2507,6.7817,6.2401,5.8496,5.4558,5.0317,4.5388,3.9473,3.3238,2.662,1.8909,1.0661,0.1881,-0.9185,-1.9404,-2.6832,-3.5896,-4.3218,-4.6875,-5.2395,-5.7273,-6.0682,-6.5897,-7.0937,-7.5142,-7.95,-8.4454,-8.9986,-9.3946,-9.8398,-10.3777,-10.8987,-11.3237,-11.6286,-11.7368,-12.2313,-13.1279,-13.7692,-14.2793,-14.654,-15.182,-15.5716,-15.8521,-16.2026,-16.4077,-16.509,-16.6727,-16.7428,-16.7506,-16.8286,-16.8676,-16.8676,-16.9611,-16.9065,-16.7896,-16.8312,-16.6983,-16.4761,16.9762,16.9934,16.9879,17.039,17.1205,17.2245,17.3743,17.3364,17.3323,17.408,17.3483,17.3275,17.4151,17.3468,17.3242,17.3704,17.2711,17.2094,17.2138,17.0659,16.9328,16.813,16.7421,16.6015,16.3894,16.2873,16.1846,16.0877,16.1072,16.1249,16.0971,16.1146,16.1232,16.0935,15.8799,15.7185,15.587,15.2057,14.8827,14.5715,14.2455,13.8999,13.5414,13.1857,12.8015,12.4124,11.9304,11.491,11.0584,10.4947,10.0081,9.5253,8.9707,8.5052,8.0508,7.5116,7.1412,6.8535,6.6209,6.2371,5.8043,5.4374,4.9722,4.4936,4.049,3.4316,2.7438,2.0475,1.2064,0.2932,-0.745,-1.887,-2.9088,-3.6552,-4.4525,-5.0579,-5.2721,-5.7622,-6.1751,-6.3716,-6.9445,-7.4749,-7.848,-8.3848,-8.9288,-9.4705,-9.9383,-10.4283,-10.9803,-11.4844,-11.9818,-12.478,-12.6876,-13.1173,-13.8103,-14.2753,-14.6976,-15.0464,-15.4764,-15.8518,-16.1617,-16.4636,-16.6769,-16.82,-16.9913,-17.0614,-17.0692,-17.1471,-17.2172,-17.2483,-17.2016,-17.1596,-17.1097,-17.0064,-16.8828,-16.7514,17.0597,17.1619,17.1924,17.1014,17.1924,17.3213,17.4501,17.4198,17.4234,17.5297,17.4384,17.4103,17.5373,17.4456,17.4079,17.47,17.3629,17.3094,17.3617,17.2153,17.0592,16.9286,16.8053,16.6512,16.4526,16.3848,16.3108,16.2276,16.1853,16.172,16.1516,16.1304,16.1083,16.0935,15.8799,15.7189,15.5731,15.1705,14.8111,14.4758,14.1346,13.7646,13.3571,12.9934,12.5824,12.1296,11.5925,11.1195,10.6707,10.1251,9.6121,9.1509,8.6254,8.1593,7.7058,7.1905,6.7892,6.4473,6.1037,5.7933,5.4755,5.0639,4.5593,4.0421,3.5729,2.9199,2.1926,1.4171,0.5058,-0.4956,-1.6193,-2.7541,-3.7534,-4.4558,-5.1086,-5.5785,-5.7235,-6.1149,-6.4575,-6.6242,-7.2227,-7.7672,-8.1757,-8.8016,-9.4017,-9.9274,-10.4869,-11.0363,-11.5701,-12.0727,-12.6409,-13.2906,-13.5501,-13.8879,-14.3143,-14.7095,-15.0934,-15.4428,-15.7804,-16.13,-16.464,-16.7242,-16.93,-17.0963,-17.2674,-17.3375,-17.3487,-17.4308,-17.5086,-17.5475,-17.4194,-17.3924,-17.3925,-17.1863,-17.0882,-17.0361,17.2104,17.2245,17.2682,17.4122,17.4425,17.4577,17.4729,17.5487,17.5979,17.545,17.5816,17.6287,17.7053,17.5596,17.5131,17.6983,17.4843,17.401,17.5008,17.3628,17.2223,17.1136,16.8791,16.7421,16.6878,16.4695,16.3402,16.3005,16.2104,16.1516,16.1304,16.116,16.1012,16.0935,15.8799,15.6885,15.4895,15.1565,14.8096,14.4399,14.111,13.7434,13.3232,12.8444,12.3595,11.8723,11.2814,10.7742,10.2845,9.6613,9.1047,8.6011,8.1438,7.6604,7.1985,6.9235,6.4958,6.047,5.8118,5.5279,5.182,4.7405,4.3237,3.8349,3.1169,2.4263,1.6769,0.7706,-0.229,-1.2811,-2.38,-3.4731,-4.3871,-4.9514,-5.4633,-5.8607,-6.0498,-6.2563,-6.539,-6.9543,-7.4573,-8.0242,-8.6649,-9.2473,-9.8555,-10.5057,-11.0187,-11.5696,-12.1678,-12.6824,-13.382,-14.3165,-14.2557,-14.3666,-14.7147,-15.0706,-15.411,-15.7514,-16.1063,-16.4208,-16.6889,-16.9462,-17.1304,-17.2442,-17.415,-17.4891,-17.5051,-17.5823,-17.6169,-17.6247,-17.6036,-17.537,-17.4703,-17.4453,-17.3684,-17.26,17.3679,17.5553,17.6611,17.5906,17.6354,17.6679,17.6483,17.6755,17.6871,17.679,17.7018,17.7261,17.7878,17.7344,17.7191,17.8129,17.6295,17.5383,17.5927,17.4472,17.2921,17.1175,16.9161,16.7929,16.7186,16.5788,16.4724,16.3927,16.288,16.2512,16.2836,16.1545,16.1318,16.17,15.9104,15.666,15.4219,15.045,14.6515,14.2687,13.8607,13.46,13.0425,12.5194,11.9962,11.4705,10.904,10.377,9.879,9.2725,8.7753,8.3156,7.8016,7.3939,7.0097,6.5015,6.0585,5.6744,5.4269,5.256,5.0206,4.4775,3.9272,3.3115,2.5711,1.7327,0.8703,-0.0344,-1.055,-2.0981,-3.1336,-4.0708,-4.8764,-5.4724,-5.866,-6.1614,-6.3475,-6.624,-6.9186,-7.2276,-7.8533,-8.4713,-9.014,-9.6788,-10.3507,-11.0203,-11.5677,-12.1549,-12.7718,-13.5128,-14.1519,-14.6787,-14.8616,-15.008,-15.1393,-15.4328,-15.7109,-16.0044,-16.3496,-16.6617,-16.9298,-17.1439,-17.3164,-17.475,-17.6456,-17.7278,-17.7478,-17.8829,-17.9248,-17.9326,-17.856,-17.8072,-17.7634,-17.6391,-17.5607,-17.4893,17.5129,17.755,17.8847,17.7384,17.7569,17.7944,17.7645,17.7641,17.7705,17.7913,17.7819,17.8234,17.8914,17.8544,17.8402,17.8726,17.7747,17.6835,17.6766,17.5315,17.3698,17.1879,17.0417,16.9187,16.8032,16.6814,16.5749,16.4772,16.3655,16.3208,16.3371,16.2078,16.1545,16.1394,15.8799,15.6129,15.3463,14.9239,14.5245,14.1511,13.6767,13.2568,12.8061,12.24,11.6691,11.11,10.5271,9.9905,9.4506,8.8545,8.4001,7.99,7.4716,7.0709,6.6754,6.0981,5.6814,5.352,5.0529,4.8253,4.5608,4.1196,3.494,2.7614,1.908,0.9957,0.0599,-0.9112,-1.8733,-2.8288,-3.7494,-4.5609,-5.2627,-5.7843,-6.1406,-6.4177,-6.6242,-6.9515,-7.2832,-7.597,-8.2569,-8.8875,-9.4138,-10.1383,-10.8528,-11.5062,-12.1447,-12.8288,-13.5587,-14.3203,-14.8427,-15.0738,-15.3876,-15.5936,-15.665,-15.8227,-16.0309,-16.2796,-16.6247,-16.9122,-17.13,-17.373,-17.5593,-17.7271,-17.9103,-18.0005,-18.0441,-18.1168,-18.1555,-18.1505,-18.0731,-18.0182,-17.9683,-17.8659,-17.7783,-17.6965,17.6406,17.7636,17.8605,17.8605,17.8347,17.8048,17.8048,17.8247,17.8635,17.8782,17.873,17.9015,18.0303,17.8873,17.8368,17.9394,17.8955,17.8282,17.7518,17.5998,17.4701,17.3649,17.2726,17.1495,16.9725,16.7835,16.6462,16.5617,16.4429,16.3371,16.2606,16.2606,16.1615,15.9713,15.7732,15.5445,15.2626,14.8406,14.4587,14.1108,13.612,13.1478,12.6963,12.0392,11.4088,10.7991,10.1853,9.5903,8.9984,8.3949,7.9394,7.5484,7.1504,6.651,6.1351,5.7386,5.4054,5.0815,4.6981,4.2092,3.7631,3.6489,3.048,2.2114,1.1238,0.2142,-0.7218,-1.835,-2.6826,-3.4481,-4.2085,-4.9521,-5.5514,-5.8476,-6.2512,-6.6234,-6.88,-7.2043,-7.5977,-8.0988,-8.6529,-9.2484,-9.8998,-10.6269,-11.345,-12.0054,-12.7605,-13.6176,-14.594,-15.0775,-15.4107,-15.5799,-15.8261,-16.0815,-16.3082,-16.2632,-16.3463,-16.6032,-16.9532,-17.1675,-17.2677,-17.6438,-17.8544,-17.9563,-18.1505,-18.2849,-18.3649,-18.2694,-18.2332,-18.228,-18.2003,-18.1422,-18.0667,-18.1206,-18.0305,-17.8621,17.7945,17.9597,18.068,18.0009,18.025,18.0593,18.0386,18.0797,18.1118,18.1216,18.1118,18.1118,18.0988,18.0629,18.0227,18.01,17.9642,17.9039,17.8526,17.7455,17.6618,17.5766,17.3375,17.1293,16.9449,16.8382,16.7383,16.6462,16.5412,16.5119,16.5425,16.3585,16.2366,16.1759,15.8487,15.5364,15.1938,14.7219,14.3099,13.9132,13.3375,12.8299,12.3387,11.6486,11.0507,10.4861,9.8064,9.2344,8.7012,8.1255,7.6793,7.2665,6.659,6.1842,5.7674,5.4151,5.0974,4.7704,4.3263,3.8485,3.4126,3.1484,2.3236,1.3114,0.3303,-0.7238,-1.7401,-2.603,-3.3844,-4.0862,-4.6771,-5.3204,-5.8916,-6.2876,-6.6562,-7.0217,-7.3943,-7.7252,-8.1088,-8.5882,-9.1982,-9.8162,-10.3907,-11.1228,-11.8717,-12.6079,-13.6711,-14.5381,-15.1385,-15.535,-15.8165,-16.0185,-16.239,-16.4628,-16.6692,-16.5353,-16.6032,-16.8373,-17.1418,-17.355,-17.5219,-17.7505,-17.9543,-18.1172,-18.2272,-18.3336,-18.4148,-18.4612,-18.4573,-18.4452,-18.4391,-18.3802,-18.2825,-18.225,-18.1412,-18.0181,17.9104,18.0612,18.1813,18.1438,18.1693,18.1941,18.2136,18.2001,18.2008,18.226,18.2109,18.1958,18.1958,18.1854,18.1464,18.1276,18.045,17.9699,17.9199,17.8441,17.7528,17.6541,17.4775,17.2844,17.0533,16.9611,16.8603,16.7517,16.6786,16.6333,16.6249,16.433,16.288,16.1738,15.8012,15.4364,15.0635,14.5779,14.1368,13.7191,13.1215,12.5701,12.0279,11.3538,10.7126,10.1271,9.5073,8.9341,8.3823,7.8394,7.3111,6.7617,6.1828,5.7765,5.4399,5.0674,4.7407,4.3216,3.5126,2.9842,2.4818,1.7533,1.2069,0.546,-0.6371,-1.6253,-2.5204,-3.3314,-4.013,-4.6037,-5.092,-5.6873,-6.2187,-6.5844,-7.0096,-7.4226,-7.7998,-8.215,-8.6529,-9.1295,-9.7619,-10.3775,-10.9443,-11.6713,-12.531,-13.5405,-14.5031,-15.2185,-15.6159,-15.9293,-16.1883,-16.3839,-16.5796,-16.772,-16.9402,-16.9312,-16.9918,-17.1238,-17.3675,-17.5658,-17.7179,-17.9314,-18.1206,-18.2785,-18.3879,-18.51,-18.6244,-18.6167,-18.6181,-18.6426,-18.6052,-18.4995,-18.3782,-18.342,-18.2047,-18.0279,18.0036,18.1018,18.2074,18.2975,18.2866,18.2677,18.3541,18.248,18.1941,18.2832,18.2198,18.2092,18.3134,18.2613,18.2385,18.2603,18.1291,18.0272,17.9688,17.8936,17.7801,17.6372,17.6617,17.5309,17.23,17.1301,17.0063,16.8571,16.8237,16.7246,16.577,16.4848,16.3015,16.0281,15.6619,15.2968,14.9396,14.4258,13.9631,13.531,12.9341,12.3387,11.7381,11.102,10.4542,9.8089,9.2769,8.6979,8.0914,7.5362,6.8501,6.1684,5.7525,5.4246,5.1206,4.6866,4.2868,3.7076,2.443,1.792,1.1513,-0.1803,-0.1905,-0.2504,-1.6844,-2.4804,-3.1597,-4.0063,-4.5685,-5.0379,-5.4864,-6.0489,-6.5393,-6.8182,-7.3469,-7.8378,-8.1774,-8.6871,-9.2142,-9.7193,-10.34,-10.9464,-11.5377,-12.3217,-13.3238,-14.6079,-15.2306,-15.6947,-16.0462,-16.3132,-16.5349,-16.7106,-16.8721,-17.0334,-17.1793,-17.3553,-17.4394,-17.4468,-17.6303,-17.7754,-17.8599,-18.1412,-18.3089,-18.4158,-18.5987,-18.7595,-18.8906,-18.7518,-18.7287,-18.776,-18.6777,-18.5399,-18.3944,-18.4357,-18.2516,-17.9601,18.1826,18.2519,18.3135,18.4033,18.4434,18.4857,18.4932,18.5158,18.5337,18.5529,18.5379,18.5083,18.4671,18.4129,18.3521,18.2991,18.1767,18.0852,18.045,17.9699,17.887,17.8129,17.723,17.5772,17.3852,17.2383,17.0986,16.9417,16.8603,16.7998,16.7814,16.566,16.352,16.1403,15.7126,15.318,14.932,14.3393,13.8397,13.3706,12.7054,12.0886,11.5118,10.8316,10.2584,9.7397,9.1136,8.5653,8.0001,7.1017,6.4708,5.9917,5.5785,5.1391,4.6806,4.1377,3.4135,2.6174,1.8052,0.9654,0.0279,-1.1566,-1.6115,-1.8795,-2.3095,-3.1289,-3.9494,-4.4823,-4.9956,-5.4769,-5.9114,-6.4247,-6.9337,-7.3801,-7.8208,-8.288,-8.8084,-9.1872,-9.6562,-10.3269,-10.8686,-11.4502,-12.163,-13.3345,-14.3424,-14.9807,-15.6055,-16.1013,-16.4527,-16.7202,-16.9573,-17.1554,-17.2709,-17.3922,-17.5001,-17.5297,-17.5612,-17.5928,-17.7767,-17.9222,-18.0143,-18.2209,-18.3585,-18.4584,-18.6569,-18.7344,-18.7656,-18.8108,-18.781,-18.7125,-18.697,-18.5743,-18.4132,-18.4286,-18.2598,-17.999,18.2994,18.3542,18.4014,18.491,18.5052,18.5334,18.5709,18.5759,18.595,18.5912,18.5912,18.5837,18.5498,18.5158,18.4614,18.3673,18.2408,18.1635,18.1795,18.0667,17.9928,17.9811,17.8606,17.7077,17.5389,17.399,17.2351,17.0264,16.9429,16.8517,16.7671,16.5057,16.2686,16.0415,15.591,15.2032,14.831,14.2452,13.7291,13.2301,12.5714,11.9316,11.2968,10.6515,10.0482,9.4833,8.9197,8.2151,7.4295,6.6327,6.0891,5.6428,5.1166,4.6062,4.0522,3.2669,2.5284,1.7045,0.489,-0.3045,-1.085,-2.2968,-2.8813,-3.1788,-3.2306,-3.7964,-4.4386,-4.9045,-5.3723,-5.8374,-6.309,-6.8116,-7.3094,-7.7676,-8.2463,-8.7417,-9.2251,-9.6515,-10.1643,-10.8113,-11.3768,-12.1113,-13.0928,-14.1519,-14.9491,-15.3821,-15.9168,-16.406,-16.8038,-16.987,-17.2092,-17.5008,-17.5526,-17.6123,-17.7123,-17.7248,-17.7563,-17.79,-17.8683,-17.9682,-18.0985,-18.2905,-18.3979,-18.4593,-18.6434,-18.728,-18.7586,-18.774,-18.7663,-18.7352,-18.7126,-18.5742,-18.4127,-18.4046,-18.2046,-17.8817,18.4059,18.4462,18.4936,18.5832,18.5781,18.5875,18.6624,18.634,18.6127,18.6244,18.6244,18.6169,18.6439,18.6251,18.557,18.4297,18.3169,18.2559,18.2888,18.146,18.0743,18.1186,18.0057,17.861,17.6692,17.5673,17.3957,17.1418,17.0417,16.9044,16.7076,16.4464,16.1643,15.8603,15.432,15.0423,14.6682,14.1273,13.6023,13.0704,12.4493,11.7794,11.0902,10.4856,9.8347,9.1914,8.7193,7.8328,6.8038,6.2143,5.7198,5.2253,4.5618,3.9547,3.292,2.289,1.5482,0.6971,-0.9377,-1.6443,-2.1884,-3.3195,-3.8567,-4.1344,-4.1962,-4.4537,-4.8227,-5.3087,-5.7559,-6.2043,-6.6978,-7.2042,-7.6875,-8.1109,-8.6623,-9.1811,-9.5942,-10.1232,-10.6783,-11.2515,-11.9844,-12.8889,-14.0361,-14.7718,-15.3647,-15.7673,-16.2264,-16.6708,-17.1073,-17.2224,-17.4139,-17.7518,-17.7496,-17.7706,-17.8163,-17.8825,-17.9192,-17.9459,-17.9123,-17.9746,-18.1434,-18.336,-18.4206,-18.4283,-18.6202,-18.7352,-18.7732,-18.7119,-18.7038,-18.7422,-18.6732,-18.519,-18.3418,-18.2782,-18.0298,-17.6971,18.4935,18.5512,18.5958,18.6776,18.7966,18.8795,18.8893,18.9195,18.9338,18.9699,18.9459,18.9234,18.8797,18.7718,18.6173,18.4373,18.3948,18.3674,18.2906,18.2009,18.1352,18.1186,18.06,17.9223,17.6846,17.6903,17.5726,17.3187,17.1572,16.989,16.7998,16.5386,16.195,15.7546,15.3543,14.9263,14.4921,13.9225,13.3843,12.8498,12.167,11.5291,10.897,10.2182,9.6295,9.0844,8.5398,7.6745,6.671,6.0,5.4134,4.8347,4.1176,3.2814,2.3842,1.4525,0.318,-0.8293,-1.7379,-2.5631,-3.2945,-3.8024,-4.1737,-4.5152,-4.8795,-5.0746,-5.2957,-5.7156,-6.1873,-6.6564,-7.0906,-7.5931,-8.0963,-8.5703,-9.0827,-9.5996,-10.1086,-10.5999,-11.1371,-11.7681,-12.8774,-13.8481,-14.5115,-15.1667,-15.7129,-16.1235,-16.5418,-16.9467,-17.3483,-17.4733,-17.6275,-17.8435,-17.8697,-17.8583,-17.8064,-17.863,-17.8918,-17.8918,-17.9116,-17.9928,-18.1346,-18.2875,-18.3716,-18.3869,-18.6655,-18.734,-18.6469,-18.708,-18.6383,-18.4975,-18.472,-18.3486,-18.1643,-17.9254,-17.6925,-17.4672,18.5799,18.6318,18.6897,18.7685,18.8395,18.888,18.9191,18.9444,18.9644,19.0163,18.9966,18.9713,18.9323,18.7829,18.674,18.62,18.4902,18.4407,18.477,18.3286,18.2648,18.3067,18.1893,18.068,17.9606,17.8126,17.6496,17.4957,17.2803,17.0505,16.8075,16.4618,16.0569,15.6082,15.1857,14.7718,14.3286,13.8003,13.2608,12.6797,12.0141,11.3489,10.6905,10.008,9.3754,8.7264,7.8348,7.0036,6.2362,5.6171,4.962,4.259,3.4175,2.4981,1.4957,0.3382,-0.7257,-1.7076,-2.5519,-3.2307,-3.7785,-4.1402,-4.4842,-4.8378,-5.2386,-5.5313,-5.7973,-6.0486,-6.4973,-6.9728,-7.3835,-7.9207,-8.4465,-8.8895,-9.4198,-9.9359,-10.4001,-10.958,-11.6781,-12.6744,-13.5508,-14.2957,-14.8369,-15.465,-15.9981,-16.3584,-16.7571,-17.1502,-17.5208,-17.6287,-17.7683,-17.9871,-17.9905,-17.9815,-17.9447,-17.9558,-17.9786,-17.9877,-18.041,-18.0971,-18.1703,-18.2925,-18.3851,-18.4472,-18.6332,-18.6545,-18.6055,-18.6437,-18.5648,-18.4324,-18.4123,-18.2471,-17.9981,-17.7187,-17.5651,-17.4644]},{"header":{"parameterUnit":"m.s-1","parameterCategory":1,"la1":30.6,"la2":28.766,"lo1":-90.7593,"lo2":-88.6598,"dy":0.0162,"dx":0.0183,"nx":116,"ny":114,"refTime":"2023-10-12T00:00:00:Z","depth":0,"parameterNumber":3,"parameterNumberName":"V-component_of_WINDS"},"data":[0.0,0.0,0.0,0.0,0.0,0.0,0.0,0.0,0.0,0.0,0.0,0.0,0.0,0.0,0.0,0.0,0.0,0.0,0.0,0.0,0.0,0.0,0.0,0.0,0.0,0.0,0.0,0.0,0.0,0.0,0.0,0.0,0.0,0.0,0.0,0.0,0.0,0.0,0.0,0.0,0.0,0.0,0.0,0.0,0.0,0.0,0.0,0.0,0.0,0.0,0.0,0.0,0.0,0.0,0.0,0.0,0.0,0.0,0.0,0.0,0.0,0.0,0.0,0.0,0.0,0.0,0.0,0.0,0.0,0.0,0.0,0.0,0.0,0.0,0.0,0.0,0.0,0.0,0.0,0.0,0.0,0.0,0.0,0.0,0.0,0.0,0.0,0.0,0.0,0.0,0.0,0.0,0.0,0.0,0.0,0.0,0.0,0.0,0.0,0.0,0.0,0.0,0.0,0.0,0.0,0.0,0.0,0.0,0.0,0.0,0.0,0.0,0.0,0.0,0.0,0.0,0.0,0.0,0.0,0.0,0.0,0.0,0.0,0.0,0.0,0.0,0.0,0.0,0.0,0.0,0.0,0.0,0.0,0.0,0.0,0.0,0.0,0.0,0.0,0.0,0.0,0.0,0.0,0.0,0.0,0.0,0.0,0.0,0.0,0.0,0.0,0.0,0.0,0.0,0.0,0.0,0.0,0.0,0.0,0.0,0.0,0.0,0.0,0.0,0.0,0.0,0.0,0.0,0.0,0.0,0.0,0.0,0.0,0.0,0.0,0.0,0.0,0.0,0.0,0.0,0.0,0.0,0.0,0.0,0.0,0.0,0.0,0.0,0.0,0.0,0.0,0.0,0.0,0.0,0.0,0.0,0.0,0.0,0.0,0.0,0.0,0.0,0.0,0.0,0.0,0.0,0.0,0.0,0.0,0.0,0.0,0.0,0.0,0.0,0.0,0.0,0.0,0.0,0.0,0.0,0.0,0.0,0.0,0.0,0.0,0.0,0.0,0.0,0.0,0.0,0.0,0.0,0.0,0.0,0.0,0.0,0.0,0.0,0.0,0.0,0.0,0.0,0.0,0.0,0.0,0.0,0.0,0.0,0.0,0.0,0.0,0.0,0.0,0.0,0.0,0.0,0.0,0.0,0.0,0.0,0.0,0.0,0.0,0.0,0.0,0.0,0.0,0.0,0.0,0.0,0.0,0.0,0.0,0.0,0.0,0.0,0.0,0.0,0.0,0.0,0.0,0.0,0.0,0.0,0.0,0.0,0.0,0.0,0.0,0.0,0.0,0.0,0.0,0.0,0.0,0.0,0.0,0.0,0.0,0.0,0.0,0.0,0.0,0.0,0.0,0.0,0.0,0.0,0.0,0.0,0.0,0.0,0.0,0.0,0.0,0.0,0.0,0.0,0.0,0.0,0.0,0.0,0.0,0.0,0.0,0.0,0.0,0.0,0.0,0.0,0.0,0.0,0.0,0.0,0.0,0.0,0.0,0.0,0.0,0.0,0.0,0.0,0.0,0.0,0.0,0.0,0.0,0.0,0.0,0.0,0.0,0.0,0.0,0.0,0.0,0.0,0.0,0.0,0.0,0.0,0.0,0.0,0.0,0.0,0.0,0.0,0.0,0.0,0.0,0.0,0.0,0.0,0.0,0.0,0.0,0.0,0.0,0.0,0.0,0.0,0.0,0.0,0.0,0.0,0.0,0.0,0.0,0.0,0.0,0.0,0.0,0.0,0.0,0.0,0.0,0.0,0.0,0.0,0.0,0.0,0.0,0.0,0.0,0.0,0.0,0.0,0.0,0.0,0.0,0.0,0.0,0.0,0.0,0.0,0.0,0.0,0.0,0.0,0.0,0.0,0.0,0.0,0.0,0.0,0.0,0.0,0.0,0.0,0.0,0.0,0.0,0.0,0.0,0.0,0.0,0.0,0.0,0.0,0.0,0.0,0.0,0.0,0.0,0.0,0.0,0.0,0.0,0.0,0.0,0.0,0.0,0.0,0.0,0.0,0.0,0.0,0.0,0.0,0.0,0.0,0.0,0.0,0.0,0.0,0.0,0.0,0.0,0.0,0.0,0.0,0.0,0.0,0.0,0.0,0.0,0.0,0.0,0.0,0.0,0.0,0.0,0.0,0.0,0.0,0.0,0.0,0.0,0.0,0.0,0.0,0.0,0.0,0.0,0.0,0.0,0.0,0.0,0.0,0.0,0.0,0.0,0.0,0.0,0.0,0.0,0.0,0.0,0.0,0.0,0.0,0.0,0.0,0.0,0.0,0.0,0.0,0.0,0.0,0.0,0.0,0.0,0.0,0.0,0.0,0.0,0.0,0.0,0.0,0.0,0.0,0.0,0.0,0.0,0.0,0.0,0.0,0.0,0.0,0.0,0.0,0.0,0.0,0.0,0.0,0.0,0.0,0.0,0.0,0.0,0.0,0.0,0.0,0.0,0.0,0.0,0.0,0.0,0.0,0.0,0.0,0.0,0.0,0.0,0.0,0.0,0.0,0.0,0.0,0.0,0.0,0.0,0.0,0.0,0.0,0.0,0.0,0.0,0.0,0.0,0.0,0.0,0.0,0.0,0.0,0.0,0.0,0.0,0.0,0.0,0.0,0.0,0.0,0.0,0.0,0.0,0.0,0.0,0.0,0.0,0.0,0.0,0.0,0.0,0.0,0.0,0.0,0.0,0.0,0.0,0.0,0.0,0.0,0.0,0.0,0.0,0.0,0.0,0.0,0.0,0.0,0.0,0.0,0.0,0.0,0.0,0.0,0.0,0.0,0.0,0.0,0.0,0.0,0.0,0.0,0.0,0.0,0.0,0.0,0.0,0.0,0.0,0.0,0.0,0.0,0.0,0.0,0.0,0.0,0.0,0.0,0.0,0.0,0.0,0.0,0.0,0.0,0.0,0.0,0.0,0.0,0.0,0.0,0.0,0.0,0.0,0.0,0.0,0.0,0.0,0.0,0.0,0.0,0.0,0.0,0.0,0.0,0.0,0.0,0.0,0.0,0.0,0.0,0.0,0.0,0.0,0.0,0.0,0.0,0.0,0.0,0.0,0.0,0.0,0.0,0.0,0.0,0.0,0.0,0.0,0.0,0.0,0.0,0.0,0.0,0.0,0.0,0.0,0.0,0.0,0.0,0.0,0.0,0.0,0.0,0.0,0.0,0.0,0.0,0.0,0.0,0.0,0.0,0.0,0.0,0.0,0.0,0.0,0.0,0.0,0.0,0.0,0.0,0.0,0.0,0.0,0.0,0.0,0.0,0.0,0.0,0.0,0.0,0.0,0.0,0.0,0.0,0.0,0.0,0.0,0.0,0.0,0.0,0.0,0.0,0.0,0.0,0.0,0.0,0.0,0.0,0.0,0.0,0.0,0.0,0.0,0.0,0.0,0.0,0.0,0.0,0.0,0.0,0.0,0.0,0.0,0.0,0.0,0.0,0.0,0.0,0.0,0.0,0.0,0.0,0.0,0.0,0.0,0.0,0.0,0.0,0.0,0.0,0.0,0.0,0.0,0.0,0.0,0.0,0.0,0.0,0.0,0.0,0.0,0.0,0.0,0.0,0.0,0.0,0.0,0.0,0.0,0.0,0.0,0.0,0.0,0.0,0.0,0.0,0.0,0.0,0.0,0.0,0.0,0.0,0.0,0.0,0.0,0.0,0.0,0.0,0.0,0.0,0.0,0.0,0.0,0.0,0.0,0.0,0.0,0.0,0.0,0.0,0.0,0.0,0.0,0.0,0.0,0.0,0.0,0.0,0.0,0.0,0.0,0.0,0.0,0.0,0.0,0.0,0.0,0.0,0.0,0.0,0.0,0.0,0.0,0.0,0.0,0.0,0.0,0.0,0.0,0.0,0.0,0.0,0.0,0.0,0.0,0.0,0.0,0.0,0.0,0.0,0.0,0.0,0.0,0.0,0.0,0.0,0.0,0.0,0.0,0.0,0.0,0.0,0.0,0.0,0.0,0.0,0.0,0.0,0.0,0.0,0.0,0.0,0.0,0.0,0.0,0.0,0.0,0.0,0.0,0.0,0.0,0.0,0.0,0.0,0.0,0.0,0.0,0.0,0.0,0.0,0.0,0.0,0.0,0.0,0.0,0.0,0.0,0.0,0.0,0.0,0.0,0.0,0.0,0.0,0.0,0.0,0.0,0.0,0.0,0.0,0.0,0.0,0.0,0.0,0.0,0.0,0.0,0.0,0.0,0.0,0.0,0.0,0.0,0.0,0.0,0.0,0.0,0.0,0.0,0.0,0.0,0.0,0.0,0.0,0.0,0.0,0.0,0.0,0.0,0.0,0.0,0.0,0.0,0.0,0.0,0.0,0.0,0.0,0.0,0.0,0.0,0.0,0.0,0.0,0.0,0.0,0.0,0.0,0.0,0.0,0.0,0.0,0.0,0.0,0.0,0.0,0.0,0.0,0.0,0.0,0.0,0.0,0.0,0.0,0.0,0.0,0.0,0.0,0.0,0.0,0.0,0.0,0.0,0.0,0.0,0.0,0.0,0.0,0.0,0.0,0.0,0.0,0.0,0.0,0.0,0.0,0.0,0.0,0.0,0.0,0.0,0.0,0.0,0.0,0.0,0.0,0.0,0.0,0.0,0.0,0.0,0.0,0.0,0.0,0.0,0.0,0.0,0.0,0.0,0.0,0.0,0.0,0.0,0.0,0.0,0.0,0.0,0.0,0.0,0.0,0.0,0.0,0.0,0.0,0.0,0.0,0.0,0.0,0.0,0.0,0.0,0.0,0.0,0.0,0.0,0.0,0.0,0.0,0.0,0.0,0.0,0.0,0.0,0.0,0.0,0.0,0.0,0.0,0.0,0.0,0.0,0.0,0.0,0.0,0.0,0.0,0.0,0.0,0.0,0.0,0.0,0.0,0.0,0.0,0.0,0.0,0.0,0.0,0.0,0.0,0.0,0.0,0.0,0.0,0.0,0.0,0.0,0.0,0.0,0.0,0.0,0.0,0.0,0.0,0.0,0.0,0.0,0.0,0.0,0.0,0.0,0.0,0.0,0.0,0.0,0.0,0.0,0.0,0.0,0.0,0.0,0.0,0.0,0.0,0.0,0.0,0.0,0.0,0.0,0.0,0.0,0.0,0.0,0.0,0.0,0.0,0.0,0.0,0.0,0.0,0.0,0.0,0.0,0.0,0.0,0.0,0.0,0.0,0.0,0.0,0.0,0.0,0.0,0.0,0.0,0.0,0.0,0.0,0.0,0.0,0.0,0.0,0.0,0.0,0.0,0.0,0.0,0.0,0.0,0.0,0.0,0.0,0.0,0.0,0.0,0.0,0.0,0.0,0.0,0.0,0.0,0.0,0.0,0.0,0.0,0.0,0.0,0.0,0.0,0.0,0.0,0.0,0.0,0.0,0.0,0.0,0.0,0.0,0.0,0.0,0.0,0.0,0.0,0.0,0.0,0.0,0.0,0.0,0.0,0.0,0.0,0.0,0.0,0.0,0.0,0.0,0.0,0.0,0.0,0.0,0.0,0.0,0.0,0.0,0.0,0.0,0.0,0.0,0.0,0.0,0.0,0.0,0.0,0.0,0.0,0.0,0.0,0.0,0.0,0.0,0.0,0.0,0.0,0.0,0.0,0.0,0.0,0.0,0.0,0.0,0.0,0.0,0.0,0.0,0.0,0.0,0.0,0.0,0.0,0.0,0.0,0.0,0.0,0.0,0.0,0.0,0.0,0.0,0.0,0.0,0.0,0.0,0.0,0.0,0.0,0.0,0.0,0.0,0.0,0.0,0.0,0.0,0.0,0.0,0.0,0.0,0.0,0.0,0.0,0.0,0.0,0.0,0.0,0.0,0.0,0.0,0.0,0.0,0.0,0.0,0.0,0.0,0.0,0.0,0.0,0.0,0.0,0.0,0.0,0.0,0.0,0.0,0.0,0.0,0.0,0.0,0.0,0.0,0.0,0.0,0.0,0.0,0.0,0.0,0.0,0.0,0.0,0.0,0.0,0.0,0.0,0.0,0.0,0.0,0.0,0.0,0.0,0.0,0.0,0.0,0.0,0.0,0.0,0.0,0.0,0.0,0.0,0.0,0.0,0.0,0.0,0.0,0.0,0.0,0.0,0.0,0.0,0.0,4.5954,4.2444,0.0,0.0,0.0,0.0,0.0,0.0,0.0,0.0,0.0,0.0,0.0,0.0,0.0,0.0,0.0,0.0,0.0,0.0,0.0,0.0,0.0,0.0,0.0,0.0,0.0,0.0,0.0,0.0,0.0,0.0,0.0,0.0,0.0,0.0,0.0,0.0,0.0,0.0,2.0173,1.9171,1.8622,1.8272,1.7636,1.6498,0.0,0.0,0.0,0.0,0.0,0.0,0.0,0.0,0.0,0.0,0.0,0.0,0.0,0.0,0.0,0.0,0.0,0.0,0.0,0.0,0.0,0.0,0.0,0.0,0.0,0.0,0.0,0.0,0.0,0.0,0.0,0.0,0.0,0.0,0.0,0.0,0.0,0.0,0.0,0.0,0.0,0.0,0.0,0.0,0.0,0.0,0.0,0.0,0.0,0.0,0.0,0.0,0.0,0.0,0.0,0.0,0.0,0.0,0.0,0.0,0.0,0.0,0.0,0.0,0.0,0.0,0.0,0.0,0.0,0.0,4.896,4.5597,0.0,0.0,0.0,0.0,0.0,0.0,0.0,0.0,0.0,0.0,0.0,0.0,0.0,0.0,0.0,0.0,0.0,0.0,0.0,0.0,0.0,0.0,0.0,0.0,4.339,4.271,4.0942,0.0,0.0,0.0,0.0,0.0,0.0,0.0,0.0,2.2572,2.1572,2.2411,2.0658,1.9604,1.9572,2.0079,1.9686,1.8207,1.7503,0.0,0.0,0.0,0.0,0.0,0.0,0.0,0.0,0.0,0.0,0.0,0.0,0.0,0.0,0.0,0.0,0.0,0.0,0.0,0.0,0.0,0.0,0.0,0.0,0.0,0.0,0.0,0.0,0.0,0.0,0.0,0.0,0.0,0.0,0.0,0.0,0.0,0.0,0.0,0.0,0.0,0.0,0.0,0.0,0.0,0.0,0.0,0.0,0.0,0.0,0.0,0.0,0.0,0.0,0.0,0.0,0.0,0.0,0.0,0.0,0.0,0.0,0.0,3.4595,3.8667,4.3456,4.7643,5.1222,5.3774,5.1432,4.858,4.5212,3.9576,0.0,0.0,0.0,0.0,0.0,0.0,0.0,0.0,0.0,0.0,0.0,0.0,0.0,0.0,0.0,0.0,0.0,0.0,0.0,0.0,0.0,4.4756,4.437,4.4169,4.2692,4.1017,0.0,0.0,0.0,0.0,0.0,0.0,2.3228,2.1475,2.0547,2.0558,2.1521,2.2097,2.2182,2.2403,2.2281,2.1954,1.9864,1.9675,2.0791,0.0,0.0,0.0,0.0,0.0,0.0,0.0,0.0,0.0,0.0,0.0,0.0,0.0,0.0,0.0,0.0,0.0,0.0,0.0,0.0,0.0,0.0,0.0,0.0,0.0,0.0,0.0,0.0,0.0,0.0,0.0,0.0,0.0,0.0,0.0,0.0,0.0,0.0,0.0,0.0,0.0,2.6782,2.5672,0.0,0.0,0.0,0.0,0.0,0.0,0.0,0.0,0.0,0.0,0.0,0.0,0.0,3.0849,3.37,3.6296,3.7819,3.8086,4.2587,4.5877,4.8298,5.1419,5.3653,5.5129,5.3583,0.0,4.5879,4.131,0.0,0.0,0.0,0.0,0.0,0.0,0.0,0.0,0.0,0.0,0.0,0.0,0.0,0.0,0.0,0.0,0.0,0.0,0.0,0.0,0.0,4.7108,4.7116,4.7277,4.6448,4.424,4.0061,0.0,0.0,0.0,0.0,2.4399,2.283,2.1608,2.152,2.2604,2.4573,2.5064,2.4305,2.4446,2.4421,2.4084,2.2444,2.1589,2.099,1.8998,0.0,0.0,0.0,0.0,0.0,0.0,0.0,0.0,0.0,0.0,0.0,0.0,0.0,0.0,0.0,0.0,0.0,0.0,0.0,0.0,0.0,0.0,0.0,0.0,0.0,0.0,0.0,0.0,0.0,0.0,0.0,0.0,0.0,0.0,0.0,0.0,0.0,0.0,0.0,3.2155,3.0998,2.9144,2.7446,2.5066,0.0,0.0,0.0,0.0,0.0,0.0,0.0,0.0,0.0,2.4551,2.9962,3.4654,3.8597,4.1321,4.3266,4.4693,4.696,4.9472,5.1968,5.3441,5.4485,5.5439,5.3984,5.132,4.7683,4.3101,3.8668,3.445,0.0,0.0,0.0,0.0,2.8243,2.8272,0.0,0.0,0.0,0.0,0.0,0.0,0.0,0.0,0.0,0.0,0.0,0.0,4.9482,5.0231,5.0588,5.0785,4.9795,4.6947,4.198,3.8867,0.0,3.0156,2.6224,2.3599,2.2658,2.2503,2.3406,2.5378,2.7271,2.7496,2.6521,2.6408,2.6084,2.5376,2.4608,2.332,2.1609,1.9807,1.8743,1.8066,0.0,0.0,0.0,0.0,0.0,0.0,0.0,0.0,0.0,0.0,0.0,0.0,0.0,0.0,0.0,0.0,0.0,0.0,0.0,0.0,0.0,0.0,0.0,0.0,0.0,0.0,0.0,0.0,0.0,0.0,0.0,0.0,0.0,0.0,0.0,0.0,0.0,3.6062,3.4802,3.2421,3.1177,2.9214,0.0,0.0,0.0,0.0,0.0,0.0,1.7939,2.0549,2.4044,2.8133,3.3884,3.9112,4.3463,4.5994,4.8213,5.005,5.0508,5.2213,5.4687,5.4894,5.5205,5.5759,5.4036,5.2148,4.94,4.4714,4.0825,3.7369,3.4852,3.2675,3.1372,3.2008,3.1811,3.1571,0.0,0.0,0.0,0.0,0.0,0.0,0.0,0.0,0.0,0.0,0.0,5.0715,5.2869,5.3944,5.4378,5.4467,5.1401,4.8056,4.4947,3.828,3.3296,3.1058,2.6125,2.3161,2.2375,2.4318,2.6056,2.7902,2.8645,2.9104,2.8854,2.8192,2.727,2.6525,2.5703,2.5114,2.4485,2.1295,2.0549,2.0955,1.8257,0.0,0.0,0.0,0.0,0.0,0.0,0.0,0.0,0.0,0.0,0.0,0.0,0.0,0.0,0.0,0.0,0.0,0.0,0.0,0.0,0.0,0.0,0.0,0.0,0.0,0.0,0.0,0.0,0.0,0.0,0.0,0.0,0.0,0.0,0.0,0.0,0.0,0.0,3.5353,3.5911,0.0,0.0,0.0,0.0,2.7991,2.7328,2.5227,2.1456,2.6441,3.0439,3.2602,3.8729,4.3812,4.7795,5.0214,5.2056,5.3383,5.4147,5.5223,5.6473,5.651,5.6329,5.5896,5.4237,5.2397,5.0767,4.6293,4.2844,3.9818,3.7794,3.6259,3.5176,3.4509,3.4055,3.3929,0.0,0.0,0.0,0.0,0.0,0.0,0.0,0.0,4.9382,4.8678,5.1995,5.491,5.6303,5.8172,5.9267,5.8788,5.6382,5.2391,4.6484,4.0457,3.5864,3.3071,2.77,2.5788,2.7536,2.795,2.9101,3.0773,3.0283,2.9482,2.8598,2.7165,2.6117,2.4943,2.4286,2.3475,2.2877,2.1718,2.0711,1.9801,1.7908,1.7116,0.0,0.0,0.0,0.0,0.0,0.0,0.0,0.0,0.0,0.0,0.0,0.0,0.0,0.0,0.0,0.0,0.0,0.0,0.0,0.0,0.0,0.0,0.0,0.0,0.0,0.0,0.0,0.0,0.0,0.0,0.0,0.0,0.0,0.0,0.0,0.0,0.0,4.1336,4.0251,0.0,3.465,3.6876,3.7957,3.6466,3.5617,3.4813,3.406,3.3945,3.5687,3.9362,4.4351,4.852,5.2152,5.3798,5.5109,5.6429,5.6478,5.7077,5.805,5.7378,5.7164,5.691,5.5032,5.3555,5.2358,4.9214,4.6221,4.349,4.1277,3.982,3.9143,3.851,3.7569,3.6791,0.0,0.0,0.0,0.0,0.0,0.0,0.0,0.0,5.0658,5.0638,5.5046,5.8539,6.0147,6.23,6.2957,6.158,5.8818,5.4569,4.8518,4.1891,3.716,3.4283,2.9356,2.8122,3.1184,3.105,3.1649,3.3098,3.1728,3.0143,2.8411,2.6948,2.5296,2.4007,2.3482,2.2678,2.1881,2.1723,2.0769,1.9331,1.8004,1.7009,1.5968,0.0,0.0,0.0,0.0,0.0,0.0,0.0,0.0,0.0,0.0,0.0,0.0,0.0,0.0,0.0,0.0,0.0,0.0,0.0,0.0,0.0,0.0,0.0,0.0,0.0,0.0,0.0,0.0,0.0,0.0,0.0,0.0,0.0,0.0,4.7068,4.7372,4.4747,4.5006,4.4009,4.1423,4.43,4.5913,4.5147,4.4463,4.4061,4.4254,4.274,4.3478,4.7144,4.9831,5.2818,5.6215,5.742,5.8482,5.9042,5.9098,5.9331,5.9867,5.9283,5.8866,5.8512,5.6642,5.5623,5.4478,5.222,5.0085,4.8107,4.4903,4.323,4.2474,4.1639,4.0558,3.9427,0.0,0.0,0.0,0.0,0.0,0.0,0.0,4.9541,5.154,5.3836,5.7957,6.1761,6.4231,6.5765,6.525,6.2735,5.8404,5.424,5.049,4.226,3.6788,3.4599,3.0891,3.0152,3.3052,3.3324,3.387,3.4778,3.2656,3.0676,2.8861,2.7346,2.5404,2.3606,2.3082,2.2522,2.2201,2.1562,2.0872,2.0,1.8724,1.7988,1.726,0.0,0.0,0.0,0.0,0.0,0.0,0.0,0.0,0.0,0.0,0.0,0.0,0.0,0.0,0.0,0.0,0.0,0.0,0.0,0.0,0.0,0.0,0.0,0.0,0.0,0.0,0.0,0.0,0.0,0.0,0.0,0.0,0.0,4.9816,5.0881,5.0083,4.5723,4.9986,5.2538,5.0469,5.2594,5.4026,5.3766,5.3247,5.2392,5.1005,5.2359,5.3967,5.5786,5.5713,5.7147,6.0051,6.1553,6.2197,6.1889,6.198,6.2264,6.2278,6.1838,6.1402,6.0568,5.9378,5.841,5.7139,5.5137,5.4233,5.3648,4.8836,4.6369,4.5292,4.4152,4.3035,4.1751,0.0,0.0,0.0,0.0,0.0,0.0,0.0,4.9346,5.1839,5.4199,5.9113,6.3265,6.5118,6.6499,6.6236,6.3509,5.8788,5.4051,4.9619,4.1595,3.5956,3.3854,3.4523,3.6107,3.8192,3.6798,3.5875,3.5984,3.3808,3.1156,2.8329,2.6509,2.4808,2.2995,2.2499,2.205,2.1917,2.2415,2.2096,2.1183,1.9637,1.8441,1.7212,0.0,0.0,0.0,0.0,0.0,0.0,0.0,0.0,0.0,0.0,0.0,0.0,0.0,0.0,0.0,0.0,0.0,0.0,0.0,0.0,0.0,0.0,0.0,0.0,0.0,0.0,0.0,0.0,0.0,0.0,0.0,5.5973,5.7585,5.4952,5.6261,5.7232,5.6542,5.8456,5.9775,5.9961,6.2027,6.2717,6.2049,6.0545,5.9137,5.7827,5.7838,5.9165,6.1551,6.2284,6.3669,6.5922,6.5536,6.5262,6.4919,6.4638,6.5049,6.5497,6.3819,6.3374,6.3824,6.1001,5.9631,5.9129,5.7103,5.5976,5.527,5.1636,4.9656,4.8823,4.7689,4.5834,4.3699,0.0,0.0,0.0,0.0,0.0,0.0,0.0,4.9004,5.1929,5.481,6.0087,6.4226,6.6019,6.6913,6.6085,6.2582,5.8269,5.3618,4.8516,4.136,3.7045,3.5904,3.7359,3.917,4.1051,3.9171,3.7377,3.6369,3.4093,3.1114,2.7451,2.6214,2.479,2.3207,2.2794,2.2703,2.3159,2.3504,2.3496,2.349,2.2385,2.0818,1.8803,1.6566,1.5492,1.4919,1.3739,1.4794,1.7221,1.9811,0.0,0.0,0.0,0.0,0.0,0.0,0.0,0.0,0.0,0.0,0.0,0.0,0.0,0.0,0.0,0.0,0.0,0.0,0.0,0.0,0.0,0.0,0.0,0.0,5.9563,6.2339,6.3284,6.3152,6.3092,6.42,6.4694,6.5857,6.767,6.787,6.7902,6.7305,6.5606,6.4407,6.3671,6.3253,6.3946,6.5669,6.7299,6.8398,6.9113,6.957,6.9121,6.8216,6.8178,6.7911,6.776,6.669,6.6014,6.6023,6.3599,6.213,6.1402,5.9699,5.8548,5.7548,0.0,0.0,0.0,0.0,4.9164,4.7642,0.0,0.0,0.0,0.0,0.0,0.0,0.0,4.8707,5.2264,5.5756,6.0708,6.4587,6.644,6.6925,6.5229,6.0696,5.7117,5.2812,4.7059,4.1948,3.9601,4.0001,3.9897,4.0586,4.2417,4.0431,3.8542,3.674,3.4173,3.1193,2.7298,2.6398,2.5264,2.4257,2.3912,2.442,2.5681,2.4812,2.5172,2.6139,2.6213,2.4289,2.14,1.9471,1.8934,1.9115,1.7315,1.7596,1.917,2.1483,0.0,0.0,0.0,0.0,0.0,0.0,0.0,0.0,0.0,0.0,0.0,0.0,0.0,0.0,0.0,0.0,0.0,0.0,0.0,0.0,0.0,0.0,0.0,0.0,6.2895,6.6861,7.2688,7.0634,6.8728,6.9138,6.9539,7.057,7.314,7.1812,7.042,7.0422,6.9281,6.8634,6.8596,6.8405,0.0,0.0,0.0,7.1289,7.137,7.3281,7.3518,7.1874,7.1522,7.0704,6.9775,6.9623,6.8669,6.7836,6.6474,6.5311,6.4114,6.216,6.1347,6.0496,5.7055,5.5049,5.4015,5.313,5.2699,5.2333,0.0,0.0,0.0,0.0,0.0,0.0,0.0,4.8815,5.2529,5.7266,6.0663,6.343,6.5284,6.4917,6.321,6.0039,5.6835,5.2199,4.6191,4.3889,4.3003,4.3073,4.2628,4.2864,4.3825,4.1325,3.9317,3.7825,3.4915,3.197,2.9585,2.7969,2.6842,2.6472,2.6117,2.633,2.7072,2.7469,2.7734,2.8168,2.9519,2.7643,2.4302,2.4488,2.4172,2.3502,2.3581,2.4566,2.6275,2.8287,3.0156,3.2139,3.5191,3.6352,0.0,0.0,0.0,0.0,0.0,0.0,0.0,0.0,0.0,0.0,0.0,0.0,0.0,0.0,0.0,0.0,0.0,0.0,0.0,6.7963,7.1152,7.395,7.5296,7.6159,7.5481,7.3401,7.3549,7.4182,7.4843,7.4268,7.3863,7.3579,7.3276,7.2494,7.1594,7.199,7.2106,7.2017,7.1901,7.2882,7.5256,7.6774,7.6814,7.5453,7.3696,0.0,7.316,7.0697,6.9851,7.0053,6.8064,6.6436,6.5493,6.4588,6.3941,6.3515,5.9927,5.7794,5.6817,5.6662,5.5986,5.5426,0.0,0.0,0.0,0.0,0.0,0.0,0.0,4.8102,5.1849,5.6165,5.8859,6.0769,6.183,6.0356,5.786,5.4315,5.0945,4.8141,4.6123,4.5758,4.5809,4.659,4.5843,4.546,4.5198,4.2756,4.0549,3.8632,3.6255,3.3591,3.0915,3.0115,2.9324,2.9042,2.9118,2.9402,3.0384,3.0981,3.1407,3.1942,3.3428,3.2725,3.091,3.0009,2.926,2.9013,2.9638,3.0296,3.1181,3.3216,3.4799,3.6573,3.8917,4.0125,4.0768,0.0,0.0,0.0,0.0,0.0,0.0,0.0,0.0,0.0,0.0,0.0,0.0,0.0,0.0,5.5515,6.0838,0.0,7.3055,7.4515,7.827,8.1008,8.0859,8.1679,8.079,7.6886,7.6736,7.7187,7.789,7.7129,7.6584,7.625,7.5871,7.5723,7.4922,7.5126,7.5126,7.4883,7.5351,7.6146,7.8092,7.9026,7.9026,7.8298,7.6924,7.5967,7.5338,7.3359,7.2342,7.1914,6.9593,6.7872,6.6804,6.6308,6.5963,6.5748,6.4862,6.3184,6.117,6.1155,6.0796,6.0175,0.0,0.0,0.0,0.0,0.0,0.0,0.0,4.7389,5.0719,5.4278,5.6066,5.7308,5.7297,5.4873,5.1898,4.8311,4.5812,4.5284,4.733,4.7931,4.8702,4.9527,4.8919,4.7546,4.6037,4.399,4.1661,3.9252,3.743,3.5366,3.2692,3.2457,3.2241,3.2648,3.2711,3.3361,3.4613,3.5139,3.5725,3.6364,3.7574,3.833,3.8544,3.6423,3.5087,3.4437,3.5162,3.5279,3.5469,3.7377,3.8827,4.0462,4.2692,4.4191,4.4933,4.5715,4.6816,0.0,0.0,0.0,0.0,0.0,0.0,0.0,0.0,4.7816,5.1157,5.5808,5.9273,6.3305,6.9593,7.6853,8.148,7.9739,8.3211,8.609,8.5742,8.5895,8.4372,8.0664,8.0015,8.0086,8.0352,7.958,7.8851,7.8381,7.8219,7.8283,7.7955,7.7587,7.7468,7.7805,7.88,7.961,8.0112,8.0645,8.0605,8.0861,7.9636,7.8422,7.7175,7.5736,7.4505,7.3276,7.0976,6.9276,6.8256,6.8095,6.8048,6.8434,6.9971,6.8931,6.6465,6.5635,6.5175,6.4631,0.0,0.0,0.0,0.0,0.0,0.0,0.0,0.0,4.9515,5.2809,5.2896,5.2534,5.2491,5.0067,4.7634,4.643,4.7132,4.8314,5.0438,5.1257,5.122,5.0535,4.9755,4.8337,4.6037,4.4308,4.2522,4.0161,3.8171,3.6989,3.5982,3.4955,3.5346,3.735,3.7344,3.7819,3.903,3.9843,4.0389,4.0853,4.2292,4.3622,4.4391,4.5055,4.248,3.8696,3.9762,3.9928,3.9979,4.1865,4.3186,4.4582,4.7255,4.8803,4.9797,5.0152,5.0116,5.0116,5.0972,5.1597,5.2272,5.2707,5.266,5.339,0.0,5.6953,5.8413,6.2821,6.8673,7.4841,8.0709,8.1644,8.1869,8.4278,8.5804,8.6393,8.6178,8.6027,8.6299,8.6327,8.3783,8.1601,8.0351,8.0446,8.0611,8.0175,8.0249,8.0222,7.9437,7.9437,7.9477,8.0142,8.0342,8.1211,8.2457,8.2407,8.2407,8.2416,8.0726,7.9509,7.8583,7.6452,7.51,7.4108,7.1424,7.0104,6.9879,7.0464,7.1267,7.2503,7.3105,7.3057,7.2401,6.9142,6.7483,6.7102,0.0,0.0,0.0,0.0,0.0,0.0,0.0,0.0,0.0,4.9244,4.87,4.7641,4.6784,4.3268,4.0709,4.0604,4.348,4.6667,4.9668,5.1816,5.2802,5.2659,5.1526,4.9668,4.7171,4.5973,4.4136,4.1638,4.1229,4.064,3.9822,3.974,4.0749,4.2443,4.261,4.3148,4.4027,4.5592,4.6127,4.5858,4.8398,4.9106,4.9319,5.0375,4.8591,4.5735,4.4548,4.3675,0.0,4.4882,4.6473,4.8175,5.1058,5.2112,5.2735,5.3758,5.4193,5.4736,5.6221,5.7018,5.7286,5.7663,5.7636,5.8119,6.0981,6.2742,6.5609,7.1331,7.5019,7.8665,8.3002,8.4878,8.6163,8.8058,8.9438,9.0089,8.907,8.8963,8.8649,8.7804,8.5947,8.4292,8.4071,8.363,8.2845,8.2446,8.2624,8.2396,8.1776,8.2152,8.2366,8.2212,8.329,8.3872,8.3789,8.429,8.4207,8.3207,8.2008,8.0943,8.0334,7.7536,7.506,7.3157,7.1571,7.126,7.1825,7.2283,7.332,7.4916,7.5696,7.5858,7.4994,7.2459,7.0982,7.0532,0.0,0.0,0.0,0.0,0.0,0.0,0.0,0.0,0.0,0.0,4.4205,4.2312,4.0153,3.7062,3.531,3.6026,4.0267,4.4544,4.7854,5.145,5.3381,5.35,5.2044,5.0498,4.7939,4.7248,4.5336,4.311,4.3917,4.382,4.3164,4.4108,4.5114,4.6732,4.7215,4.8263,4.9134,5.1084,5.161,5.1727,5.4057,5.4371,5.3741,5.4428,5.2996,5.0538,4.793,4.6397,4.5724,4.6772,4.8244,5.0379,5.2776,5.4028,5.4688,5.6324,5.751,5.8537,6.0004,6.0561,6.1039,6.2351,6.3367,6.4263,6.618,6.8813,7.2498,7.814,8.0171,8.2139,8.5632,8.8503,9.0376,9.1453,9.291,9.3497,9.178,9.0964,9.0086,8.8552,8.7125,8.6718,8.7318,8.5742,8.4724,8.4643,8.462,8.4184,8.3774,8.4194,8.458,8.4169,8.5086,8.5589,8.5128,8.5128,8.5003,8.4207,8.292,8.2139,8.1603,7.7899,7.5019,7.2831,7.2364,7.2456,7.3373,7.4191,7.5451,7.6843,7.7881,7.784,7.7275,7.59,7.4615,7.3509,0.0,0.0,0.0,0.0,0.0,0.0,0.0,0.0,0.0,0.0,0.0,0.0,0.0,3.2561,3.3094,3.4382,3.8913,4.2791,4.6205,5.0373,5.254,5.2284,5.1732,5.0569,4.8818,4.765,4.6329,4.4844,4.5202,4.5503,4.4937,4.6601,4.84,5.0394,5.1241,5.2966,5.4641,5.5944,5.6752,5.7573,5.9145,5.9192,5.8116,5.7217,5.4832,5.1415,4.9277,4.7819,4.6847,4.6491,4.8189,5.05,5.194,5.3449,5.5282,5.7895,5.9344,6.0298,6.0582,6.0857,6.2349,6.6608,7.0621,7.3541,7.3994,7.652,7.9393,8.2089,8.4667,8.7528,9.1061,9.314,9.4276,9.4757,9.5674,9.5176,9.2201,9.1467,9.0526,8.8761,8.8223,8.824,8.8811,8.6471,8.5192,8.5885,8.6194,8.5706,8.44,8.44,8.4828,8.6051,8.5086,8.5,8.6388,8.5,8.4704,8.5118,8.3793,8.2344,8.1191,7.7657,7.5445,7.4117,7.4106,7.3997,7.4122,7.6354,7.7793,7.857,7.9465,7.9693,7.9505,7.9198,7.7664,7.5905,0.0,0.0,0.0,0.0,0.0,0.0,0.0,0.0,0.0,0.0,0.0,0.0,0.0,0.0,0.0,0.0,3.7498,4.0708,4.4259,4.7456,4.975,5.0737,5.0571,4.9858,4.9067,4.8416,4.7118,4.6055,4.7108,4.7845,4.8297,5.0193,5.2469,5.4797,5.6264,5.8023,5.9996,6.1472,6.2228,6.2919,6.3548,6.3478,6.2437,6.1491,5.7707,5.2464,0.0,4.8506,4.6588,4.6394,4.8056,5.0225,5.2605,5.3769,5.4712,5.7634,5.8909,5.9774,6.1598,6.5858,7.043,7.3569,7.6459,7.892,8.0463,8.403,8.6635,8.6212,8.8119,9.0125,9.1499,9.3144,9.4364,9.4844,9.598,9.6009,9.3652,9.3227,9.2546,9.0107,8.9578,8.9421,8.9641,8.7671,8.716,8.8822,8.7639,8.697,8.6587,8.6719,8.6807,8.6639,8.7485,8.7528,8.6849,8.6683,8.622,8.5159,8.3793,8.1892,7.907,7.8375,7.7097,7.5458,7.5926,7.6461,7.7369,7.806,7.925,8.0446,7.9837,7.9735,7.9767,7.9329,7.8853,7.8808,0.0,0.0,0.0,0.0,0.0,0.0,0.0,0.0,0.0,0.0,0.0,0.0,0.0,0.0,0.0,0.0,0.0,3.7949,4.0682,4.3859,4.626,4.8091,4.7223,4.7032,4.7608,4.5804,4.5072,4.5344,4.6539,4.7736,4.9204,5.1694,5.4101,5.6584,5.8623,6.0815,6.2968,6.4567,6.5559,6.617,6.5927,6.497,6.3251,6.115,5.6543,0.0,4.9162,4.7039,4.5236,4.5365,4.7269,4.9984,5.1852,5.384,5.5839,5.826,6.0244,6.2669,6.6386,7.1258,7.6156,7.9206,8.2285,8.488,8.588,8.899,9.132,9.0163,9.0768,9.1888,9.2447,9.3097,9.3752,9.5063,9.6159,9.6504,9.4495,9.4691,9.3958,9.1302,9.0801,9.0811,9.0597,8.8922,8.8747,9.0326,8.9303,8.8536,8.8621,8.8199,8.8162,8.8206,8.863,8.8587,8.8206,8.7908,8.6683,8.475,8.3129,8.1399,7.9028,7.8962,7.8145,7.7321,7.7701,7.8331,7.9628,7.9635,8.0527,8.162,8.0816,8.0708,8.0556,8.0292,8.0317,8.0966,0.0,0.0,0.0,0.0,0.0,0.0,0.0,0.0,0.0,0.0,0.0,0.0,0.0,0.0,0.0,0.0,0.0,0.0,3.5965,3.906,4.1965,4.3923,4.2455,4.2195,4.403,4.0387,4.0109,4.2966,4.3492,4.5034,4.7737,5.1009,5.3416,5.5204,5.8392,6.1167,6.331,6.4945,6.6239,6.7266,6.564,6.3566,6.0535,5.7057,5.2128,4.7233,4.496,4.3747,4.293,4.3343,4.6389,4.9728,5.0019,5.3766,5.8548,6.0061,6.3749,6.8662,7.4249,7.7008,7.9305,8.4217,8.8513,9.1374,9.0047,9.1895,9.3613,9.3053,9.2191,9.2103,9.3513,9.2907,9.3003,9.5454,9.6554,9.6512,9.5436,9.5713,9.515,9.284,9.2235,9.206,9.2136,9.0681,9.021,9.1047,9.1149,9.0503,8.9979,8.9084,8.9139,9.025,8.9183,8.9097,9.0121,8.8331,8.651,8.4289,8.2387,8.1231,8.0847,7.9333,7.8975,7.947,7.9253,7.977,8.0728,8.0935,8.1478,8.2135,8.2075,8.2296,8.22,8.1772,8.1934,8.256,0.0,0.0,0.0,0.0,0.0,0.0,0.0,0.0,0.0,0.0,0.0,0.0,0.0,0.0,0.0,0.0,0.0,0.0,3.2022,3.4205,3.6381,3.8113,3.929,4.0147,4.0592,3.9769,3.9444,4.0135,4.0435,4.1229,4.3038,4.5496,4.8017,5.0666,5.3948,5.7174,6.0279,6.133,6.2535,6.386,6.209,6.0233,5.8664,5.679,5.2505,4.7299,4.6485,4.5001,4.3657,4.4527,4.8144,5.2324,5.3695,5.6386,5.988,6.3305,6.836,7.3773,7.7285,8.2668,8.8223,9.1279,9.239,9.3233,9.3822,9.4594,9.4347,9.2751,9.1716,9.0681,8.9308,9.0466,9.2363,9.3579,9.6292,9.7791,9.7334,9.7924,9.7837,9.6115,9.6156,9.5669,9.3704,9.2795,9.2581,9.3879,9.1496,9.0333,9.149,9.1111,9.0682,9.1199,9.1023,9.0677,9.0121,8.8331,8.6844,8.5153,8.4114,8.3386,8.2142,8.1644,8.1073,8.0167,8.1152,8.1475,8.149,8.1143,8.1574,8.2087,8.0721,8.0621,8.0938,8.0517,8.1591,8.316,0.0,0.0,0.0,0.0,0.0,0.0,0.0,0.0,0.0,0.0,0.0,0.0,0.0,0.0,0.0,0.0,0.0,0.0,0.0,3.013,3.1636,3.3007,3.3916,3.4619,3.5291,3.4051,3.3859,3.475,3.4644,3.5634,3.7365,3.9508,4.2238,4.5134,4.8338,5.1994,5.5709,5.6769,5.825,0.0,0.0,5.6956,5.4618,5.2997,4.9374,4.5019,4.5151,4.5861,4.7072,4.9198,5.1886,5.4775,5.7019,5.9844,6.3122,6.7707,7.2979,7.7714,8.192,8.7233,9.1948,9.4181,9.5373,9.5567,9.5309,9.511,9.4347,9.0939,8.9398,8.8036,8.651,8.8459,9.0769,9.3058,9.5808,9.8324,9.9524,10.0463,10.0588,9.9738,9.9955,9.9197,9.655,9.5369,9.4844,9.449,9.2273,9.171,9.3922,9.3188,9.2795,9.2752,9.3038,9.2291,9.1,8.9163,8.746,8.597,8.5114,8.4043,8.3119,8.3005,8.2485,8.2239,8.2024,8.2414,8.2791,8.1715,8.1573,8.2219,8.0946,8.0699,8.1094,8.1121,8.2174,8.3931,0.0,0.0,0.0,0.0,0.0,0.0,0.0,0.0,0.0,0.0,0.0,0.0,0.0,0.0,0.0,0.0,0.0,0.0,0.0,0.0,2.7329,2.836,2.7801,2.7995,2.92,2.6724,2.639,2.8387,2.773,2.8722,3.0796,3.2582,3.5187,3.8254,4.1541,4.5462,4.9316,5.1227,5.3115,5.4569,5.4782,5.264,4.8937,0.0,4.4695,4.2194,4.296,4.6202,5.0914,5.471,5.6528,5.7485,6.0206,6.3562,6.7548,7.3094,7.7305,8.1261,8.6894,9.072,9.3382,9.5328,9.7226,9.7989,9.5375,9.4666,9.3124,8.8246,8.6178,8.5212,8.4457,8.6429,8.9569,9.3057,9.6203,9.8948,10.2258,10.3057,10.3046,10.3309,10.3046,10.2061,9.9564,9.8547,9.6908,9.4707,9.3441,9.357,9.598,9.48,9.405,9.4386,9.4389,9.3451,9.1889,9.0093,8.8553,8.674,8.5399,8.4551,8.4457,8.3722,8.3742,8.4286,8.2434,8.2612,8.3893,8.214,8.1612,8.2104,8.1851,8.1643,8.1782,8.257,8.3592,8.4843,0.0,0.0,0.0,0.0,0.0,0.0,0.0,0.0,0.0,0.0,2.5743,2.5664,0.0,0.0,0.0,0.0,0.0,0.0,0.0,0.0,0.0,2.4216,2.4903,2.513,2.4401,2.406,2.3903,2.3547,2.1777,2.1306,2.2121,2.2763,2.491,2.7958,3.2351,3.6822,4.1376,4.3381,4.5256,4.6988,4.6533,4.5356,4.3926,4.337,4.2603,0.0,4.4901,4.7404,5.0487,5.671,6.0114,6.2278,6.5123,6.8305,7.2399,7.7518,8.1037,8.4452,8.9606,9.3398,9.6294,9.796,9.846,9.8236,9.6614,9.3838,9.0655,8.7399,8.5171,8.3629,8.3462,8.643,9.0168,9.3359,9.7218,10.0823,10.4201,10.4699,10.4829,10.4991,10.4423,10.3029,10.0779,10.0061,9.8674,9.6766,9.5402,9.4441,9.4537,9.4577,9.4165,9.3809,9.4011,9.3623,9.2193,9.0335,8.8925,8.7911,8.6619,8.6102,8.5485,8.4961,8.4306,8.3822,8.3354,8.2697,8.181,8.1605,8.1479,8.1675,8.1578,8.2201,8.3115,8.388,8.5296,8.7038,0.0,0.0,0.0,0.0,0.0,0.0,0.0,2.6703,2.6189,2.6627,2.6141,2.5828,2.6306,2.5563,0.0,0.0,0.0,0.0,0.0,0.0,0.0,2.1776,2.1922,2.1614,2.0845,2.0139,1.897,1.7725,0.0,1.448,1.4228,1.4734,1.686,2.0252,2.4472,2.9202,3.4063,3.6684,3.9268,4.1604,4.2523,4.2557,4.1965,4.1244,4.1768,0.0,4.596,4.9265,5.2655,5.7128,6.2403,6.7419,6.9857,7.3017,7.6564,8.1706,8.5223,8.8434,9.2336,9.5593,9.7931,9.9066,9.8977,9.7992,9.4822,9.1257,8.7617,8.3487,8.2176,8.1769,8.0946,8.4878,8.9014,9.163,9.4932,9.8812,10.3606,10.4056,10.4599,10.665,10.6026,10.4618,10.2576,10.1308,9.9732,9.7553,9.654,9.5713,9.5457,9.5596,9.5907,9.5442,9.4964,9.4275,9.348,9.1126,8.8973,8.7293,8.7236,8.6706,8.5677,8.5824,8.553,8.4631,8.3822,8.3419,8.3018,8.2872,8.2795,8.2889,8.3377,8.383,8.4389,8.52,8.6567,8.8249,0.0,0.0,0.0,0.0,0.0,0.0,0.0,2.6822,2.6422,2.7939,2.7313,2.6693,2.6241,2.5102,2.4058,0.0,0.0,0.0,0.0,0.0,0.0,0.0,0.0,0.0,1.7758,0.0,0.0,1.3575,1.0599,0.0,0.0,0.0,0.0,0.0,1.8194,2.2999,2.8,3.1443,3.4651,0.0,0.0,4.0191,4.0291,0.0,0.0,0.0,0.0,5.033,5.4128,5.776,6.3381,6.9784,7.3125,7.6538,8.0352,8.4643,8.8335,9.1476,9.4639,9.7426,9.9316,9.9568,9.9193,9.7206,9.2674,8.9175,8.5413,8.0449,7.9992,8.0166,7.9717,8.3418,8.7486,9.025,9.2752,9.6772,10.2919,10.3413,10.446,10.7718,10.6948,10.5437,10.3745,10.201,10.0161,9.8077,9.7342,9.6909,9.6284,9.6791,9.6965,9.679,9.5497,9.4381,9.3729,9.1194,8.868,8.6543,8.7383,8.6752,8.5585,8.6313,8.6149,8.5488,8.4275,8.3877,8.4398,8.4254,8.4349,8.4511,8.5148,8.5784,8.6304,8.7024,8.8182,8.9652,0.0,0.0,0.0,0.0,0.0,0.0,0.0,2.6827,2.7502,2.9555,2.8727,2.7146,2.5176,2.4577,2.3475,0.0,0.0,0.0,0.0,0.0,0.0,0.0,0.0,0.0,0.0,0.0,0.0,1.3668,0.7743,0.0,0.0,0.0,0.0,0.0,0.0,1.9694,2.5003,2.8446,0.0,0.0,0.0,0.0,0.0,0.0,0.0,0.0,0.0,4.9845,5.2805,5.9471,6.3361,6.627,7.2811,7.8272,8.2661,8.5153,8.9083,9.2907,9.4784,9.7952,10.0576,10.0198,9.8771,9.6588,9.2353,8.8239,8.4401,8.1802,8.0089,7.973,8.1959,8.3207,8.5715,9.0683,9.3792,9.7516,10.3469,10.4607,10.5796,10.8323,10.5892,10.4329,10.396,10.185,9.9999,9.8601,9.7218,9.6355,9.5774,9.5745,9.5848,9.618,9.5078,9.3131,9.1199,8.9598,8.8098,8.684,8.6126,8.563,8.5617,8.5669,8.5168,8.4462,8.3932,8.3245,8.257,8.4298,8.5159,8.588,8.629,8.7778,8.9568,8.9023,9.0518,9.2802,0.0,0.0,0.0,0.0,0.0,0.0,2.6973,2.6649,2.748,3.0351,2.9535,2.783,2.5918,2.4615,2.2644,2.0223,0.0,0.0,0.0,0.0,0.0,0.0,0.0,0.0,0.0,0.0,0.9825,1.0102,0.5167,0.0,0.0,0.0,0.0,0.0,0.0,1.7178,2.172,2.5779,0.0,0.0,0.0,0.0,0.0,0.0,0.0,0.0,0.0,0.0,5.3397,5.7227,6.1514,6.5883,6.9938,7.5098,8.083,8.5451,9.0247,9.4268,9.6609,9.8904,10.0511,10.0039,9.7662,9.4598,9.0661,8.6784,8.2899,8.0651,8.0074,8.0383,8.1291,8.2545,8.4586,8.8673,8.9942,9.2763,9.834,10.0159,10.2141,10.552,10.4664,10.4066,10.5292,10.2822,10.0161,9.8447,9.8231,9.7664,9.6536,9.6677,9.671,9.6234,9.4939,9.3494,9.1564,9.0056,8.8331,8.6619,8.6742,8.6405,8.5401,8.6119,8.5512,8.4365,8.4891,8.4466,8.4057,8.6511,8.767,8.7863,8.9959,9.1189,9.2,9.2303,9.3322,9.4751,0.0,0.0,0.0,0.0,0.0,2.447,2.6604,2.6493,2.7318,3.0041,2.9006,2.7289,2.5604,2.3089,2.09,1.8644,1.7814,0.0,0.0,0.0,0.0,0.0,0.0,0.0,0.0,0.0,0.757,0.6965,0.3541,0.1588,0.0,0.0,0.2561,0.7201,0.0,0.0,0.0,0.0,0.0,0.0,0.0,0.0,0.0,0.0,0.0,0.0,0.0,0.0,0.0,0.0,0.0,6.5285,6.7519,7.2412,7.8243,8.4706,9.0042,9.4557,9.7486,9.9136,10.0353,9.9879,9.6883,9.3226,8.9407,8.5921,8.2713,8.0092,8.0056,8.0957,8.1423,8.2258,8.4127,8.7142,8.8137,9.0549,9.573,9.7874,10.0281,10.4148,10.3932,10.4209,10.5252,10.2885,10.0456,9.9081,9.9016,9.8311,9.7246,9.7115,9.6947,9.6095,9.4706,9.3261,9.1699,9.0234,8.8236,8.6166,8.6804,8.6221,8.5001,8.5987,8.5749,8.5069,8.5629,8.5886,8.5804,8.8442,8.9659,9.0073,9.2639,9.378,9.4504,9.526,9.6183,9.7161,0.0,0.0,0.0,0.0,0.0,0.0,2.5366,2.6062,2.6932,2.8728,2.6949,2.4919,2.301,1.9838,1.7428,1.707,1.6781,0.0,0.0,0.0,0.0,0.0,0.0,0.0,0.0,0.0,0.6773,0.5651,0.3354,0.2648,0.353,0.328,0.5084,0.8518,0.0,0.0,0.0,0.0,0.0,0.0,0.0,0.0,0.0,0.0,0.0,0.0,0.0,0.0,0.0,0.0,0.0,0.0,0.0,7.041,7.5258,8.2026,8.8515,9.3886,9.6172,9.8788,10.0415,9.9218,9.6784,9.3592,8.8797,8.5726,8.3426,8.0809,8.0294,8.0728,8.2591,8.3131,8.4293,8.7546,9.0242,9.3221,9.7553,10.0022,10.2219,10.4791,10.4194,10.3652,10.371,10.2263,10.0913,10.0942,9.8991,9.7701,9.7535,9.6929,9.6095,9.5285,9.4103,9.2528,9.0739,8.8919,8.7377,8.588,8.5613,8.4954,8.4583,8.523,8.6019,8.6865,8.6673,8.6784,8.734,8.9447,9.0973,9.2292,9.3773,9.5448,9.6992,9.7541,9.8867,10.0491,0.0,0.0,0.0,0.0,0.0,0.0,0.0,2.3217,2.3868,2.521,2.3908,2.2706,2.1757,1.8996,1.6724,1.5794,1.5043,0.0,0.0,0.0,0.0,0.0,0.0,0.0,0.0,0.0,0.723,0.7677,0.615,0.5602,0.6162,0.7184,0.8301,0.9347,1.2617,1.5993,0.0,0.0,0.0,0.0,0.0,0.0,3.824,0.0,0.0,0.0,0.0,0.0,0.0,0.0,0.0,0.0,0.0,0.0,0.0,7.8601,8.4941,9.0461,9.2731,9.4879,9.6602,9.5486,9.3109,9.0235,8.7476,8.4776,8.2493,8.077,8.0551,8.1574,8.2882,8.3419,8.5203,9.0063,9.1687,9.3475,9.7558,10.0566,10.2721,10.425,10.6011,10.6026,10.3754,10.3026,10.207,10.0443,9.9642,9.8662,9.7581,9.7012,9.6426,9.5122,9.4287,9.3161,9.1583,9.0246,8.9346,8.8698,8.8256,8.739,8.5899,8.7373,8.8522,8.9271,8.9241,8.9435,8.9762,9.2319,9.363,9.4456,9.6886,9.808,9.8385,10.0179,10.1019,10.1623,0.0,0.0,0.0,0.0,0.0,0.0,0.0,2.062,2.0685,2.1235,1.9957,1.9099,1.9028,1.643,1.4519,1.4532,1.3204,0.0,0.0,0.0,0.0,0.0,0.0,0.0,0.0,0.7937,0.7864,0.9313,0.8444,0.8411,0.955,1.1163,1.1752,1.1704,1.4678,1.7204,0.0,0.0,0.0,0.0,0.0,0.0,3.7704,0.0,0.0,0.0,0.0,0.0,0.0,0.0,0.0,0.0,0.0,0.0,0.0,0.0,8.083,8.5795,8.985,9.2264,9.3632,9.2891,9.1114,8.8581,8.644,8.4381,8.2257,8.1128,8.1655,8.2709,8.3544,8.4198,8.6227,9.0373,9.1823,9.3939,9.7155,10.0522,10.3351,10.5059,10.681,10.6836,10.423,10.3724,10.3033,10.1042,9.9969,9.9183,9.818,9.7975,9.6902,9.5397,9.5013,9.4199,9.2904,9.2075,9.1306,9.0377,9.0221,8.9162,8.758,8.9363,9.1039,9.228,9.1862,9.2113,0.0,9.5738,9.6961,9.7534,10.0149,10.106,10.1087,10.337,10.3929,10.4053,0.0,0.0,0.0,0.0,0.0,0.0,0.0,1.816,1.7694,1.7245,1.5425,1.4495,1.5126,1.23,1.1135,1.3028,0.0,0.0,0.0,0.0,0.0,0.0,0.0,0.0,0.0,0.8013,0.8486,1.0352,1.0429,1.1308,1.3198,1.4607,1.5193,1.531,1.7476,1.8932,0.0,0.0,0.0,0.0,3.3107,3.4933,0.0,0.0,0.0,0.0,0.0,0.0,0.0,0.0,0.0,0.0,0.0,0.0,0.0,0.0,0.0,0.0,0.0,9.0534,9.1408,9.1177,8.9731,8.7947,8.5845,8.4378,0.0,8.2285,8.292,8.4086,8.4729,8.5713,8.7111,8.8749,9.1653,9.4666,9.7306,10.0905,10.4207,10.6894,10.7203,10.654,10.5458,10.466,10.3583,10.2514,10.0562,9.9274,9.9064,9.8879,9.7869,9.6582,9.5946,9.5133,9.4343,9.3751,9.291,9.1497,9.1684,9.0948,8.9182,9.1463,9.3907,9.5949,9.4508,9.558,9.8376,9.9998,10.0827,10.1471,10.3554,10.4414,10.4775,10.6562,10.7174,10.7343,0.0,0.0,0.0,0.0,0.0,0.0,0.0,0.0,0.0,0.0,1.3431,1.2471,1.2057,1.0942,1.0121,0.0,0.0,0.0,0.0,0.0,0.0,0.0,0.0,0.0,0.0,0.8896,0.9758,1.1297,1.215,1.3786,1.6256,1.6073,1.6291,1.6821,1.7782,1.9877,0.0,0.0,0.0,0.0,3.3228,3.522,0.0,0.0,0.0,0.0,4.7969,5.1218,0.0,0.0,0.0,0.0,0.0,0.0,0.0,0.0,7.5015,7.7008,8.0722,0.0,8.5602,8.5399,8.5125,8.4815,0.0,8.3506,8.282,8.261,8.2879,8.3877,8.5492,8.5585,8.7222,9.1778,9.391,9.5882,9.92,10.3484,10.6636,10.7511,10.8451,10.8196,10.654,10.5106,10.3981,10.2903,10.1262,9.9668,9.8547,9.8591,9.8361,9.7437,9.7889,9.7179,9.5293,9.5416,9.495,9.4327,9.4149,9.3731,9.3131,9.4387,9.6709,10.0044,10.095,10.2222,10.3736,10.4314,10.5047,10.5813,10.6587,10.659,10.6588,10.8553,10.8582,10.7969,0.0,0.0,0.0,0.0,0.0,0.0,0.0,0.0,0.0,0.0,0.0,0.0,0.0,0.0,0.0,0.0,0.0,0.0,0.0,0.0,0.0,0.0,0.0,0.0,0.8596,0.9137,1.0346,1.2487,1.3467,1.5458,1.819,1.8077,1.8135,1.8279,1.9089,0.0,0.0,0.0,0.0,0.0,3.3316,0.0,0.0,0.0,0.0,0.0,4.7933,5.1274,0.0,5.8294,6.1282,6.3987,0.0,0.0,0.0,0.0,7.4069,7.5369,7.6992,7.9961,8.2539,8.3164,8.3596,8.4065,8.4014,8.3951,8.3593,8.329,8.3877,8.4577,8.577,8.6264,8.7938,9.2193,9.4633,9.7634,10.2887,10.5898,10.7985,10.952,10.9719,10.9268,10.7487,10.6021,10.4649,10.3609,10.2096,10.0824,9.9729,9.9793,9.9582,9.9039,9.974,9.9142,9.697,9.7281,9.7206,9.6729,9.7254,9.7747,9.8541,9.9232,10.2177,10.6204,10.586,10.6685,10.8665,10.9903,11.0146,10.9598,10.9551,10.9657,10.967,11.0938,11.0966,11.0206,0.0,0.0,0.0,0.0,0.0,0.0,0.0,0.0,0.0,0.0,0.0,0.0,0.0,0.0,0.0,0.0,0.0,0.0,0.0,0.0,0.0,0.0,0.0,0.8414,0.8449,0.909,1.0775,1.3507,1.4463,1.645,1.9186,1.9991,2.0092,1.9632,2.0573,0.0,0.0,0.0,0.0,3.2435,3.3274,0.0,0.0,0.0,0.0,0.0,0.0,0.0,0.0,5.9223,6.2506,6.5189,6.796,0.0,0.0,0.0,0.0,0.0,7.5675,7.8537,8.1204,8.207,8.3123,8.4093,8.4271,8.4503,8.4389,8.446,8.4992,8.577,8.6456,8.7788,8.9788,9.2322,9.5487,9.9863,10.6816,10.7951,10.8791,11.0893,11.0482,10.931,10.8219,10.6788,10.5405,10.3965,10.2877,10.1924,10.1596,10.1351,10.1106,10.0737,10.1125,10.0687,9.8953,9.9121,9.9206,9.9113,10.0154,10.1534,10.3687,10.4361,10.7312,11.182,10.9038,10.9614,11.2366,11.444,11.4326,11.2871,11.2757,11.2804,11.3336,11.3801,11.3441,11.2556,0.0,0.0,0.0,0.0,0.0,0.0,0.0,0.0,0.0,0.0,0.0,0.0,0.0,0.0,0.0,0.0,0.0,0.0,0.0,0.0,0.0,0.7984,0.7663,0.7725,0.8202,0.8953,1.0565,1.2847,1.514,1.7214,1.9361,2.0304,2.0642,2.0382,2.1009,2.2381,2.4396,0.0,2.8278,3.1133,3.315,0.0,0.0,0.0,0.0,0.0,0.0,0.0,0.0,5.8686,6.1776,6.4621,6.6575,0.0,0.0,0.0,0.0,0.0,7.6322,7.8787,7.9838,7.9871,8.1115,8.274,8.2908,8.3611,8.4102,8.4836,8.5499,8.6956,8.9573,9.089,9.2884,9.6189,9.9798,10.3337,10.6723,10.7855,10.8686,10.922,10.9022,10.851,10.7631,10.6576,10.5281,10.3794,10.3027,10.235,10.1061,10.1035,10.0778,10.0134,10.1065,10.1084,10.0415,10.0472,10.065,10.1177,10.1809,10.3115,10.5036,10.5854,10.8146,11.1143,11.0559,11.1451,11.3139,11.3601,11.4545,11.5617,11.5997,11.5943,11.6034,11.6393,11.5254,11.2947,0.0,0.0,0.0,0.0,0.0,0.0,0.0,0.0,0.0,0.0,0.0,0.0,0.0,0.0,0.0,0.0,0.0,0.0,0.0,0.0,0.6651,0.7477,0.7014,0.7194,0.806,0.9622,1.1527,1.3839,1.6456,1.8836,2.0724,2.0711,2.0615,2.0227,2.0501,2.1709,2.37,2.5659,2.8315,3.1368,0.0,0.0,0.0,0.0,0.0,0.0,0.0,0.0,0.0,0.0,6.1963,6.4204,6.6058,0.0,0.0,0.0,0.0,0.0,7.4227,7.681,7.9011,7.9636,8.2046,8.4378,8.3935,8.4906,8.6295,8.7104,8.7932,8.9355,9.2847,9.4327,9.6739,10.1715,10.446,10.6693,10.8525,10.8955,10.9194,10.9434,10.9118,10.8702,10.8173,10.6875,10.5576,10.4277,10.3412,10.2586,10.1468,10.1159,10.1476,10.1585,10.1599,10.1767,10.2679,10.2309,10.2393,10.2732,10.318,10.4523,10.6624,10.7342,10.857,11.0556,11.0787,11.1751,11.305,11.3668,11.5249,11.767,11.8945,11.9665,11.9539,11.8156,11.585,11.3255,0.0,0.0,0.0,0.0,0.0,0.0,0.0,0.0,0.0,0.0,0.0,0.0,0.0,0.0,0.0,0.0,0.0,0.0,0.0,0.0,0.5805,0.6677,0.7013,0.7757,0.8796,1.0646,1.2832,1.5419,1.8198,2.0426,2.2198,2.1312,2.0609,2.0157,2.0168,2.1241,2.3047,2.5311,2.8119,3.1367,0.0,0.0,0.0,0.0,0.0,0.0,0.0,0.0,0.0,0.0,0.0,0.0,0.0,0.0,0.0,6.849,6.9973,7.1803,7.3019,7.5612,7.8545,8.0201,8.3383,8.5926,8.5516,8.6636,8.8289,8.9948,9.0487,9.1793,9.577,9.8427,10.1668,10.6533,10.8266,10.9077,11.0125,11.0055,10.9697,10.9646,10.9376,10.8847,10.8173,10.6875,10.5624,10.4422,10.3748,10.2821,10.2019,10.1751,10.2219,10.2865,10.2483,10.2854,10.4519,10.3911,10.3875,10.4477,10.4496,10.5769,10.7647,10.8003,10.8824,10.9831,11.0327,11.1371,11.2778,11.3647,11.5885,11.9004,12.085,12.182,12.1778,11.8746,11.5908,11.3561,0.0,0.0,0.0,0.0,0.0,0.0,0.0,0.0,0.0,0.0,0.0,0.0,0.0,0.0,0.0,0.0,0.0,0.0,0.0,0.0,0.4544,0.4955,0.8309,1.0411,1.133,1.1969,1.3948,1.7208,1.9842,2.1886,2.3342,2.214,2.139,2.095,2.049,2.1101,2.2721,2.4844,2.7275,2.9998,3.2276,0.0,0.0,0.0,0.0,0.0,0.0,0.0,0.0,0.0,0.0,0.0,0.0,0.0,6.7149,6.8984,7.0075,7.1099,7.5289,7.7232,7.866,8.1273,8.2742,8.4389,8.709,8.7754,8.8885,9.2099,9.2572,9.3777,9.8044,10.2977,10.7199,10.9406,11.0819,11.1133,11.0556,11.0534,11.0173,10.8505,10.8238,10.8173,10.7115,10.649,10.5432,10.3893,10.3795,10.3386,10.2068,10.2829,10.3268,10.2865,10.3835,10.4234,10.4519,10.4855,10.5196,10.5848,10.5763,10.6259,10.7487,10.7906,10.8548,10.9057,10.9202,11.0521,11.2606,11.3158,11.5784,11.9695,12.0506,12.0932,12.0662,11.7576,11.5529,11.4185,0.0,0.0,0.0,0.0,0.0,0.0,0.0,0.0,0.0,0.0,0.0,0.0,0.0,0.0,0.0,0.0,0.0,0.0,0.0,0.1415,0.3024,0.4583,0.7157,0.9322,1.1161,1.3368,1.6433,2.0157,2.236,2.359,2.3159,2.1289,1.9918,1.9138,1.9043,2.0297,2.2465,2.4658,2.728,3.0112,3.2409,3.4644,0.0,0.0,0.0,0.0,0.0,0.0,0.0,0.0,5.8856,6.0948,6.2965,6.4934,6.6845,6.7802,6.9272,7.1034,7.2741,7.5212,7.7822,8.0247,8.2758,8.5,8.6981,8.9379,9.1843,9.4929,9.6623,9.914,10.3484,10.7329,11.0163,11.192,11.2479,11.2502,11.1852,11.1372,11.0915,10.9598,10.8974,10.8702,10.7933,10.6779,10.572,10.4758,10.4421,10.3815,10.3062,10.3248,10.379,10.4133,10.4377,10.476,10.5427,10.5567,10.5886,10.6315,10.563,10.6445,10.8275,10.7618,10.7626,10.8548,10.9608,11.0677,11.1534,11.3644,11.6252,11.9048,12.0665,12.108,12.0461,11.8657,11.728,11.6232,0.0,0.0,0.0,0.0,0.0,0.0,0.0,0.0,0.0,0.0,0.0,0.0,0.0,0.0,0.0,0.0,0.0,0.0,-0.2164,-0.1069,0.0896,0.3509,0.5585,0.8189,1.1102,1.458,1.8056,2.1113,2.355,2.4127,2.2536,2.0363,1.8976,1.8392,1.8753,2.031,2.266,2.4761,2.742,3.0191,3.2016,3.4191,0.0,0.0,0.0,0.0,0.0,0.0,0.0,0.0,5.7783,5.9858,6.208,6.4352,6.638,6.7101,6.886,7.0629,7.0993,7.3382,7.6507,7.9225,8.2117,8.4834,8.8031,9.1453,9.48,9.7793,10.0828,10.3793,10.726,10.9853,11.1809,11.3091,11.3755,11.3565,11.2334,11.2044,11.1417,11.0067,10.9681,10.9599,10.8873,10.7865,10.6358,10.5681,10.5191,10.4378,10.3661,10.3783,10.4153,10.4899,10.4728,10.5285,10.6383,10.6229,10.6537,10.7124,10.6243,10.6625,10.8275,10.7264,10.7404,10.8585,10.9821,11.0897,11.1793,11.3909,11.609,11.8425,12.0096,11.9993,11.8962,11.8107,11.7725,11.7507,0.0,0.0,0.0,0.0,0.0,0.0,0.0,0.0,0.0,0.0,0.0,0.0,0.0,0.0,0.0,0.0,0.0,0.0,-0.3097,-0.286,-0.1598,0.1255,0.4022,0.7246,1.0992,1.5572,1.8542,1.9871,2.3004,2.3288,2.102,1.9803,1.9173,1.9229,2.0027,2.1451,2.3525,2.5189,2.7376,2.9839,3.1009,3.3406,3.6677,0.0,0.0,0.0,0.0,0.0,0.0,0.0,5.6081,5.8482,6.1735,6.3921,6.5513,6.6855,6.8613,7.0134,7.0501,7.2025,7.4489,7.8034,8.0511,8.4177,9.0749,9.3836,9.6512,10.1493,10.51,10.7568,10.7962,11.0253,11.2164,11.2589,11.4261,11.4786,11.2296,11.249,11.2101,10.9912,11.0204,11.036,11.018,10.9098,10.7968,10.6886,10.6373,10.535,10.3114,10.3899,10.4568,10.5022,10.5186,10.5973,10.7,10.6913,10.7362,10.8383,10.7397,10.7222,10.7366,10.6909,10.7718,10.928,10.9734,11.1307,11.365,11.4148,11.5511,11.767,11.8358,11.7364,11.5644,11.5397,11.6182,11.7351,0.0,0.0,0.0,0.0,0.0,0.0,0.0,0.0,0.0,0.0,0.0,0.0,0.0,0.0,0.0,0.0,0.0,0.0,-0.4553,-0.3419,-0.1974,0.0362,0.1859,0.4191,0.7582,1.2346,1.7224,2.2139,2.2644,2.138,1.8568,1.7389,1.7269,1.7629,1.8988,2.1036,2.3718,2.5279,2.74,2.9921,3.1583,3.3544,0.0,0.0,0.0,0.0,0.0,0.0,0.0,0.0,0.0,0.0,5.8856,6.1802,6.4438,6.5026,6.7174,6.9221,6.8979,7.1124,7.4447,7.7698,8.1822,8.6538,9.1924,9.5492,9.9106,10.5669,10.8047,10.9523,11.1316,11.2852,11.4141,11.4547,11.4579,11.4261,11.3119,11.304,11.2448,11.1207,11.1761,11.1812,11.0672,10.9833,10.8697,10.7427,10.6508,10.538,10.5026,10.4228,10.4518,10.56,10.5458,10.5519,10.5932,10.6685,10.7175,10.7224,10.7246,10.7411,10.7913,10.8261,10.8232,10.8303,11.0287,11.1347,11.1826,11.4311,11.5413,11.5736,11.5883,11.5019,11.3585,11.3259,11.3438,11.4025,0.0,0.0,0.0,0.0,0.0,0.0,0.0,0.0,0.0,0.0,-0.9991,0.0,0.0,0.0,0.0,0.0,0.0,0.0,0.0,-0.4739,-0.2909,-0.0,0.0937,0.3447,0.7977,1.2165,1.577,1.8983,1.9938,1.8745,1.6037,1.6395,1.7024,1.7765,2.0076,2.2268,2.447,2.6267,2.8283,3.0271,3.1959,3.3665,3.5646,0.0,0.0,0.0,0.0,0.0,0.0,0.0,0.0,0.0,5.7056,5.9727,6.2476,6.3656,6.579,6.775,6.8814,7.1249,7.4581,7.8385,8.2674,8.762,9.4819,9.9096,10.3277,10.8591,11.0653,11.166,11.3592,11.4697,11.5601,11.6298,11.6153,11.5349,11.4499,11.3998,11.3247,11.2501,11.2739,11.2437,11.1702,11.0931,10.9776,10.8405,10.7265,10.6156,10.5347,10.4667,10.4408,10.5267,10.4999,10.5205,10.5709,10.6628,10.7291,10.7459,10.8084,10.8254,10.8351,10.8585,10.8564,10.8772,11.0927,11.1755,11.1592,11.3581,11.4231,11.3861,11.3235,11.2373,11.119,11.041,11.0174,11.0806,0.0,0.0,0.0,0.0,0.0,0.0,0.0,0.0,0.0,0.0,-1.2179,-1.2331,0.0,0.0,0.0,0.0,0.0,0.0,0.0,-0.6293,-0.4056,-0.0,0.1128,0.4459,1.0609,1.3243,1.3689,1.1905,1.5241,1.5723,1.3797,1.6096,1.7821,1.8945,2.2222,2.4319,2.5396,2.7629,2.9252,3.0717,3.1872,3.3825,3.5957,3.7329,0.0,0.0,0.0,0.0,0.0,0.0,0.0,0.0,5.5723,5.7891,6.0034,6.2046,6.4158,6.6414,6.919,7.2038,7.5269,8.0206,8.3807,8.8752,9.8592,10.3934,10.7558,11.0096,11.2097,11.415,11.5083,11.619,11.7097,11.7373,11.768,11.7629,11.6399,11.5151,11.4437,11.3939,11.3448,11.2907,11.3016,11.222,11.1039,10.9908,10.8778,10.7185,10.4924,10.4671,10.4742,10.4172,10.4342,10.4906,10.599,10.6675,10.7444,10.8417,10.9421,10.9638,10.877,10.8412,10.9195,11.0645,11.1371,11.1923,11.2455,11.2177,11.2231,11.2109,11.0653,10.9659,10.8844,10.7063,10.6974,10.7916,0.0,0.0,0.0,0.0,0.0,0.0,0.0,0.0,0.0,0.0,0.0,0.0,0.0,0.0,0.0,0.0,0.0,0.0,0.0,-0.6317,-0.4082,-0.0,0.2881,0.548,0.7295,0.908,0.9528,0.868,1.2275,1.3439,1.2356,1.4369,1.6487,1.8811,2.0979,2.2978,2.4597,2.5969,2.7661,2.9705,3.1888,3.3628,3.5031,3.689,3.8399,0.0,0.0,0.0,0.0,0.0,0.0,0.0,5.2897,5.5937,5.9278,5.9498,6.2715,6.6282,6.77,7.1538,7.6069,8.0377,8.7723,9.5088,10.0684,10.4868,10.8077,11.0319,11.2354,11.41,11.5967,11.7436,11.8449,11.8306,11.7667,11.686,11.5323,11.5465,11.5362,11.4174,11.5059,11.53,11.4032,11.3543,11.234,11.0703,10.9142,10.7688,10.6324,10.4584,10.3676,10.376,10.3646,10.3698,10.4113,10.6059,10.722,10.7764,10.8761,10.9456,10.9504,11.0077,11.0617,11.0704,11.1064,11.0938,11.1027,11.1039,11.0724,11.0442,10.8746,10.7685,10.6698,10.4694,10.4596,10.5599,0.0,0.0,0.0,0.0,0.0,0.0,0.0,0.0,0.0,0.0,0.0,0.0,0.0,0.0,0.0,0.0,0.0,0.0,0.0,0.0,-0.4194,0.136,0.4125,0.5509,0.5851,0.7144,0.7005,0.5325,0.7999,0.987,1.1247,1.3287,1.6011,1.962,2.1256,2.3096,2.4719,2.6425,2.7814,2.9342,3.1812,3.3487,3.4422,3.5994,3.7125,3.8254,3.9528,0.0,0.0,0.0,0.0,0.0,0.0,0.0,5.7225,5.8702,6.1867,6.5353,6.8277,7.258,7.7866,8.4101,9.1023,9.6942,10.1077,10.4396,10.7452,11.0079,11.2804,11.5286,11.6209,11.7755,11.8754,11.8714,11.8194,11.7178,11.601,11.5791,11.5577,11.4536,11.4586,11.4658,11.3847,11.3328,11.2425,11.0469,10.9251,10.7812,10.5993,10.4704,10.3382,10.299,10.3255,10.3557,10.4086,10.5815,10.7277,10.8323,10.9504,11.0115,11.0326,11.0572,11.0351,10.9778,10.975,10.9595,10.9324,10.9184,10.8987,10.8591,10.6546,10.5358,10.4452,10.2197,10.2183,10.3383,0.0,0.0,0.0,0.0,0.0,0.0,0.0,0.0,0.0,0.0,0.0,0.0,0.0,0.0,0.0,0.0,0.0,0.0,0.0,0.0,0.0,0.3019,0.4593,0.5133,0.4864,0.6333,0.5818,0.2901,0.4205,0.6873,1.0465,1.2847,1.6151,2.0225,2.1741,2.3237,2.4549,2.6594,2.795,2.8802,3.1513,3.2887,3.3661,3.4671,3.5699,3.6731,3.7966,4.0077,4.2591,4.4696,0.0,0.0,0.0,0.0,5.5049,5.8065,6.0798,6.3955,6.849,7.3543,7.9681,8.8528,9.3362,9.6925,10.0914,10.3783,10.6432,10.9344,11.3334,11.5953,11.6194,11.7749,11.8848,11.8796,11.8473,11.7859,11.6752,11.6076,11.5513,11.4488,11.3489,11.2953,11.3216,11.2556,11.132,10.999,10.9204,10.767,10.5455,10.4684,10.3629,10.2422,10.2799,10.3449,10.4593,10.5585,10.7022,10.8668,11.0067,11.0511,11.018,10.9421,10.8917,10.8563,10.8456,10.815,10.7645,10.7222,10.6871,10.6534,10.4166,10.2762,10.1871,9.9491,9.9506,10.0677,0.0,0.0,0.0,0.0,0.0,0.0,0.0,0.0,0.0,0.0,0.0,0.0,0.0,0.0,0.0,0.0,0.0,0.0,-0.876,0.0,0.0,0.2993,0.3987,0.4176,0.3567,0.5611,0.5517,0.3024,0.4164,0.639,0.9685,1.2939,1.6225,1.976,2.073,2.1845,2.2902,2.3793,2.5217,2.714,2.9572,3.1069,3.1891,3.3457,3.4438,3.5149,3.6384,3.8515,4.0933,4.2623,4.5593,0.0,0.0,0.0,5.4221,5.5678,5.8782,6.2352,6.4741,7.2036,8.1013,8.9997,9.334,9.602,10.0905,10.387,10.6261,10.9092,11.2186,11.4757,11.5681,11.7413,11.8683,11.821,11.8086,11.7688,11.6199,11.5783,11.5409,11.4444,11.3246,11.2936,11.3391,11.2115,11.0803,11.0638,10.9657,10.8013,10.6186,10.4871,10.3547,10.2161,10.1953,10.232,10.3117,10.435,10.5282,10.6316,10.7095,10.743,10.7592,10.6573,10.6718,10.8053,10.7302,10.691,10.6778,10.5216,10.4602,10.448,10.2336,10.0271,9.8434,9.6343,9.592,9.6369,0.0,0.0,0.0,0.0,0.0,0.0,0.0,0.0,0.0,0.0,0.0,0.0,0.0,0.0,0.0,-1.5328,-1.3403,-1.094,-0.7504,-0.3174,0.04,0.3034,0.3421,0.3001,0.1593,0.2335,0.2499,0.1922,0.3824,0.671,1.0303,1.3294,1.6247,1.957,2.0135,2.147,2.3139,2.3968,2.5168,2.6747,2.8754,3.0385,3.182,0.0,0.0,0.0,0.0,0.0,0.0,4.2584,4.5381,4.798,4.8781,0.0,0.0,0.0,5.736,6.1746,6.8507,7.5441,8.2475,8.9195,9.3171,9.6052,10.0428,10.3989,10.6651,10.9316,11.2519,11.5001,11.5285,11.6752,11.7384,11.7358,11.7325,11.6798,11.5407,11.498,11.4694,11.3309,11.241,11.2005,11.1543,11.0992,11.0319,10.8994,10.8203,10.7109,10.5316,10.4077,10.3136,10.2338,10.2536,10.2843,10.339,10.4411,10.547,10.626,10.5909,10.5655,10.5653,10.3847,10.3816,10.5373,10.5058,10.4296,10.3388,10.251,10.1674,10.0672,9.8632,9.6753,9.501,9.3704,9.3376,9.3488,0.0,0.0,0.0,0.0,0.0,0.0,0.0,0.0,0.0,0.0,0.0,0.0,0.0,0.0,0.0,0.0,-1.3349,-1.0455,-0.6586,-0.2796,0.0402,0.3062,0.3245,0.2413,0.0398,-0.0393,-0.0195,0.0777,0.3895,0.7282,1.0836,1.3404,1.6342,1.9854,2.0449,2.1775,2.3565,2.4278,2.5491,2.6639,2.8343,2.9859,3.168,0.0,0.0,0.0,0.0,0.0,0.0,0.0,4.4806,4.7254,4.8271,4.9791,0.0,0.0,0.0,6.1361,7.1256,7.684,8.1476,8.7784,9.1922,9.5725,9.9828,10.3645,10.6868,10.9123,11.2169,11.4379,11.4499,11.5642,11.6625,11.6312,11.6375,11.5998,11.4821,11.4001,11.3222,11.206,11.1342,11.0448,10.965,10.9619,10.9105,10.7203,10.672,10.5753,10.402,10.3283,10.2732,10.2321,10.2849,10.3531,10.3651,10.4355,10.4705,10.4881,10.3833,10.3034,10.2613,10.043,9.9619,10.0339,10.1354,10.1048,9.9629,9.9389,9.845,9.7021,9.5236,9.3554,9.2017,9.1479,9.1179,9.1105,0.0,0.0,0.0,0.0,0.0,0.0,0.0,0.0,0.0,0.0,0.0,0.0,0.0,-1.6787,-1.5863,-1.4446,-1.2295,-0.977,-0.6654,-0.3027,0.0202,0.3034,0.3234,0.0,0.0996,-0.1593,-0.198,0.0196,0.4878,0.8246,1.0592,1.3211,1.652,2.0714,2.2041,2.2828,2.292,2.3794,2.4931,2.6341,2.7927,2.9188,0.0,0.0,0.0,0.0,0.0,0.0,0.0,0.0,0.0,4.5956,4.7218,4.8744,5.0549,0.0,0.0,0.0,6.8614,7.2417,7.6496,8.4813,9.0142,9.461,9.9485,10.313,10.6027,10.8251,11.0337,11.2088,11.317,11.525,11.6482,11.6106,11.5558,11.5161,11.4564,11.2936,11.1579,11.1037,10.9302,10.8333,10.8204,10.7249,10.6606,10.6431,10.5272,10.3971,10.3256,10.326,10.2825,10.1941,10.2764,10.316,10.3511,10.3098,10.2064,10.0256,9.9858,9.8803,9.7022,9.5789,9.4005,9.201,9.5878,9.7027,9.6095,9.5545,9.487,9.4138,9.3185,9.1426,8.9508,8.9772,8.9426,8.8882,0.0,0.0,0.0,0.0,0.0,0.0,0.0,0.0,0.0,0.0,0.0,0.0,0.0,-1.5832,-1.5048,-1.3988,-1.1216,-0.8665,-0.6716,-0.3261,-0.0613,0.1028,0.2468,0.3073,0.2436,0.1411,0.0604,0.0,0.4906,0.8272,1.0556,1.3679,1.7019,2.0241,2.1064,2.2553,2.3959,2.3831,2.4909,2.6702,2.7851,2.9695,0.0,0.0,0.0,0.0,0.0,0.0,0.0,0.0,0.0,0.0,0.0,4.8352,5.0383,5.308,5.705,6.1707,6.6706,7.0698,7.5316,8.1645,8.7957,9.3882,9.7555,10.2839,10.7415,10.8339,11.073,11.2476,11.1663,11.3424,11.5133,11.437,11.4088,11.3804,11.2719,11.1742,11.0906,10.9684,10.8827,10.7834,10.7216,10.599,10.5087,10.4532,10.3227,10.2124,10.1825,10.2142,10.2182,10.1836,10.3034,10.3447,10.2829,10.0539,9.8837,9.7721,9.6463,9.5067,9.3616,9.1736,9.0071,8.874,9.0714,9.1992,9.2838,9.2798,9.2428,9.1741,9.0283,8.8829,8.7498,8.7462,8.6831,8.6016,0.0,0.0,0.0,0.0,0.0,0.0,0.0,0.0,0.0,0.0,0.0,0.0,0.0,0.0,-1.3919,-1.1974,-0.9361,-0.7146,-0.5551,-0.2674,-0.0619,-0.0,0.2083,0.3324,0.3294,0.3283,0.246,0.0617,0.4565,0.7723,1.0192,1.3616,1.6742,1.9722,2.0253,2.2035,2.4961,2.4734,2.5644,2.7377,2.8442,0.0,3.3001,0.0,0.0,0.0,0.0,0.0,0.0,0.0,0.0,0.0,0.0,0.0,5.0804,5.3196,5.6841,6.0997,6.4056,6.8137,7.32,7.9382,8.5478,9.1036,9.6284,10.1613,10.5708,10.6697,10.9562,11.1373,10.976,11.1036,11.2263,11.261,11.2393,11.1905,11.1124,11.0308,10.9166,10.8278,10.7488,10.6528,10.4927,10.4192,10.3378,10.2124,10.1402,10.0905,10.0617,10.0907,10.1241,10.1534,10.2241,10.2248,10.1713,9.8459,9.6092,9.4327,9.2842,9.1629,9.0568,8.8446,8.7053,8.6485,8.7195,8.8359,8.9826,9.033,9.0157,8.9378,8.7845,8.6621,8.553,8.5475,8.4597,8.3535,0.0,0.0,0.0,0.0,0.0,0.0,0.0,0.0,0.0,0.0,0.0,0.0,0.0,0.0,0.0,-0.85,-0.7265,-0.5611,-0.3324,-0.1039,0.0208,0.0,0.2096,0.3147,0.3119,0.3354,0.2932,0.1661,0.4047,0.6581,0.9522,1.251,1.5933,1.9515,1.9454,2.1767,2.5676,2.6262,2.7307,2.8603,0.0,3.1092,3.2463,0.0,0.0,0.0,4.2348,4.3626,0.0,0.0,0.0,0.0,0.0,0.0,0.0,5.3139,5.5612,5.8677,0.0,0.0,0.0,7.8143,8.2091,8.6289,9.5696,9.9091,10.1194,10.353,10.6552,10.8362,10.7232,10.7454,10.854,11.0222,11.0114,10.9819,10.9711,10.8375,10.6903,10.6275,10.5182,10.375,10.1917,10.2215,10.1649,9.9818,9.9962,9.9921,9.9558,9.9589,10.0025,10.0895,9.9945,9.9614,10.007,9.6826,9.3481,9.0097,8.942,8.8511,8.7572,8.5689,8.4846,8.494,8.5273,8.601,8.7003,8.796,8.7923,8.7059,8.6057,8.4889,8.3596,8.3637,8.2724,8.1467,0.0,0.0,0.0,0.0,0.0,0.0,0.0,0.0,0.0,0.0,0.0,0.0,0.0,0.0,0.0,-0.961,-0.9141,-0.6796,-0.2135,0.0849,0.2554,0.2371,0.1514,0.086,0.0847,0.2546,0.2749,0.1677,0.4918,0.7249,0.8843,1.2214,1.5243,1.836,1.9502,2.1652,2.426,2.3846,2.5607,2.9036,2.9897,3.2294,0.0,0.0,0.0,0.0,0.0,4.568,0.0,0.0,4.7714,4.8489,0.0,0.0,0.0,0.0,0.0,5.792,5.9891,0.0,0.0,0.0,0.0,0.0,8.7367,9.3356,9.9093,10.3552,10.5154,10.5704,10.4667,10.5141,10.5613,10.5613,10.6555,10.7316,10.7197,10.6104,10.526,10.5709,10.4033,10.2843,10.2086,10.0755,9.9391,9.8115,9.7671,9.713,9.7116,9.7646,9.7991,9.8086,9.7166,9.5432,9.3064,9.1328,8.8993,8.6195,8.5946,8.5124,8.3981,8.351,8.3149,8.2784,8.2467,8.2354,8.2564,8.5148,8.5973,8.5479,8.3833,8.2595,8.1579,8.0836,8.0326,7.9837,0.0,0.0,0.0,0.0,0.0,0.0,0.0,0.0,0.0,0.0,0.0,0.0,0.0,0.0,0.0,-0.795,-0.7446,-0.5234,-0.1092,0.195,0.3465,0.3504,0.2188,0.1527,0.1518,0.2798,0.2999,0.2353,0.5594,0.744,0.8091,1.1337,1.4205,1.6409,1.8159,2.0344,2.2433,2.2547,2.4782,2.874,3.0791,0.0,0.0,4.0213,4.2487,0.0,0.0,0.0,4.82,4.9252,4.975,0.0,0.0,0.0,0.0,0.0,0.0,5.7462,0.0,0.0,6.3728,6.7147,0.0,0.0,8.4053,8.9112,9.3949,10.0094,10.1702,10.2335,10.2116,10.207,10.2022,10.1637,10.2351,10.3394,10.4952,10.4346,10.3753,10.3727,10.209,10.0967,10.0023,9.8726,9.7365,9.6028,9.6135,9.6289,9.5823,9.5916,9.5661,9.5241,9.3901,9.2666,9.1757,8.9119,8.5886,8.2264,8.2643,8.2927,8.318,8.2123,8.1843,8.2052,8.0287,7.9142,7.8756,8.0104,8.1699,8.2905,8.0771,7.9193,7.7867,7.765,7.6776,7.5461,0.0,0.0,0.0,0.0206,-0.1473,-0.2999,0.0,0.0,0.0,0.0,0.0,0.0,0.0,0.0,0.0,0.0,-0.3405,-0.2023,0.0223,0.2426,0.3512,0.3512,0.3517,0.3528,0.3775,0.3717,0.3484,0.3725,0.5873,0.6992,0.7328,1.0449,1.2737,0.0,1.6332,1.8483,2.078,2.2194,2.485,2.8583,3.2149,3.4606,0.0,0.0,4.4076,0.0,4.7999,4.977,5.0718,5.157,5.1809,0.0,0.0,0.0,0.0,0.0,5.5644,0.0,0.0,0.0,0.0,6.8711,7.0331,0.0,8.24,8.5088,8.7339,9.3759,9.6638,9.829,9.8672,9.8608,9.838,9.7945,9.775,9.8896,10.2693,10.2582,10.2,10.1361,10.0193,9.8674,9.6788,9.674,9.5949,9.3599,9.5223,9.5821,9.4946,9.4177,9.333,9.2382,9.0494,9.0478,9.2337,8.7952,8.3253,7.8515,7.9852,8.1611,8.3642,8.1228,8.0703,8.1493,7.788,7.5844,7.4926,7.3817,7.586,7.9441,7.6994,7.5071,7.3709,7.4214,7.2942,7.0602,0.6278,0.0,0.3152,0.2985,0.1745,0.0,0.0,0.0,0.0,0.0,0.0,0.0,0.0,0.0,0.0,0.0,0.1417,0.0928,0.1372,0.2927,0.3128,0.2234,0.3147,0.3602,0.3809,0.4244,0.4444,0.4644,0.5776,0.6937,0.8128,1.0345,1.2303,1.397,1.6051,1.8144,2.0066,2.2764,2.6398,3.0304,3.2191,3.5378,3.9445,4.2654,4.5132,4.7456,4.9191,5.0881,5.2345,0.0,5.2996,5.2821,0.0,0.0,0.0,0.0,0.0,0.0,0.0,0.0,0.0,0.0,6.8385,0.0,7.3034,7.7785,8.2521,8.6237,8.9464,9.1462,9.183,9.3413,9.3964,9.1776,9.3481,9.6395,9.9833,9.9645,9.959,10.0738,9.9704,9.8314,9.6815,9.623,9.499,9.257,9.2742,9.2601,9.2112,9.1638,9.11,8.9974,8.7436,8.5258,8.3731,8.103,7.8771,7.6678,7.8982,8.0363,8.0877,7.9692,7.8387,7.668,7.2746,7.0401,6.9202,6.7688,6.9956,7.4375,7.2311,7.175,7.1853,7.0295,7.0638,7.1756,0.7821,0.0,0.5603,0.5262,0.4491,0.3441,0.0,0.0233,-0.1406,-0.3295,0.0,0.0,0.0,0.0,0.0,0.0,0.0,0.0,0.0,0.3453,0.3197,0.2274,0.2508,0.3209,0.4371,0.4299,0.4498,0.5192,0.582,0.6937,0.8347,1.0269,1.1984,1.3478,1.5215,1.7123,1.95,2.1871,2.5553,3.0102,3.3421,3.7277,4.1596,4.4225,4.6718,4.9386,5.0257,5.1845,5.351,5.3709,5.4,0.0,0.0,5.4563,5.4981,0.0,5.8129,6.0256,0.0,0.0,0.0,6.5523,0.0,0.0,0.0,7.5034,7.9008,8.3918,8.5282,8.567,8.6216,8.7393,8.8052,8.7599,8.9553,9.1725,9.3394,9.6112,9.8386,9.9268,9.8203,9.6835,9.5042,9.4439,9.325,9.107,9.0228,8.9726,8.9498,8.8873,8.7705,8.6148,8.3664,8.1628,8.0182,7.7622,7.64,7.6392,7.8672,7.9852,7.9896,7.7417,7.5168,7.2834,6.7629,6.481,6.3692,6.2279,6.3351,6.5709,6.6243,6.7107,6.7881,6.5771,6.55,6.5311,0.9233,0.0,0.7944,0.6964,0.6688,0.6139,0.4306,0.3128,0.1939,0.0734,0.1775,0.0,0.0,0.0,0.0,0.0,0.0,0.0,0.0,0.0,0.3499,0.2767,0.2536,0.3017,0.471,0.4354,0.4549,0.5536,0.6324,0.7183,0.8347,1.0223,1.1693,1.3006,1.4444,1.6681,1.9269,2.1004,2.4958,3.0654,3.472,3.8785,4.2613,4.5151,4.7669,4.9858,5.1197,5.2757,5.4122,5.4115,0.0,5.6121,5.5984,5.6493,0.0,0.0,0.0,0.0,0.0,0.0,0.0,0.0,0.0,6.7554,0.0,0.0,0.0,8.1526,8.1036,7.9777,8.0809,8.1031,8.1603,8.2902,8.4931,8.6202,8.6102,9.124,9.552,9.6445,9.6365,9.5382,9.2806,9.1596,9.0244,8.8915,8.7816,8.7035,8.7095,8.6426,8.4873,8.2147,7.985,7.8318,7.7617,7.522,7.4716,7.6039,7.8043,7.9097,7.8983,7.4613,7.1274,6.8601,6.2188,5.8871,5.7939,5.69,5.6624,5.7429,6.0198,6.2127,6.2986,6.0779,5.8565,5.5238,1.087,0.9917,0.0,0.7542,0.7575,0.7545,0.7613,0.6002,0.4588,0.3903,0.4745,0.0,0.0,0.0,0.0,0.0,0.0,0.0,0.5465,0.0,0.0,0.3727,0.3722,0.3735,0.4006,0.4895,0.5337,0.5581,0.7412,0.8561,0.9267,1.0653,1.1823,1.3015,1.5315,1.7606,2.0411,2.2527,2.797,3.4993,3.6135,3.7721,3.999,4.4223,4.6576,4.8498,5.1883,5.3434,5.4411,0.0,5.6284,5.7076,0.0,5.8061,5.9047,0.0,0.0,0.0,0.0,0.0,0.0,0.0,6.8512,0.0,0.0,0.0,7.2352,7.333,0.0,7.4067,7.5017,0.0,0.0,7.478,7.8685,8.1442,8.0433,8.3393,8.7122,9.096,9.4806,9.5242,9.0897,8.7461,8.5665,8.5843,8.5333,8.49,8.4426,8.5857,8.4362,7.9422,7.6454,7.419,7.2568,7.1728,7.2315,7.4412,7.6445,7.6998,7.6119,7.1041,6.6523,6.2242,5.5418,5.2104,5.1705,5.0894,5.1507,5.3263,5.6041,5.7663,5.8143,5.4928,4.9815,4.3699,1.2017,1.1372,0.0,0.9294,0.9083,0.9084,0.9279,0.852,0.7666,0.723,0.8155,0.0,0.0,0.0,0.0,0.0,0.0,0.0,0.0,0.0,0.0,0.0,0.4529,0.0,0.0,0.5675,0.6094,0.726,0.766,0.8567,0.9989,1.0407,1.1686,1.3368,1.3902,1.6109,1.9568,2.2077,2.5632,3.0294,3.397,3.5902,3.7156,4.3674,4.7482,4.9904,5.2165,5.3669,5.4755,0.0,5.5715,0.0,0.0,0.0,0.0,0.0,0.0,0.0,0.0,0.0,0.0,0.0,0.0,0.0,6.8558,0.0,6.9254,0.0,0.0,0.0,0.0,0.0,0.0,0.0,7.3847,7.5464,7.4065,7.7118,8.1723,8.789,8.8676,8.8156,8.6459,8.4294,8.2968,8.3082,8.2213,8.1248,7.9961,7.985,7.8359,7.4912,7.2583,7.1198,7.0886,7.0982,7.3028,7.693,7.6779,7.5443,7.3025,6.6495,6.0549,5.4994,4.8536,4.5489,4.52,4.5126,4.6056,4.7671,4.9242,5.2412,5.5567,5.1975,4.5202,3.8127,1.3455,0.0,0.0,1.056,1.0348,1.0408,1.0234,0.9714,0.9386,0.9547,0.0,0.0,1.1127,1.0694,0.0,0.0,0.0,0.8053,0.0,0.0,0.5835,0.0,0.0,0.0,0.0,0.0,0.6861,0.8242,0.8141,0.9076,1.0825,1.0692,1.2023,1.4158,1.371,1.5529,1.9754,2.3285,2.6489,2.9094,3.4134,3.7141,3.9074,4.4622,4.8285,5.0565,5.2118,5.3384,5.4623,5.4431,5.58,0.0,5.7801,0.0,0.0,0.0,0.0,0.0,6.4577,0.0,0.0,0.0,0.0,0.0,0.0,0.0,0.0,0.0,6.8997,0.0,0.0,0.0,6.8854,6.901,0.0,7.0887,6.8956,7.1573,7.6136,8.2873,8.2553,8.1726,8.1663,8.0458,7.9687,7.9934,7.8424,7.7116,7.6139,7.392,7.2089,7.0421,6.8779,6.845,6.9469,7.0613,7.3393,7.7671,7.6403,7.3568,6.9289,6.1528,5.4485,4.808,4.1839,3.9027,3.9116,3.9382,4.0593,4.2344,4.3392,4.6816,5.0759,4.7941,4.1949,3.5241,1.5347,1.444,0.0,0.0,1.1177,1.16,1.0726,0.8638,0.8215,0.0,0.0,0.0,0.0,0.0,0.0,0.0,0.0,0.9941,0.9065,0.0,0.6843,0.0,0.0,0.0,0.0,0.0,0.0,0.7532,0.9403,1.0705,1.167,1.211,1.3377,1.5755,1.5529,1.7703,2.1906,2.8375,3.3058,3.6599,3.8872,4.323,4.8366,4.7512,4.7857,4.9172,5.1269,5.2828,0.0,5.5566,5.7585,0.0,0.0,0.0,0.0,0.0,0.0,0.0,0.0,0.0,0.0,6.7394,0.0,0.0,0.0,0.0,6.9142,0.0,0.0,0.0,7.0641,7.0105,0.0,0.0,6.8691,0.0,0.0,6.6443,6.9046,7.4442,7.7495,7.855,7.6811,7.5352,7.4982,7.626,7.337,7.2189,7.3903,6.9783,6.7249,6.6758,6.5433,6.574,6.7768,7.0208,7.2459,7.4426,7.4236,7.0876,6.4538,5.6233,4.8752,4.1922,3.5636,3.3188,3.3466,3.3953,3.5508,3.7935,3.9456,4.0622,4.172,4.2005,3.9005,3.5216,0.0,0.0,0.0,0.0,1.2137,1.1779,1.1175,1.1137,1.1438,0.0,0.0,0.0,0.0,0.0,1.5216,0.0,0.0,1.3217,1.1094,1.0306,0.0,0.0,0.0,0.9268,0.0,0.0,0.0,0.0,0.0,1.1637,1.2517,1.3076,1.4148,1.6264,1.8272,2.2033,2.7174,3.4334,3.7728,3.8189,4.0859,4.5274,4.9938,5.0196,5.0768,5.1599,5.2503,5.3343,5.4632,5.5954,5.7356,5.9053,6.0109,6.1326,6.3049,6.5353,6.7315,6.8659,0.0,0.0,7.1966,6.9393,0.0,0.0,0.0,0.0,0.0,0.0,0.0,0.0,0.0,0.0,0.0,0.0,0.0,6.5193,0.0,6.1568,6.2625,6.5643,7.0824,7.3409,7.1771,7.2976,7.3401,7.2605,6.9885,6.8608,6.9542,6.5586,6.3609,6.432,6.3936,6.5042,6.7579,7.0135,7.2469,7.4576,7.136,6.648,6.0052,5.0393,4.2034,3.5086,3.0153,2.7765,2.7605,2.9088,3.0899,3.2713,3.4939,3.6307,3.7183,3.9585,3.7848,3.4347,1.7975,0.0,0.0,0.0,1.2997,1.2354,1.2486,1.3204,0.0,0.0,1.6033,0.0,1.8693,0.0,1.7595,0.0,1.6795,1.5476,1.2857,1.298,0.0,1.2766,1.1702,0.0,0.0,0.0,0.0,0.0,0.0,1.315,1.4312,1.409,1.5413,1.7598,2.0494,2.4715,3.0403,3.7462,4.0618,4.1524,4.4519,4.7918,5.1214,5.2185,5.2188,5.162,5.3251,5.4128,5.4845,5.6182,5.7486,5.8841,6.1128,6.2545,6.4194,6.7016,6.8692,6.997,7.0551,7.1773,0.0,7.1136,7.0657,0.0,6.8459,0.0,0.0,0.0,0.0,0.0,0.0,0.0,0.0,0.0,0.0,0.0,0.0,5.829,5.8387,5.9749,6.5324,6.8944,6.8475,6.9165,6.9504,6.8944,6.6257,6.4949,6.5828,6.2991,6.18,6.2695,6.283,6.418,6.6825,6.936,7.0965,7.162,6.7164,6.0984,5.3261,4.3764,3.5646,2.8905,2.4796,2.2753,2.265,2.4474,2.6264,2.8231,3.065,3.2185,3.2913,3.6259,3.581,3.3817,0.0,0.0,0.0,0.0,1.4235,1.3857,0.0,0.0,1.5986,0.0,1.786,1.8722,2.0571,1.9263,1.8634,1.9487,1.8654,0.0,1.4944,1.5565,0.0,0.0,1.3812,1.4235,1.4867,0.0,0.0,0.0,0.0,1.5053,1.6657,1.5676,1.6703,1.9767,2.2145,2.6156,3.1419,3.7686,4.2499,4.5891,4.9328,5.1463,5.2636,5.3648,5.239,5.0476,5.3475,5.4288,5.4281,5.687,5.8209,5.923,6.229,6.4222,6.5977,6.8879,7.0159,7.0751,7.2151,7.2571,7.2836,7.2481,7.2149,0.0,0.0,0.0,7.1576,0.0,0.0,0.0,0.0,0.0,0.0,0.0,0.0,0.0,5.7863,5.6552,5.6169,5.6773,6.1138,6.4735,6.6285,6.4285,6.3392,6.4916,6.2358,6.1229,6.2589,6.1756,6.1267,6.1645,6.1873,6.3197,6.5427,6.773,6.7826,6.5673,6.1556,5.4358,4.4539,3.6342,2.9313,2.3502,1.9526,1.805,1.8556,1.9929,2.1803,2.3946,2.6501,2.7972,2.8742,3.2045,3.3172,3.3104,2.0701,1.8669,1.7102,0.0,1.5687,1.4937,0.0,0.0,0.0,0.0,1.948,2.0423,2.1441,2.1001,2.0565,1.9956,2.0017,0.0,0.0,0.0,0.0,1.719,1.6624,1.6376,1.7048,1.5505,0.0,1.531,0.0,1.5173,1.6109,1.6772,1.7715,1.9251,2.3717,2.8226,3.2224,3.8256,4.4047,4.9371,5.1102,5.2452,5.3306,5.421,5.372,5.3176,5.4342,5.4819,5.5079,5.6057,5.8972,6.2038,6.2947,6.4543,6.6883,6.8889,7.048,7.1787,7.2516,7.4289,7.5246,7.3765,7.344,7.3145,0.0,0.0,0.0,0.0,0.0,0.0,0.0,0.0,0.0,0.0,0.0,0.0,0.0,5.5632,5.4592,5.565,5.6759,5.7711,5.8346,6.0503,6.0884,5.8425,5.9443,6.0023,5.9643,5.774,5.7305,5.8671,5.9545,6.1065,6.3397,6.4431,6.349,6.0519,5.2989,4.5541,3.809,2.8888,2.2712,1.9215,1.6034,1.4636,1.4708,1.6493,1.7793,1.9196,2.1579,2.3005,2.4397,2.8686,3.0414,3.1087,2.1596,1.9951,0.0,1.9006,0.0,0.0,1.7244,0.0,0.0,2.0425,2.1188,0.0,2.2152,2.1973,2.1333,2.0891,2.1001,0.0,0.0,0.0,0.0,1.8549,1.8701,1.8826,1.9201,1.7882,0.0,1.7573,0.0,1.6153,1.7234,1.7081,1.8008,1.9528,2.4885,2.8777,3.2032,3.9278,4.5512,5.0463,5.1488,5.282,0.0,5.4857,5.5136,5.5036,5.6307,5.6132,5.5729,5.7389,6.0326,6.3164,6.4106,6.593,6.7983,6.958,7.0858,7.2246,7.3517,7.4854,7.5858,7.5674,7.5357,7.4662,7.3944,7.3547,7.3352,0.0,7.2555,0.0,0.0,0.0,0.0,0.0,0.0,0.0,0.0,0.0,5.3697,5.3743,5.372,5.3144,5.1753,5.5131,5.6485,5.431,5.5145,5.559,5.5121,5.4266,5.4701,5.6577,5.7664,5.8918,6.0532,6.0099,5.7191,5.1694,4.3419,3.5734,2.8631,2.0723,1.6195,1.4562,1.2015,1.1151,1.1851,1.3142,1.429,1.5803,1.835,1.9878,2.1466,2.4739,2.707,2.9005,2.2702,2.1534,0.0,0.0,0.0,0.0,0.0,2.0667,0.0,2.2646,0.0,2.3081,2.2645,2.2443,2.1985,2.1746,0.0,2.0959,1.9779,2.0455,2.0263,1.9406,2.0416,2.1294,2.1028,2.0636,0.0,0.0,0.0,1.7394,1.8309,1.7589,1.8289,2.0437,2.5466,2.9315,3.2542,4.11,4.7024,5.0692,5.1251,5.2639,5.4429,5.5507,5.5995,5.6206,5.7862,5.7701,5.6654,5.9605,6.1841,6.3769,6.5398,6.7174,6.9247,7.0725,7.1372,7.2203,7.4497,7.499,7.5493,7.733,7.7126,7.6272,7.608,7.508,7.4412,7.4827,7.3377,7.2817,0.0,0.0,0.0,0.0,0.0,0.0,0.0,0.0,0.0,5.2027,5.2008,0.0,4.682,4.9654,5.1537,5.0992,5.0149,4.9821,5.0149,5.1076,5.2543,5.4761,5.5538,5.6224,5.6865,5.4641,4.9277,4.0997,3.3472,2.5896,1.8314,1.31,1.0501,0.9938,0.8072,0.8053,0.9529,1.0056,1.1412,1.3229,1.5717,1.7448,1.9004,2.0782,2.3408,2.6704,2.3184,0.0,0.0,0.0,0.0,2.2859,2.2958,2.4192,2.4819,2.411,2.5254,2.5424,2.4018,2.3684,2.2936,2.2105,2.1898,0.0,0.0,0.0,0.0,2.1734,2.109,2.13,2.1991,1.9973,1.8587,0.0,0.0,1.697,1.6846,1.8176,1.9477,2.0848,2.5948,3.2338,3.9577,4.4467,4.8295,5.0692,5.19,5.3161,5.4162,5.4754,5.5565,5.655,5.7714,5.8551,5.947,6.0415,6.2875,6.5545,6.6385,6.7833,6.9784,7.1079,7.2149,7.3228,7.4006,7.5582,7.6567,7.6353,7.7036,7.7777,7.7486,7.6586,7.6166,7.6957,7.5563,7.4324,7.4277,0.0,0.0,0.0,0.0,0.0,0.0,0.0,0.0,0.0,5.2655,5.0765,4.6404,4.8259,4.834,4.5124,4.5753,4.6593,4.7302,4.7124,4.8558,5.208,5.1719,5.1259,5.0737,4.6872,4.0239,3.1208,2.4671,1.796,1.1262,0.8161,0.6978,0.7285,0.6356,0.6482,0.7011,0.7976,0.9211,1.0985,1.2632,1.4012,1.4858,1.7152,1.9742,2.2886,2.4854,0.0,0.0,0.0,0.0,0.0,0.0,2.8276,2.846,2.5698,2.5493,2.5461,2.4697,2.4601,2.4276,2.3259,2.2779,2.226,2.1681,2.1561,2.143,2.1983,2.1916,0.0,2.2554,0.0,2.0306,1.991,0.0,0.0,1.7004,1.8036,1.9408,2.1096,2.6767,3.3826,4.1284,4.3869,4.7053,5.031,5.1474,5.2705,5.3841,5.4829,5.5715,5.6805,5.8606,5.9937,6.0639,6.1719,6.347,6.537,6.723,6.8593,6.9922,7.2116,7.2831,7.3563,7.4754,7.5679,7.6435,7.6455,7.719,7.7989,7.7624,7.7046,7.6665,7.7268,7.6235,7.4809,7.3439,7.0066,0.0,0.0,0.0,0.0,0.0,0.0,0.0,0.0,0.0,0.0,4.4318,4.526,4.4989,4.2318,4.1919,4.2434,4.379,4.3132,4.4354,4.8028,4.6795,4.5193,4.3373,3.7741,3.0669,2.238,1.5721,1.0302,0.6019,0.3487,0.3386,0.4933,0.4455,0.5064,0.6227,0.7405,0.8535,0.9591,1.0986,1.208,1.2887,1.5265,1.7954,2.0876,2.6605,2.5762,0.0,0.0,2.8567,2.8912,2.9802,3.1541,3.1339,2.7292,2.642,2.6203,2.5399,2.5882,2.5641,2.4124,2.4053,2.3236,2.192,2.18,2.1724,2.1691,2.2621,2.3496,2.3672,2.2659,2.2026,0.0,0.0,0.0,1.7712,1.8218,1.9886,2.2813,2.8547,3.4701,4.068,4.2581,4.5962,4.9764,5.1099,5.2627,5.3949,5.5247,5.6121,5.7197,5.9373,6.0947,6.1818,6.3029,6.3848,6.5084,6.7585,6.8978,7.0302,7.2869,7.3517,7.3743,7.5622,7.6072,7.6095,7.689,7.7422,7.7583,7.782,7.7076,7.6736,7.7326,7.6788,7.5377,7.2748,7.0169,0.0,0.0,0.0,0.0,0.0,0.0,0.0,0.0,0.0,0.0,4.1448,4.1271,4.0843,3.9133,3.8323,3.8183,3.8914,3.8461,3.9362,4.1757,4.0099,3.7691,3.4578,2.8192,2.1259,1.3682,0.7782,0.37,0.1464,0.0,0.0662,0.2621,0.308,0.4115,0.5817,0.7233,0.7972,0.8311,0.9777,1.0905,1.1725,1.3885,1.6308,1.8978,0.0,2.8006,0.0,0.0,0.0,3.0809,3.1369,3.221,3.2129,3.0069,2.9884,2.9254,2.7465,2.7504,2.6711,2.4651,2.4158,2.3589,2.2181,2.205,2.2271,2.3176,2.3164,2.3769,2.5312,2.4346,2.27,0.0,0.0,0.0,1.7712,1.8933,2.214,2.6944,3.1283,3.529,3.9168,4.2759,4.634,4.9677,5.0952,5.2977,5.4911,5.5565,5.6464,5.809,5.9582,6.1351,6.35,6.4699,6.5155,6.5799,6.7445,6.9541,7.1398,7.3194,7.418,7.4968,7.6079,7.6475,7.6841,7.7506,7.7586,7.7948,7.8761,7.7877,7.7255,7.8678,7.8414,7.6665,7.2429,7.3279,7.1782,0.0,0.0,0.0,0.0,0.0,0.0,0.0,0.0,0.0,3.781,3.6293,3.467,3.2446,3.4604,3.4597,3.1449,3.2436,3.2559,3.1481,3.0507,2.791,2.3392,1.8963,1.2462,0.4022,0.2879,0.0185,-0.3245,-0.1117,0.0,0.0523,0.2508,0.4139,0.4987,0.5976,0.663,0.6627,0.8421,0.934,1.0307,1.2176,1.4355,1.6832,0.0,0.0,0.0,0.0,0.0,0.0,0.0,3.405,3.3689,3.2425,3.2065,3.061,2.8806,2.9167,2.8686,2.6266,2.5396,2.451,2.2878,2.2398,2.2322,2.2613,2.2892,2.3831,2.5732,2.4034,2.3068,0.0,0.0,0.0,0.0,2.0214,2.3482,2.8225,3.1194,3.5134,3.9475,4.2171,4.5454,4.9157,5.1346,5.2905,5.4681,5.5951,5.7642,5.8916,6.0475,6.2014,6.3757,6.5299,6.6509,6.7573,6.947,7.0542,7.1867,7.4524,7.5079,7.5267,7.7048,7.7198,7.7018,7.7422,7.7781,7.8117,7.8403,7.7725,7.7319,7.7773,7.7763,7.6931,7.4349,7.3356,7.1707,6.8093,0.0,0.0,0.0,0.0,0.0,0.0,0.0,0.0,3.5484,3.333,3.0975,2.7943,2.8934,2.9304,2.8421,2.6057,2.504,2.5836,2.1931,1.8658,1.6178,1.0172,0.4959,0.0342,-0.1483,-0.2837,-0.3777,-0.2429,-0.0799,0.0874,0.2744,0.4099,0.4519,0.5818,0.6461,0.6437,0.7658,0.8247,0.8527,0.982,1.1364,1.348,3.3156,0.0,3.376,0.0,3.4546,3.4641,3.6068,3.5656,3.5085,3.3815,3.3421,3.2273,3.0056,3.0404,2.9944,2.7542,2.6711,2.548,2.3508,2.3055,2.2978,2.255,2.2812,0.0,2.5706,2.4699,2.4137,2.3998,2.322,0.0,0.0,2.2284,2.5064,2.9127,3.177,3.5305,3.9542,4.2013,4.5066,4.8886,5.1141,5.3227,5.4638,5.6489,5.821,5.9458,6.0862,6.2296,6.3821,6.5462,6.6806,6.8368,7.0341,7.1272,7.2362,7.5137,7.5627,7.5623,7.7436,7.7474,7.7151,7.7284,7.7609,7.7754,7.7714,7.7039,7.6678,7.6301,7.6025,7.5496,7.4477,7.2233,6.9862,6.7933,0.0,0.0,0.0,0.0,0.0,0.0,0.0,3.6713,3.1944,2.935,2.6595,2.3406,2.2585,2.2535,2.3482,1.9787,1.761,1.7344,1.285,0.9557,0.7631,0.2313,-0.1194,-0.3184,-0.4878,-0.5315,-0.4349,-0.319,-0.1448,0.0937,0.258,0.3277,0.362,0.4933,0.5249,0.5553,0.6171,0.678,0.7066,0.7736,0.9311,1.0833,3.5078,3.5254,3.5942,3.746,3.7326,3.6853,3.6679,3.6798,3.5805,3.4161,3.4714,3.4398,3.1301,3.0937,3.0139,2.78,2.78,2.6887,2.4709,2.4331,2.3862,0.0,0.0,2.5274,2.5152,2.6739,2.6984,2.5234,0.0,0.0,2.3107,2.5214,2.7581,3.0243,3.3299,3.6415,3.9628,4.2897,4.594,4.8729,5.1064,5.3331,5.5581,5.6857,5.8246,5.9376,6.042,6.1819,6.3791,6.4771,6.6474,6.8164,6.9703,7.133,7.2906,7.4064,7.5398,7.6435,7.6642,7.7309,7.7436,7.6925,7.6509,7.6639,7.6922,7.6041,7.5212,7.4787,7.3351,7.2132,7.1664,7.0144,6.6476,5.8764,0.0,0.0,0.0,0.0,0.0,0.0,3.5214,3.0418,2.6273,2.3552,2.0923,1.833,1.5595,1.4239,1.4778,1.3762,1.0386,0.4153,0.298,0.0576,-0.3503,-0.4456,-0.6011,-0.7673,-0.7567,-0.6782,-0.6011,-0.3522,-0.1561,0.0,0.0983,0.1655,0.2648,0.2648,0.2648,0.2646,0.3618,0.4607,0.5289,0.6284,0.7602,0.9243,3.803,3.7985,3.839,3.8701,3.8974,3.9193,3.8767,3.6986,3.5609,3.5806,3.5888,3.5207,3.3455,3.2631,3.1402,2.9034,2.8215,2.7387,0.0,2.5721,2.5219,2.3998,2.497,2.5518,2.5274,2.6101,2.6451,2.5685,0.0,0.0,2.4787,2.6663,2.8547,3.0403,3.3398,3.6433,3.9523,4.2349,4.5448,4.8754,5.1706,5.3648,5.5553,5.7566,5.9187,6.0522,6.0552,6.2067,6.3957,6.4336,6.5644,6.6971,6.8616,7.0404,7.2334,7.4037,7.4875,7.5283,7.6987,7.697,7.6579,7.6995,7.6576,7.5867,7.6023,7.4334,7.22,7.0134,6.9154,6.7982,6.598,6.425,6.1832,5.8083,5.5366,0.0,0.0,0.0,0.0,0.0,2.9437,2.5449,2.2411,1.9114,1.6389,1.4424,1.1439,1.028,1.1401,0.7656,0.4151,0.1309,-0.2237,-0.455,-0.5608,-0.7572,-0.8514,-0.877,-0.8704,-0.7646,-0.58,-0.4003,-0.2562,-0.0656,0.0668,0.1347,0.1684,0.2359,0.2687,0.2678,0.3008,0.3342,0.3349,0.3699,0.4691,0.5652,4.0308,3.9879,3.9811,3.9887,4.0467,4.0654,3.9813,3.8382,3.6964,3.7116,3.6818,3.6151,3.508,3.396,3.2353,3.0306,2.9061,2.7852,2.7075,2.6626,2.5781,2.4527,2.516,2.5323,2.5335,2.6216,2.666,2.6646,2.6355,2.6589,2.6691,2.8081,2.9675,3.1485,3.4049,3.6936,3.9846,4.1965,4.5166,4.8754,5.1922,5.4063,5.5498,5.7851,5.9625,6.0741,6.0411,6.1467,6.3204,6.3466,6.4076,6.5312,6.6873,6.8396,7.0214,7.2774,7.3888,7.4383,7.5528,7.5683,7.565,7.5773,7.4911,7.3794,7.2664,7.0001,6.7273,6.474,6.3282,6.1774,5.9786,5.8231,5.6693,5.4653,5.0939,4.6948,4.2904,0.0,0.0,0.0,0.0,2.0874,1.8107,1.4875,1.2327,1.0806,0.7351,0.5489,0.5933,0.2265,-0.0978,-0.3102,-0.6846,-0.8705,-0.8735,-1.0419,-1.0628,-0.9474,-0.8705,-0.7713,-0.648,-0.4785,-0.3272,-0.2334,-0.0677,-0.0341,-0.0341,0.0341,0.0681,0.1017,0.1021,0.1361,0.1699,0.1705,0.2039,0.2362,4.1841,4.1192,4.0616,4.1051,4.1127,4.0898,4.0178,4.0233,3.9519,3.7669,3.7471,3.7152,3.5881,3.5271,3.3729,3.1589,3.032,2.9074,2.7839,2.71,2.589,2.4908,2.4539,2.4709,2.5359,2.6045,2.6882,2.7472,2.7065,2.7276,2.8417,2.942,3.1002,3.3185,3.5225,3.7242,3.9904,4.2111,4.5211,4.8729,5.1688,5.3966,5.5913,5.7945,5.9392,6.013,5.9842,6.0483,6.175,6.1643,6.2301,6.3258,6.4194,6.5307,6.6959,7.0397,7.2614,7.3783,7.2848,7.3492,7.4319,7.3173,7.2069,7.0286,6.7009,6.375,6.0811,5.8801,5.6285,5.4157,5.3359,5.2303,5.0908,4.8689,4.548,4.1844,3.7665,3.2857,0.0,2.3847,2.0021,1.6561,1.3513,1.0932,0.8787,0.7364,0.322,0.0164,-0.1009,-0.277,-0.5251,-0.8527,-1.0885,-1.2211,-1.2475,-1.2768,-1.2179,-1.0065,-0.8051,-0.7368,-0.7312,-0.5238,-0.4006,-0.4051,-0.3071,-0.2743,-0.2743,-0.2758,-0.241,-0.1373,-0.1387,-0.1042,-0.0346,-0.0346,-0.0345,-0.0689,4.2628,4.231,4.2089,4.1811,4.2632,4.2671,4.1675,4.0598,3.9921,3.8594,3.7925,3.7253,3.6222,3.5414,3.4207,3.376,3.2015,3.0375,2.9235,2.8385,2.7476,2.6836,2.6105,2.5552,2.5494,2.6445,2.6882,2.7472,2.7485,2.7839,2.8901,3.0039,3.1245,3.2524,3.5142,3.7102,3.9084,4.1842,4.5211,4.8729,5.1479,5.3883,5.6143,5.7524,5.911,6.0422,5.9645,6.0518,6.1608,6.122,6.1531,6.25,6.2851,6.3408,6.459,6.7687,6.941,7.0093,7.0325,7.0515,7.0477,6.9437,6.6978,6.384,6.0508,5.8109,5.5858,5.2773,5.159,5.0518,4.8286,4.6539,4.4642,4.242,3.9117,3.5566,3.1863,2.7028,2.2468,1.8715,1.4652,1.1329,0.9588,0.73,0.5298,0.3541,0.0478,-0.2369,-0.4927,-0.8178,-1.0037,-1.0165,-1.2024,-1.3053,-1.3498,-1.3606,-1.309,-1.1121,-0.9156,-0.8282,-0.7818,-0.5701,-0.4781,-0.4145,-0.3128,-0.279,-0.279,-0.2792,-0.2792,-0.2442,-0.2459,-0.2464,-0.2462,-0.3177,-0.3158,-0.347,4.3441,4.278,4.2134,4.175,4.2538,4.2634,4.2128,4.1685,4.0598,3.9419,3.8925,3.7775,3.6466,3.5947,3.509,3.3973,3.2204,3.0868,3.0445,2.8882,2.7629,2.6987,2.6178,2.5637,2.5641,2.5857,2.6691,2.777,2.7865,2.8624,3.0077,3.0511,3.1687,3.3219,3.5381,3.7301,3.8953,4.1904,4.5143,4.8559,5.1323,5.3608,5.5625,5.7073,5.8223,5.8977,5.8351,5.9023,5.9743,5.8987,5.9516,6.0168,5.981,5.9629,5.9979,6.1043,6.3727,6.6011,6.5437,6.5116,6.4194,6.2276,6.017,5.7906,5.4825,5.3043,5.1101,4.8292,4.7221,4.5917,4.3333,4.1605,3.984,3.7501,3.3844,3.0148,2.672,2.1567,1.7022,1.3822,0.998,0.7145,0.584,0.3302,0.1269,-0.0163,-0.351,-0.6322,-0.8284,-1.1754,-1.3284,-1.2278,-1.3643,-1.4496,-1.4451,-1.3744,-1.304,-1.1778,-1.0441,-0.9148,-0.8672,-0.7185,-0.6611,-0.6331,-0.5658,-0.5671,-0.5671,-0.5685,-0.5337,-0.4984,-0.5008,-0.502,-0.5017,-0.6078,-0.6753,-0.7047,4.4283,4.319,4.2154,4.1996,4.2421,4.2592,4.2714,4.2582,4.1799,4.0253,3.963,3.8743,3.7037,3.6514,3.5669,3.4186,3.2766,3.1777,3.0897,2.9369,2.7756,2.6762,2.554,2.4967,2.5444,2.5628,2.6171,2.8136,2.8163,2.9279,3.1155,3.1535,3.2312,3.4208,3.5569,3.7463,3.9085,4.1945,4.4704,4.7946,5.0535,5.2887,5.4517,5.6177,5.7125,5.7165,5.674,5.7009,5.7231,5.6297,5.6492,5.6816,5.5619,5.4844,5.4396,5.2992,5.6231,5.9922,5.9225,5.8488,5.7247,5.4484,5.3519,5.2696,5.0321,4.8672,4.7152,4.5326,4.3631,4.1721,3.9246,3.7563,3.5665,3.2932,2.906,2.5182,2.1851,1.6549,1.1964,0.9116,0.5919,0.341,0.2102,-0.0649,-0.277,-0.3811,-0.7602,-1.0291,-1.1267,-1.4504,-1.5739,-1.4619,-1.5885,-1.5994,-1.5242,-1.4054,-1.3056,-1.2508,-1.1347,-1.0338,-0.9884,-0.9406,-0.8842,-0.8927,-0.8982,-0.9003,-0.9008,-0.9059,-0.8709,-0.7988,-0.8033,-0.804,-0.8021,-0.9042,-1.0073,-1.1108,4.2865,4.3851,4.4563,4.2878,4.4188,4.4699,4.3431,4.3036,4.2226,4.0306,3.9876,3.907,3.7217,3.6693,3.6644,3.6413,3.4983,3.3213,3.0462,2.9107,2.8161,2.7629,2.6762,2.5842,2.4862,2.5323,2.6171,2.8136,2.8971,3.0091,3.1155,3.2007,3.3138,3.4208,3.5569,3.7373,3.8878,4.1238,4.3614,4.6695,4.8455,5.0862,5.3216,5.4405,5.5597,5.6435,5.5425,5.572,5.5867,5.4066,5.3335,5.2989,5.1143,4.9819,4.8738,4.6842,4.6741,4.8275,5.1719,5.2273,5.1668,5.1075,5.0433,4.9447,4.7829,4.6834,4.5959,4.4524,4.2721,4.0495,3.7453,3.4582,3.1357,2.7304,2.3759,2.0268,1.6714,1.2337,0.8432,0.5576,0.2301,-0.0155,-0.1476,-0.4166,-0.6276,-0.7675,-1.0496,-1.2736,-1.4354,-1.6531,-1.7682,-1.7379,-1.7541,-1.719,-1.6119,-1.508,-1.4379,-1.3788,-1.2615,-1.1913,-1.2128,-1.133,-1.1114,-1.1182,-1.1293,-1.1341,-1.1346,-1.1399,-1.1425,-1.1425,-1.1489,-1.1452,-1.1372,-1.2139,-1.3142,-1.4415,4.4694,4.4344,4.3934,4.2878,4.3481,4.4145,4.3319,4.3225,4.2412,4.059,4.0052,3.9208,3.7414,3.6872,3.6429,3.613,3.5531,3.3842,3.1516,3.0476,2.9476,2.8135,2.7641,2.7037,2.5958,2.689,2.781,2.8367,2.949,3.025,3.129,3.242,3.317,3.4208,3.5569,3.7012,3.8141,4.0744,4.3027,4.5246,4.6974,4.8881,5.0966,5.194,5.2698,5.2688,5.2806,5.2671,5.2155,5.0903,5.0172,4.9322,4.6948,4.5223,4.394,4.2067,4.2697,4.4507,4.6145,4.6787,4.7002,4.6645,4.657,4.6532,4.6373,4.5747,4.5217,4.4414,4.1728,3.8325,3.4677,3.0493,2.6306,2.229,1.8671,1.5464,1.2657,0.874,0.4996,0.2086,-0.1061,-0.3754,-0.5488,-0.7889,-0.9976,-1.2048,-1.4188,-1.6284,-1.7883,-1.9476,-2.0051,-1.9206,-1.8396,-1.7561,-1.6957,-1.6896,-1.6421,-1.6146,-1.5584,-1.4915,-1.4495,-1.4042,-1.3857,-1.3607,-1.3746,-1.3802,-1.3809,-1.3872,-1.3928,-1.3953,-1.3916,-1.4259,-1.4593,-1.5627,-1.6256,-1.7606,4.611,4.4384,4.2865,4.2639,4.2865,4.3187,4.3508,4.3432,4.2635,4.0874,4.0661,3.9795,3.7677,3.748,3.7002,3.594,3.572,3.4823,3.2962,3.2295,3.0848,2.8329,2.8122,2.7865,2.7901,2.8154,2.876,2.8979,2.9998,3.0704,3.1761,3.2818,3.3505,3.4208,3.5569,3.6651,3.7388,3.9941,4.2121,4.3567,4.5585,4.706,4.8286,4.9552,4.9563,4.9315,4.9805,4.9507,4.8629,4.7214,4.6363,4.5127,4.2536,4.0681,3.9263,3.7831,3.9593,4.1869,4.1949,4.2673,4.3359,4.3441,4.4221,4.5288,4.6144,4.6055,4.5457,4.4271,4.0466,3.5831,3.0941,2.5908,2.1236,1.7552,1.4288,1.1476,0.9193,0.5619,0.2114,-0.1012,-0.4101,-0.6795,-0.9134,-1.1392,-1.3632,-1.5946,-1.802,-1.9708,-2.0922,-2.2103,-2.2289,-2.1348,-1.9345,-1.8284,-1.821,-1.8713,-1.8867,-1.8619,-1.8677,-1.8378,-1.7304,-1.7209,-1.7048,-1.6086,-1.6247,-1.6312,-1.5941,-1.64,-1.6473,-1.651,-1.6773,-1.713,-1.7897,-1.8822,-1.9847,-2.0918,4.5311,4.4145,4.3054,4.3414,4.3489,4.3527,4.3565,4.3754,4.3062,4.0909,4.1399,4.1104,3.8038,3.8126,3.8425,3.7619,3.7164,3.6194,3.5606,3.4143,3.192,2.8638,2.7489,2.7641,2.9425,2.83,2.8445,3.0211,3.0776,3.1761,3.2818,3.3521,3.4224,3.4208,3.5569,3.658,3.7187,3.955,4.0723,4.1747,4.3478,4.4987,4.6201,4.7068,4.7753,4.7967,4.6729,4.629,4.579,4.3268,4.1733,4.0336,3.7759,3.5925,3.4722,3.3768,3.5086,3.7237,3.9017,4.0347,4.1776,4.3438,4.5562,4.7357,4.8226,4.8399,4.7353,4.3701,3.8839,3.3158,2.6087,2.1075,1.6731,1.292,1.0867,0.902,0.6626,0.3416,0.0143,-0.3036,-0.636,-0.932,-1.16,-1.444,-1.6935,-1.8761,-2.0671,-2.2227,-2.2552,-2.3505,-2.3897,-2.3958,-2.1305,-2.0191,-2.068,-2.118,-2.1659,-2.2137,-2.1562,-2.1618,-2.1601,-2.1183,-2.0275,-1.9266,-1.9457,-1.9154,-1.8399,-1.9256,-1.9683,-1.9691,-2.0835,-2.1144,-2.1451,-2.2193,-2.3252,-2.4257,4.8165,4.6629,4.5675,4.5902,4.4788,4.4461,4.5231,4.448,4.3689,4.2036,4.209,4.1739,3.9028,3.891,3.8877,3.7863,3.7473,3.6879,3.5793,3.4705,3.2439,2.9798,2.9067,2.8856,2.9479,2.886,2.9045,3.0382,3.1292,3.1957,3.3129,3.3969,3.4289,3.437,3.5637,3.6168,3.6314,3.8559,4.0288,4.0915,4.2046,4.3086,4.4273,4.4334,4.4554,4.4318,4.3778,4.3248,4.2189,4.0078,3.8384,3.6806,3.4328,3.3113,3.2501,3.3127,3.4277,3.5976,3.7999,4.033,4.2503,4.4386,4.639,4.7959,4.8355,4.6652,4.3752,3.9373,3.3208,2.6734,2.0741,1.6241,1.2385,0.9526,0.8114,0.6476,0.3882,0.1156,-0.2114,-0.5688,-0.8427,-1.1341,-1.468,-1.7066,-1.9417,-2.1421,-2.3535,-2.4453,-2.4248,-2.4131,-2.4317,-2.4564,-2.3538,-2.2764,-2.2964,-2.3409,-2.3831,-2.4276,-2.4435,-2.4158,-2.304,-2.2951,-2.2413,-2.107,-2.1275,-2.0982,-2.0613,-2.1166,-2.1612,-2.1621,-2.2716,-2.3444,-2.378,-2.479,-2.5853,-2.6919,5.0218,4.8822,4.7922,4.7945,4.6336,4.5192,4.6356,4.5115,4.3895,4.2713,4.3101,4.2379,4.0484,3.9991,3.9551,3.8805,3.7781,3.7185,3.6365,3.527,3.337,3.0307,3.0049,2.9832,2.9629,2.9789,2.9972,3.0539,3.1811,3.2464,3.3238,3.3712,3.3969,3.4305,3.5569,3.5687,3.543,3.8249,3.9598,3.991,4.0837,4.1481,4.2228,4.2146,4.1896,4.1263,4.1202,4.0111,3.8663,3.713,3.544,3.3505,3.1523,3.0562,3.0422,3.2084,3.3466,3.4923,3.7049,3.96,4.216,4.4371,4.6157,4.7113,4.6638,4.3564,3.9214,3.3712,2.713,2.0742,1.5435,1.1795,0.8807,0.6463,0.5372,0.3925,0.1012,-0.1517,-0.4455,-0.8152,-1.087,-1.3679,-1.7235,-1.9707,-2.1834,-2.4195,-2.6091,-2.6976,-2.6355,-2.5573,-2.5171,-2.5563,-2.575,-2.5745,-2.6214,-2.5769,-2.6108,-2.6878,-2.7075,-2.6408,-2.5601,-2.519,-2.4288,-2.2945,-2.2785,-2.2501,-2.2155,-2.2646,-2.2694,-2.309,-2.4195,-2.5323,-2.6053,-2.7099,-2.8158,-2.8821,5.0584,4.9681,4.9112,4.9112,4.7371,4.6046,4.6046,4.5269,4.3712,4.2098,4.3322,4.3805,4.2456,4.1707,4.077,3.9771,3.8855,3.7895,3.7733,3.6608,3.4354,3.0619,3.0456,3.0239,2.9927,3.0728,3.0852,3.0695,3.2334,3.3238,3.3083,3.3083,3.3248,3.3948,3.4608,3.4817,3.5236,3.8035,3.8742,3.814,3.9998,4.0511,4.0031,4.0283,4.0121,3.9306,3.8335,3.7054,3.5672,3.4345,3.2481,3.0689,2.9071,2.8061,2.7959,3.0192,3.184,3.3634,3.605,3.79,4.0003,4.2912,4.4556,4.4844,4.2686,3.9238,3.4327,2.6824,2.1243,1.5896,1.0104,0.7954,0.6202,0.3705,0.2866,0.1445,-0.1952,-0.4564,-0.7316,-1.0303,-1.3511,-1.6724,-1.9692,-2.2346,-2.4632,-2.6615,-2.8289,-2.8945,-2.8368,-2.7604,-2.7173,-2.7472,-2.7906,-2.8718,-3.0225,-2.8311,-2.8088,-2.9276,-2.875,-2.8729,-2.8896,-2.7156,-2.6285,-2.5236,-2.4299,-2.3667,-2.2956,-2.3647,-2.4005,-2.4402,-2.6389,-2.7114,-2.7404,-2.9511,-3.0173,-3.0292,5.2288,5.1075,5.0107,5.0768,4.872,4.7125,4.7913,4.6337,4.4738,4.4343,4.4738,4.4738,4.4287,4.3782,4.2438,3.9104,3.9004,3.8464,3.6727,3.6507,3.5131,3.337,3.2133,3.1361,3.1023,3.1208,3.1023,3.0852,3.1779,3.247,3.253,3.2168,3.2297,3.2543,3.3326,3.3733,3.4032,3.6024,3.7341,3.8258,3.8245,3.8614,3.8904,3.8411,3.8051,3.7391,3.6421,3.4986,3.3183,3.1394,2.9286,2.7168,2.5562,2.4829,2.5078,2.6557,2.8255,3.0099,3.2159,3.4199,3.6756,4.1031,4.107,3.9192,3.5942,3.1042,2.5201,1.8396,1.3417,0.9153,0.5639,0.407,0.283,0.1372,0.0145,-0.1532,-0.4199,-0.7099,-1.0136,-1.3602,-1.6426,-1.9081,-2.256,-2.4913,-2.6863,-2.7951,-2.9059,-2.9578,-2.9426,-2.9494,-2.9314,-2.8245,-3.0097,-3.0884,-3.0895,-2.9528,-2.9276,-3.0826,-3.0226,-2.9821,-2.9322,-2.8908,-2.8035,-2.6672,-2.7241,-2.6991,-2.629,-2.6356,-2.7173,-2.7978,-2.838,-2.9111,-2.9775,-3.1316,-3.158,-3.1366,5.3053,5.179,5.1277,5.2026,4.9961,4.8751,4.9229,4.7917,4.6647,4.6288,4.625,4.6211,4.6211,4.5341,4.3985,4.1019,4.0418,3.9838,3.809,3.7522,3.6926,3.5517,3.3973,3.2425,3.1606,3.1436,3.0868,3.0292,3.1665,3.1955,3.1563,3.1199,3.1292,3.1439,3.2148,3.2811,3.305,3.4998,3.6231,3.676,3.6697,3.6936,3.706,3.6617,3.6104,3.5118,3.4135,3.2297,3.0096,2.834,2.5711,2.2953,2.1289,2.0598,2.0474,2.138,2.2739,2.4202,2.5287,2.6635,2.8424,3.0832,3.2936,3.3068,2.7875,2.2473,1.6841,1.0985,0.6806,0.3522,0.1333,0.0496,-0.0271,-0.1437,-0.2907,-0.4702,-0.751,-1.0451,-1.3511,-1.6715,-1.9418,-2.2058,-2.5016,-2.7214,-2.9218,-3.0639,-3.0497,-3.0617,-3.1062,-3.1324,-3.11,-2.9996,-3.1852,-3.2601,-3.2545,-3.1762,-3.1493,-3.251,-3.1797,-3.1369,-3.0843,-3.0409,-2.9511,-2.8542,-2.9124,-2.8903,-2.8666,-2.8654,-2.9072,-2.9527,-2.9884,-3.0543,-3.1167,-3.2342,-3.2919,-3.26,5.3757,5.3191,5.2639,5.2899,5.1574,5.109,5.09,4.975,4.8751,4.8136,4.8394,4.8791,4.8215,4.6802,4.5474,4.4261,4.2688,4.1205,4.0247,3.9669,3.9011,3.7489,3.5532,3.368,3.1934,3.1749,3.1136,2.9724,3.1561,3.1753,3.0724,3.0553,3.0581,3.1155,3.1153,3.1469,3.1755,3.3968,3.4491,3.3737,3.5263,3.5381,3.4491,3.4738,3.3968,3.2582,3.1491,2.9103,2.6291,2.4668,2.1763,1.8418,1.6495,1.5171,1.4441,1.4777,1.5391,1.6025,1.617,1.6638,1.683,1.5521,2.1243,2.5424,1.879,1.3749,0.9135,0.4476,0.1296,-0.1099,-0.2515,-0.2641,-0.3141,-0.4917,-0.6428,-0.8411,-1.1493,-1.4342,-1.7286,-1.9553,-2.2687,-2.5272,-2.7433,-2.9582,-3.168,-3.3725,-3.2721,-3.2288,-3.2646,-3.2449,-3.2515,-3.2482,-3.3178,-3.3882,-3.5342,-3.4522,-3.4294,-3.3913,-3.3472,-3.2945,-3.3101,-3.158,-3.1049,-3.0817,-3.029,-3.0132,-3.0342,-3.0119,-3.0082,-3.0579,-3.1256,-3.1441,-3.1607,-3.3753,-3.3827,-3.3693,5.6459,5.5802,5.5117,5.5388,5.3758,5.2571,5.2592,5.0914,4.9661,5.0147,5.0106,5.0893,5.2083,4.9337,4.7035,4.5625,4.4058,4.2169,4.0418,3.9838,3.9245,3.7863,3.5655,3.4167,3.34,3.2338,3.1305,2.9873,3.0868,3.1137,2.9968,2.9583,2.9569,3.0279,3.0187,3.0817,3.1739,3.1789,3.227,3.2409,3.1973,3.2109,3.2467,3.2085,3.1608,3.1177,2.8954,2.6596,2.3697,1.8697,1.6885,1.6055,1.1857,0.8139,0.5333,0.5907,0.5712,0.5743,0.7248,0.8542,0.9136,0.8136,0.8795,0.9576,0.9156,0.5658,0.1724,-0.1369,-0.3493,-0.5033,-0.5562,-0.6045,-0.6982,-0.8572,-1.047,-1.2571,-1.5136,-1.8274,-2.1407,-2.4317,-2.6847,-2.9346,-3.1739,-3.3865,-3.5096,-3.562,-3.4954,-3.4592,-3.4596,-3.5159,-3.45,-3.3347,-3.5924,-3.7365,-3.6799,-3.766,-3.6927,-3.5393,-3.4957,-3.4432,-3.4609,-3.377,-3.3198,-3.3378,-3.2478,-3.3034,-3.3511,-3.2746,-3.3539,-3.4682,-3.4231,-3.4425,-3.4959,-3.5404,-3.508,-3.4987,5.7698,5.6991,5.6259,5.6533,5.5254,5.402,5.4129,5.2827,5.1569,5.1995,5.1995,5.1974,5.2316,5.0914,4.9036,4.7074,4.5057,4.3607,4.1553,4.0881,3.9889,3.822,3.6338,3.4821,3.4092,3.2247,3.0778,3.0022,3.0256,3.0473,3.032,2.9847,2.9785,3.0456,3.0306,3.0586,3.0848,3.0604,3.0437,3.0544,2.9891,2.9749,3.027,2.9289,2.8813,2.8091,2.5366,2.182,1.7837,1.3344,1.1423,1.0204,0.5717,0.1709,-0.1415,-0.207,-0.2323,-0.2206,-0.1636,0.01,0.138,-0.015,-0.0943,-0.0763,0.1552,-0.058,-0.3591,-0.5696,-0.7311,-0.8464,-0.9148,-0.9876,-1.0924,-1.2476,-1.417,-1.6202,-1.8769,-2.1618,-2.4402,-2.7206,-2.9687,-3.2169,-3.5082,-3.627,-3.6926,-3.764,-3.7113,-3.6747,-3.6485,-3.6882,-3.6579,-3.5606,-3.771,-3.8643,-3.8457,-3.9701,-3.9365,-3.7814,-3.6353,-3.5741,-3.6,-3.5139,-3.4929,-3.5046,-3.4553,-3.5133,-3.5614,-3.4796,-3.5205,-3.6418,-3.5527,-3.6105,-3.6625,-3.7027,-3.7452,-3.8009,5.8475,5.7718,5.6982,5.7258,5.6356,5.55,5.5724,5.4755,5.3811,5.3405,5.3405,5.3383,5.2142,5.1652,5.0592,4.8092,4.6519,4.5094,4.3065,4.2311,4.0898,3.8512,3.7042,3.5528,3.4346,3.2163,3.0673,3.0226,3.0049,3.0187,3.0966,3.0482,3.0689,3.1189,3.0696,3.0262,2.9843,2.9385,2.8913,2.8379,2.7885,2.7737,2.7651,2.6387,2.5663,2.4628,2.1336,1.6649,1.1386,0.8595,0.5886,0.3082,-0.0796,-0.4856,-0.8437,-0.9657,-0.9721,-0.942,-0.9625,-0.7624,-0.5864,-0.7283,-0.7934,-0.7569,-0.5059,-0.5863,-0.7638,-0.9361,-1.0538,-1.1639,-1.2868,-1.384,-1.4769,-1.6318,-1.7821,-1.9725,-2.2371,-2.4771,-2.7368,-3.0148,-3.2673,-3.5139,-3.761,-3.8202,-3.8665,-3.9312,-3.8956,-3.8488,-3.8318,-3.8181,-3.8207,-3.7733,-3.8944,-3.9803,-3.9906,-4.0874,-4.137,-4.0196,-3.8074,-3.7387,-3.7326,-3.6473,-3.6223,-3.6238,-3.6194,-3.6418,-3.6917,-3.6796,-3.7204,-3.728,-3.7143,-3.7677,-3.8151,-3.9269,-4.0384,-4.1264,6.0089,5.9829,5.9973,6.0237,5.8815,5.772,5.8201,5.6941,5.5636,5.4395,5.5222,5.5157,5.4137,5.25,5.0757,4.8111,4.7572,4.5795,4.2648,4.202,4.1036,3.8512,3.6333,3.4837,3.4375,3.2388,3.0985,3.0538,3.0253,3.0339,3.1137,3.0653,3.0747,3.1695,3.0194,2.969,2.9485,2.7694,2.632,2.556,2.5031,2.4243,2.3909,2.3121,2.2231,2.1182,1.7957,1.2843,0.7306,0.4327,0.0827,-0.2957,-0.6706,-1.3258,-1.9221,-1.7081,-1.7368,-1.7683,-1.4778,-1.2849,-1.1344,-0.9922,-1.0213,-1.1049,-1.1265,-1.1134,-1.1256,-1.254,-1.4,-1.5215,-1.6207,-1.7007,-1.8134,-2.018,-2.1596,-2.349,-2.6614,-2.9396,-3.1935,-3.458,-3.7839,-3.9709,-3.8883,-4.0994,-4.1736,-4.0201,-4.086,-4.1077,-4.0052,-3.9137,-3.8676,-3.7928,-4.0025,-4.1229,-4.07,-4.2062,-4.2542,-4.2542,-4.1352,-3.9889,-3.8133,-3.8455,-3.8631,-3.8664,-3.7128,-3.7689,-3.921,-3.9339,-3.9617,-4.0585,-4.1374,-4.1519,-4.1518,-4.1796,-4.2476,-4.3146,6.1717,6.1889,6.163,6.0982,6.0306,5.9554,5.8293,5.7467,5.7076,5.5878,5.627,5.5746,5.4288,5.2973,5.1349,4.9457,4.8249,4.6405,4.3933,4.2736,4.1329,4.0166,3.742,3.553,3.4505,3.221,3.1121,3.085,3.047,3.0448,3.1151,3.051,3.0485,3.1047,2.9862,2.9048,2.8501,2.6201,2.4877,2.4073,2.2267,2.129,2.078,1.9454,1.8012,1.6173,1.1709,0.7052,0.2723,-0.0245,-0.3796,-0.7702,-1.1851,-1.7169,-2.1762,-2.1058,-2.0636,-1.973,-1.7213,-1.4638,-1.2643,-1.2068,-1.2541,-1.353,-1.5145,-1.5991,-1.635,-1.6349,-1.741,-1.8683,-1.9957,-2.1038,-2.2238,-2.3819,-2.5461,-2.7321,-2.9576,-3.194,-3.4592,-3.7543,-4.0139,-4.1668,-4.1495,-4.2525,-4.2867,-4.2687,-4.2557,-4.1966,-4.1256,-4.1104,-4.0613,-3.9054,-4.0708,-4.1101,-4.0605,-4.1867,-4.192,-4.1528,-4.1651,-4.095,-3.9452,-3.9717,-3.9498,-3.9211,-3.8333,-3.9226,-4.0397,-4.0479,-4.1157,-4.1708,-4.2932,-4.3807,-4.4457,-4.5,-4.5018,-4.5166]}]]